[[{"header":{"parameterUnit":"m.s-1","parameterCategory":1,"la1":30.6,"la2":29.2853,"lo1":-89.7004,"lo2":-87.6739,"dy":0.0162,"dx":0.0183,"nx":112,"ny":82,"refTime":"2026-05-23T12:00:00:Z","depth":0,"parameterNumber":2,"parameterNumberName":"U-component_of_WINDS"},"data":[0.0,0.0,0.0,0.0,0.0,0.0,0.0,0.0,0.0,0.0,0.0,0.0,0.0,0.0,0.0,0.0,0.0,0.0,0.0,0.0,0.0,0.0,0.0,0.0,0.0,0.0,0.0,0.0,0.0,0.0,0.0,0.0,0.0,0.0,0.0,0.0,0.0,0.0,0.0,0.0,0.0,0.0,0.0,0.0,0.0,0.0,0.0,0.0,0.0,0.0,0.0,0.0,0.0,0.0,0.0,0.0,0.0,0.0,0.0,0.0,0.0,0.0,0.0,0.0,0.0,0.0,0.0,0.0,0.0,0.0,0.0,0.0,0.0,0.0,0.0,0.0,0.0,0.0,0.0,0.0,0.0,0.0,0.0,0.0,0.0,0.0,0.0,0.0,0.0,0.0,-3.4982,-3.9539,-4.3031,-4.468,-4.3866,-4.1355,-3.7456,-3.1924,0.0,0.0,0.0,0.0,0.0,0.0,0.0,0.0,0.0,0.0,0.0,0.0,0.0,0.0,0.0,0.0,0.0,0.0,0.0,0.0,0.0,0.0,0.0,0.0,0.0,0.0,0.0,0.0,0.0,0.0,0.0,0.0,0.0,0.0,0.0,0.0,0.0,0.0,0.0,0.0,0.0,0.0,0.0,0.0,0.0,0.0,0.0,0.0,0.0,0.0,0.0,0.0,0.0,0.0,0.0,0.0,0.0,0.0,0.0,0.0,0.0,0.0,0.0,0.0,0.0,0.0,0.0,0.0,0.0,0.0,0.0,0.0,0.0,0.0,0.0,0.0,0.0,0.0,0.0,0.0,0.0,0.0,0.0,0.0,0.0,0.0,0.0,0.0,0.0,0.0,0.0,0.0,0.0,0.0,0.0,0.0,0.0,0.0,0.0,0.0,0.0,0.0,0.0,0.0,-3.5971,-4.3821,-4.5751,-4.5979,-4.4722,-4.2515,-3.8641,-3.2625,0.0,0.0,0.0,0.0,0.0,0.0,0.0,0.0,0.0,0.0,0.0,0.0,0.0,0.0,0.0,0.0,0.0,0.0,0.0,0.0,0.0,0.0,0.0,0.0,0.0,0.0,0.0,0.0,0.0,0.0,0.0,0.0,0.0,0.0,0.0,0.0,0.0,0.0,0.0,0.0,0.0,0.0,0.0,0.0,0.0,0.0,0.0,0.0,0.0,0.0,0.0,0.0,0.0,0.0,0.0,0.0,0.0,0.0,0.0,0.0,0.0,0.0,0.0,0.0,0.0,0.0,0.0,0.0,0.0,0.0,0.0,0.0,0.0,0.0,0.0,0.0,0.0,0.0,0.0,0.0,0.0,0.0,0.0,0.0,0.0,0.0,0.0,0.0,0.0,0.0,0.0,0.0,0.0,0.0,0.0,0.0,0.0,0.0,0.0,0.0,0.0,0.0,0.0,-3.5813,-3.9396,-4.6181,-4.7192,-4.6831,-4.5466,-4.3007,-3.9105,-3.3311,-3.0086,0.0,0.0,0.0,0.0,0.0,0.0,0.0,0.0,0.0,0.0,0.0,0.0,0.0,0.0,0.0,0.0,0.0,0.0,0.0,0.0,0.0,0.0,0.0,0.0,0.0,0.0,0.0,0.0,0.0,0.0,0.0,0.0,0.0,0.0,0.0,0.0,0.0,0.0,0.0,0.0,0.0,0.0,0.0,0.0,0.0,0.0,0.0,0.0,0.0,0.0,0.0,0.0,0.0,0.0,0.0,0.0,0.0,0.0,0.0,0.0,0.0,0.0,0.0,0.0,0.0,0.0,0.0,0.0,0.0,0.0,0.0,0.0,0.0,0.0,0.0,0.0,0.0,0.0,0.0,0.0,0.0,0.0,0.0,0.0,0.0,0.0,0.0,0.0,0.0,0.0,0.0,0.0,0.0,0.0,0.0,0.0,0.0,0.0,0.0,0.0,0.0,0.0,-4.0553,-4.3098,-4.7432,-4.8071,-4.7524,-4.5908,-4.3068,-3.9133,-3.386,-2.9831,0.0,0.0,0.0,0.0,0.0,0.0,0.0,0.0,0.0,0.0,0.0,0.0,0.0,0.0,0.0,0.0,0.0,0.0,0.0,0.0,0.0,0.0,0.0,0.0,0.0,0.0,0.0,0.0,0.0,0.0,0.0,0.0,0.0,0.0,0.0,0.0,0.0,0.0,0.0,0.0,0.0,0.0,0.0,0.0,0.0,0.0,0.0,0.0,0.0,0.0,0.0,0.0,0.0,0.0,0.0,0.0,0.0,0.0,0.0,0.0,0.0,0.0,0.0,0.0,0.0,0.0,0.0,0.0,0.0,0.0,0.0,0.0,0.0,0.0,0.0,0.0,0.0,0.0,0.0,0.0,0.0,0.0,0.0,0.0,0.0,0.0,0.0,0.0,0.0,0.0,0.0,0.0,0.0,0.0,0.0,0.0,0.0,0.0,0.0,0.0,0.0,0.0,-4.188,-4.5974,-4.7703,-4.8511,-4.8063,-4.5974,-4.2646,-3.8745,-3.4237,-2.8608,0.0,0.0,0.0,0.0,0.0,0.0,0.0,0.0,0.0,0.0,0.0,0.0,0.0,0.0,0.0,0.0,0.0,0.0,0.0,0.0,0.0,0.0,0.0,0.0,0.0,0.0,0.0,0.0,0.0,0.0,0.0,0.0,0.0,0.0,0.0,0.0,0.0,0.0,0.0,0.0,0.0,0.0,0.0,0.0,0.0,0.0,0.0,0.0,0.0,0.0,0.0,0.0,0.0,0.0,0.0,0.0,0.0,0.0,0.0,0.0,0.0,0.0,0.0,0.0,0.0,0.0,0.0,0.0,0.0,0.0,0.0,0.0,0.0,0.0,0.0,0.0,0.0,0.0,0.0,0.0,0.0,0.0,0.0,0.0,0.0,0.0,0.0,0.0,0.0,0.0,0.0,0.0,0.0,0.0,0.0,0.0,0.0,0.0,0.0,0.0,0.0,0.0,-4.1035,-4.4857,-4.824,-4.8849,-4.813,-4.5974,-4.3747,-3.9732,-3.3386,0.0,0.0,0.0,0.0,0.0,0.0,0.0,0.0,0.0,0.0,0.0,0.0,0.0,0.0,0.0,0.0,0.0,0.0,0.0,0.0,0.0,0.0,0.0,0.0,0.0,0.0,0.0,0.0,0.0,0.0,0.0,0.0,0.0,0.0,0.0,0.0,0.0,0.0,0.0,0.0,0.0,0.0,0.0,0.0,0.0,0.0,0.0,0.0,0.0,0.0,0.0,0.0,0.0,0.0,0.0,0.0,0.0,0.0,0.0,0.0,0.0,0.0,0.0,0.0,0.0,0.0,0.0,0.0,0.0,0.0,0.0,0.0,0.0,0.0,0.0,0.0,0.0,0.0,0.0,0.0,0.0,0.0,0.0,0.0,0.0,0.0,0.0,0.0,0.0,0.0,0.0,0.0,0.0,0.0,0.0,0.0,0.0,0.0,0.0,0.0,0.0,0.0,-3.7246,-4.1305,-4.506,-4.8612,-4.9018,-4.8192,-4.6283,-4.3997,-3.9902,-3.347,0.0,0.0,0.0,0.0,0.0,0.0,0.0,0.0,0.0,0.0,0.0,0.0,0.0,0.0,0.0,0.0,0.0,0.0,0.0,0.0,0.0,0.0,0.0,0.0,0.0,0.0,0.0,0.0,0.0,0.0,0.0,0.0,0.0,0.0,0.0,0.0,0.0,0.0,0.0,0.0,0.0,0.0,0.0,0.0,0.0,0.0,0.0,0.0,0.0,0.0,0.0,0.0,0.0,0.0,0.0,0.0,0.0,0.0,0.0,0.0,0.0,0.0,0.0,0.0,0.0,0.0,0.0,0.0,0.0,0.0,0.0,0.0,0.0,0.0,0.0,0.0,0.0,0.0,0.0,0.0,0.0,0.0,0.0,0.0,0.0,0.0,0.0,0.0,0.0,0.0,0.0,0.0,0.0,0.0,0.0,0.0,0.0,0.0,0.0,0.0,0.0,0.0,-3.7516,-4.3132,-4.7361,-4.8849,-4.9018,-4.8409,-4.6921,-4.3037,-3.8874,0.0,0.0,0.0,0.0,0.0,0.0,0.0,0.0,0.0,0.0,0.0,0.0,0.0,0.0,0.0,0.0,0.0,0.0,0.0,0.0,0.0,0.0,0.0,0.0,0.0,0.0,0.0,0.0,0.0,0.0,0.0,0.0,0.0,0.0,0.0,0.0,0.0,0.0,0.0,0.0,0.0,0.0,0.0,0.0,0.0,0.0,0.0,0.0,0.0,0.0,0.0,0.0,0.0,0.0,0.0,0.0,0.0,0.0,0.0,0.0,0.0,0.0,0.0,0.0,0.0,0.0,0.0,0.0,0.0,0.0,0.0,0.0,0.0,0.0,0.0,0.0,0.0,0.0,0.0,0.0,0.0,0.0,0.0,0.0,0.0,0.0,0.0,0.0,0.0,0.0,0.0,0.0,0.0,0.0,0.0,0.0,0.0,0.0,0.0,0.0,0.0,0.0,0.0,-3.7516,-4.3572,-4.8139,-4.9627,-4.9763,-4.9187,-4.7699,-4.5042,-4.0549,-3.3795,0.0,0.0,0.0,0.0,0.0,0.0,0.0,0.0,0.0,0.0,0.0,0.0,0.0,0.0,0.0,0.0,0.0,0.0,0.0,0.0,0.0,0.0,0.0,0.0,0.0,0.0,0.0,0.0,0.0,0.0,0.0,0.0,0.0,0.0,0.0,0.0,0.0,0.0,0.0,0.0,0.0,0.0,0.0,0.0,0.0,0.0,0.0,0.0,0.0,0.0,0.0,0.0,0.0,0.0,0.0,0.0,0.0,0.0,0.0,0.0,0.0,0.0,0.0,0.0,0.0,0.0,0.0,0.0,0.0,0.0,0.0,0.0,0.0,0.0,0.0,0.0,0.0,0.0,0.0,0.0,0.0,0.0,0.0,0.0,0.0,0.0,0.0,0.0,0.0,0.0,0.0,0.0,0.0,0.0,0.0,0.0,0.0,0.0,0.0,0.0,0.0,0.0,-3.7516,-4.3775,-4.8477,-4.9932,-5.0101,-4.9627,-4.8443,-4.6041,-4.1692,-3.4902,0.0,0.0,0.0,0.0,0.0,0.0,0.0,0.0,0.0,0.0,0.0,0.0,0.0,0.0,0.0,0.0,0.0,0.0,0.0,0.0,0.0,0.0,0.0,0.0,0.0,0.0,0.0,0.0,0.0,0.0,0.0,0.0,0.0,0.0,0.0,0.0,0.0,0.0,0.0,0.0,0.0,0.0,0.0,0.0,0.0,0.0,0.0,0.0,0.0,0.0,0.0,0.0,0.0,0.0,0.0,0.0,0.0,0.0,0.0,0.0,0.0,0.0,0.0,0.0,0.0,0.0,0.0,0.0,0.0,0.0,0.0,0.0,0.0,0.0,0.0,0.0,0.0,0.0,0.0,0.0,0.0,0.0,0.0,0.0,0.0,0.0,0.0,0.0,0.0,0.0,0.0,0.0,0.0,0.0,0.0,0.0,0.0,0.0,0.0,0.0,0.0,0.0,-3.7618,-4.3876,-4.8545,-4.9932,-5.0135,-4.9864,-4.9086,-4.6346,-4.2482,-3.7235,0.0,0.0,0.0,0.0,0.0,0.0,0.0,0.0,0.0,0.0,0.0,0.0,0.0,0.0,0.0,0.0,0.0,0.0,0.0,0.0,0.0,0.0,0.0,0.0,0.0,0.0,0.0,0.0,0.0,0.0,0.0,0.0,0.0,0.0,0.0,0.0,0.0,0.0,0.0,0.0,0.0,0.0,0.0,0.0,0.0,0.0,0.0,0.0,0.0,0.0,0.0,0.0,0.0,0.0,0.0,0.0,0.0,0.0,0.0,0.0,-3.8012,-3.6162,0.0,0.0,0.0,0.0,0.0,0.0,0.0,0.0,0.0,0.0,0.0,0.0,0.0,0.0,0.0,0.0,0.0,0.0,0.0,0.0,0.0,0.0,0.0,0.0,0.0,0.0,0.0,0.0,0.0,0.0,0.0,0.0,0.0,0.0,0.0,0.0,0.0,0.0,0.0,0.0,-3.8294,-4.4621,-4.912,-4.9999,-5.0608,-5.0439,-4.912,-4.6819,-4.3234,-3.799,-3.385,0.0,0.0,0.0,0.0,0.0,0.0,0.0,0.0,0.0,0.0,0.0,0.0,0.0,0.0,0.0,0.0,0.0,0.0,0.0,0.0,0.0,0.0,0.0,0.0,0.0,0.0,0.0,0.0,0.0,0.0,0.0,0.0,0.0,0.0,0.0,0.0,0.0,0.0,0.0,0.0,0.0,0.0,0.0,0.0,0.0,0.0,0.0,0.0,0.0,0.0,0.0,0.0,0.0,0.0,0.0,0.0,0.0,0.0,0.0,-4.3749,-4.1544,0.0,0.0,0.0,0.0,0.0,0.0,0.0,0.0,0.0,0.0,0.0,0.0,0.0,0.0,0.0,0.0,0.0,0.0,0.0,0.0,0.0,0.0,0.0,0.0,0.0,0.0,0.0,0.0,0.0,0.0,0.0,0.0,0.0,0.0,0.0,0.0,0.0,0.0,0.0,0.0,-3.8599,-4.4857,-4.9289,-4.9999,-5.0439,-5.0371,-4.9593,-4.7192,-4.4079,-4.0257,-3.5847,0.0,0.0,0.0,0.0,0.0,0.0,0.0,0.0,0.0,0.0,0.0,0.0,0.0,0.0,0.0,0.0,0.0,0.0,0.0,0.0,0.0,0.0,0.0,0.0,0.0,0.0,0.0,0.0,0.0,0.0,0.0,0.0,0.0,0.0,0.0,0.0,0.0,0.0,0.0,0.0,0.0,0.0,0.0,0.0,0.0,0.0,0.0,0.0,0.0,0.0,0.0,0.0,0.0,-5.0243,-5.1722,-5.3201,-5.21,-5.296,-5.5025,-4.9948,-4.7997,-4.8198,-4.4516,0.0,0.0,0.0,0.0,0.0,0.0,0.0,0.0,0.0,0.0,0.0,0.0,0.0,0.0,0.0,0.0,0.0,0.0,0.0,0.0,0.0,0.0,-3.9132,-3.9993,-4.112,-4.0654,-3.5712,0.0,0.0,0.0,0.0,0.0,0.0,0.0,0.0,0.0,0.0,0.0,-3.9242,-4.5094,-4.9221,-4.983,-4.9999,-4.9999,-4.9729,-4.7361,-4.4925,-4.2625,-3.7956,-3.3964,0.0,0.0,0.0,0.0,0.0,0.0,0.0,0.0,0.0,0.0,0.0,0.0,0.0,0.0,0.0,0.0,0.0,0.0,0.0,0.0,0.0,0.0,0.0,0.0,0.0,0.0,0.0,0.0,0.0,0.0,0.0,0.0,-2.7383,-2.9142,0.0,0.0,0.0,0.0,0.0,0.0,0.0,0.0,0.0,0.0,0.0,0.0,0.0,-4.741,-4.8736,-5.3122,-5.5014,-5.4566,-5.7979,-5.9082,-5.8082,-5.8599,-5.9047,-5.9357,-5.8565,0.0,-5.2111,-4.9045,0.0,0.0,0.0,0.0,0.0,0.0,0.0,0.0,0.0,0.0,0.0,0.0,0.0,0.0,0.0,0.0,0.0,0.0,0.0,0.0,0.0,0.0,-4.6544,-4.5279,-4.515,-4.5026,-4.4141,-3.8802,-3.3897,-3.2882,-3.1035,-2.933,0.0,0.0,0.0,0.0,0.0,0.0,-4.1407,-4.6041,-4.9052,-4.912,-4.9729,-4.9593,-4.8308,-4.7259,-4.5669,-4.3375,-4.0189,-3.7043,-3.4032,-3.0326,0.0,0.0,0.0,0.0,0.0,0.0,0.0,0.0,0.0,0.0,0.0,0.0,0.0,0.0,0.0,0.0,0.0,0.0,0.0,0.0,0.0,0.0,0.0,0.0,0.0,0.0,0.0,0.0,0.0,-2.7097,-3.0581,-3.1258,-3.1825,-3.1599,0.0,0.0,0.0,0.0,0.0,0.0,0.0,0.0,0.0,-4.8064,-5.0361,-5.2429,-5.433,-5.7255,-5.8737,-5.884,-6.0944,-6.1841,-6.1599,-6.153,-6.1703,-6.2082,-6.1668,-6.0288,-5.8083,-5.419,-5.1085,-4.8424,0.0,0.0,0.0,0.0,-4.363,-4.394,-4.5561,-4.6113,-4.5768,-4.3768,0.0,0.0,0.0,0.0,0.0,0.0,0.0,-4.2771,-4.3572,-4.6152,-4.8499,-4.8553,-4.8899,-4.8941,-4.7942,-4.4844,-4.1265,-3.7845,-3.6062,-3.4066,-3.0804,-3.0649,0.0,0.0,0.0,-4.0155,-4.2591,-4.6481,-4.9018,-4.9018,-4.8917,-4.8612,-4.7939,-4.6853,-4.5568,-4.4147,-4.1644,-3.9276,-3.711,-3.3457,-3.0108,0.0,0.0,0.0,0.0,0.0,0.0,0.0,0.0,0.0,0.0,0.0,0.0,0.0,0.0,0.0,0.0,0.0,0.0,0.0,0.0,0.0,0.0,0.0,0.0,0.0,0.0,0.0,0.0,-3.0649,-3.3749,-3.3757,-3.5506,-3.5776,0.0,0.0,0.0,0.0,0.0,0.0,-4.5214,-4.7438,-5.0287,-5.3808,-5.546,-5.715,-5.9047,-6.0392,-6.1358,-6.191,-6.2496,-6.3048,-6.3565,-6.3013,-6.3082,-6.3565,-6.3013,-6.2772,-6.2461,-5.8426,-5.5426,-5.3115,-5.0493,-4.8872,-4.8079,-4.8252,-4.87,-4.9424,-5.1321,-5.1977,-5.1632,-4.9597,-4.7844,-4.5914,-4.2319,0.0,0.0,0.0,0.0,-4.5354,-4.7107,-4.8529,-4.9772,-5.0754,-5.1408,-5.1514,-5.0233,-4.9304,-4.7261,-4.2475,-4.079,-3.8817,-3.4493,-3.4506,0.0,-3.4629,-3.8667,-4.2388,-4.4045,-4.7056,-4.8951,-4.8748,-4.824,-4.7736,-4.7365,-4.6346,-4.5399,-4.4649,-4.2625,-4.0899,-3.9614,-3.6332,-3.3423,-3.0987,0.0,0.0,0.0,0.0,0.0,0.0,0.0,0.0,0.0,0.0,0.0,0.0,0.0,0.0,0.0,0.0,0.0,0.0,0.0,0.0,0.0,0.0,0.0,0.0,0.0,0.0,0.0,0.0,0.0,-3.7715,-4.0381,0.0,0.0,0.0,0.0,-4.2595,-4.4906,-4.7844,-5.1533,-5.3253,-5.5529,-5.8564,-6.0151,-6.1392,-6.2255,-6.3048,-6.3427,-6.3462,-6.3531,-6.3565,-6.36,-6.3565,-6.3565,-6.36,-6.3565,-6.3531,-6.3358,-6.0944,-5.8633,-5.6426,-5.4805,-5.3253,-5.2015,-5.277,-5.308,-5.3218,-5.4046,-5.4356,-5.4425,-5.4977,-5.2735,-4.9597,-4.8568,-4.681,0.0,0.0,-4.8493,-4.9838,-5.0636,-5.1429,-5.2019,-5.1936,-5.1974,-5.1943,-5.1719,-5.0492,-4.866,-4.593,-4.4353,-4.2872,-4.1027,0.0,-4.0011,-4.0663,-4.2219,-4.4113,-4.6346,-4.8003,-4.8748,-4.8007,-4.7906,-4.7361,-4.594,-4.5737,-4.5399,-4.4649,-4.3125,-4.188,-4.1136,-3.8903,-3.6265,-3.3288,-3.0296,0.0,0.0,0.0,0.0,0.0,0.0,0.0,0.0,0.0,0.0,0.0,0.0,0.0,0.0,0.0,0.0,0.0,0.0,0.0,0.0,0.0,0.0,0.0,0.0,0.0,0.0,0.0,0.0,-4.2441,-4.5289,0.0,-4.3769,-4.5455,-4.6983,-4.7527,-5.0562,-5.3425,-5.5736,-5.7322,-5.9116,-6.1185,-6.1772,-6.2427,-6.3186,-6.3462,-6.36,-6.36,-6.36,-6.36,-6.36,-6.36,-6.36,-6.36,-6.36,-6.36,-6.3531,-6.2703,-6.1634,-6.0289,-5.8771,-5.7529,-5.6564,-5.6391,-5.6288,-5.6322,-5.6598,-5.6702,-5.6564,-5.5839,-5.4391,-5.2839,-5.2563,-5.1597,-5.0769,-5.1804,-5.2149,-5.2356,-5.3115,-5.3494,-5.367,-5.3639,-5.3607,-5.3438,-5.2766,-5.2221,-5.1203,-4.9127,-4.716,-4.5156,-4.299,-4.3234,-4.347,-4.2726,-4.4316,-4.6041,-4.7361,-4.797,-4.8176,-4.7906,-4.7027,-4.6278,-4.5737,-4.5263,-4.4654,-4.3876,-4.2861,-4.1982,-4.1238,-3.9073,-3.7178,-3.5622,-3.2666,-2.9281,0.0,0.0,0.0,0.0,0.0,0.0,0.0,0.0,0.0,0.0,0.0,0.0,0.0,0.0,0.0,0.0,0.0,0.0,0.0,0.0,0.0,0.0,0.0,0.0,0.0,-4.0855,-4.4626,-4.5781,-4.9061,-5.039,-4.818,-5.0331,-5.2011,-5.2287,-5.5081,-5.7426,-5.8978,-6.0254,-6.1565,-6.2806,-6.2841,-6.3082,-6.36,-6.36,-6.36,-6.36,-6.36,-6.36,-6.36,-6.36,-6.36,-6.36,-6.36,-6.36,-6.36,-6.36,-6.3289,-6.2737,-6.1461,-6.0323,-5.9357,-5.8875,-5.8495,-5.8288,-5.8288,-5.8288,-5.8081,-5.6805,-5.6046,-5.5598,-5.5357,-5.4943,-5.4667,-5.515,-5.4736,-5.4253,-5.4736,-5.4701,-5.4494,-5.4494,-5.4494,-5.4325,-5.3714,-5.3373,-5.2832,-5.1589,-4.9593,-4.7437,-4.5263,-4.5742,-4.6109,-4.5066,-4.621,-4.7428,-4.8206,-4.8274,-4.8105,-4.7597,-4.665,-4.5872,-4.5365,-4.4621,-4.3978,-4.3409,-4.2252,-4.1339,-4.0832,-3.87,-3.7178,-3.64,-3.3457,-3.0601,-2.7841,0.0,0.0,0.0,0.0,0.0,0.0,0.0,0.0,0.0,0.0,0.0,0.0,0.0,0.0,0.0,0.0,0.0,0.0,0.0,0.0,0.0,0.0,0.0,-3.9634,-4.4126,-4.7535,-4.7745,-5.1695,-5.3613,-5.1533,-5.4011,-5.6081,-5.684,-5.8288,-5.9771,-6.1254,-6.2082,-6.2841,-6.3565,-6.36,-6.36,-6.36,-6.36,-6.36,-6.36,-6.36,-6.36,-6.36,-6.36,-6.36,-6.36,-6.36,-6.36,-6.36,-6.36,-6.36,-6.3531,-6.2806,-6.1599,-6.022,-6.022,-5.9702,-5.9012,-5.9012,-5.9012,-5.8909,-5.8185,-5.7943,-5.7805,-5.7081,-5.684,-5.684,-5.684,-5.6253,-5.56,-5.5632,-5.5081,-5.4529,-5.4529,-5.4494,-5.4494,-5.4494,-5.3942,-5.3329,-5.3104,-5.1657,-4.9882,-4.8271,-4.7939,-4.7906,-4.7906,-4.7906,0.0,-4.8917,-4.8984,-4.8409,-4.6955,-4.6786,-4.6177,-4.4716,-4.3876,-4.3375,-4.3375,-4.1305,-4.0113,-4.0113,-3.8014,-3.6468,-3.5633,-3.278,-3.092,-3.0176,0.0,0.0,0.0,0.0,0.0,0.0,0.0,0.0,0.0,0.0,0.0,0.0,0.0,0.0,0.0,0.0,0.0,0.0,0.0,0.0,0.0,-4.115,-4.4482,-4.4482,-4.806,-5.1352,-5.3191,-5.5464,-5.6877,-5.6807,-5.8116,-5.9047,-5.9254,-6.0668,-6.1703,-6.2151,-6.2875,-6.3393,-6.36,-6.36,-6.36,-6.36,-6.36,-6.36,-6.36,-6.36,-6.36,-6.36,-6.36,-6.36,-6.36,-6.36,-6.36,-6.36,-6.36,-6.36,-6.3565,-6.3358,-6.2358,-6.1013,-6.1013,-6.0151,-5.9012,-5.9012,-5.9012,-5.8978,-5.8771,-5.8702,-5.8668,-5.8461,-5.8012,-5.7598,-5.7598,-5.7047,-5.6357,-5.577,-5.546,-5.5184,-5.4632,-5.4494,-5.4494,-5.4494,-5.4261,-5.3653,-5.252,-5.1691,-5.0895,-4.9882,-4.9148,-4.8714,-4.8714,-4.8714,-4.8781,-4.8984,-4.8545,-4.7834,-4.6887,-4.6312,-4.5602,-4.4682,-4.3876,-4.3166,-4.2625,-4.1035,-4.0087,-4.0113,-3.8464,-3.7246,-3.6468,-3.4573,-3.297,0.0,0.0,0.0,0.0,0.0,0.0,0.0,0.0,0.0,0.0,0.0,0.0,0.0,0.0,0.0,0.0,0.0,0.0,0.0,0.0,0.0,0.0,-4.5585,-4.9063,-4.9682,-5.1955,-5.4261,-5.629,-5.7909,-5.9047,-5.9461,-6.022,-6.0668,-6.0668,-6.1806,-6.2496,-6.2496,-6.3186,-6.36,-6.36,-6.36,-6.36,-6.36,-6.36,-6.36,-6.36,-6.36,-6.36,-6.36,-6.36,-6.36,-6.36,-6.36,-6.36,-6.36,-6.36,-6.36,-6.36,0.0,0.0,0.0,0.0,-6.0082,-5.9012,-5.9012,-5.9012,-5.9012,-5.9012,-5.9012,-5.9012,-5.9012,-5.8702,-5.8357,-5.8357,-5.784,-5.715,-5.6702,-5.6081,-5.5495,-5.5081,-5.4736,-5.4494,-5.4494,-5.4399,-5.3992,-5.2819,-5.2059,0.0,-5.0611,-4.9647,-4.9018,-4.9018,-4.9018,-4.9018,-4.9018,-4.8646,-4.8105,-4.7327,-4.6887,-4.621,-4.5128,-4.435,0.0,0.0,0.0,-3.9681,-3.8759,-3.7889,0.0,0.0,0.0,0.0,0.0,0.0,0.0,0.0,-3.3829,-3.3795,0.0,0.0,0.0,0.0,0.0,0.0,0.0,0.0,0.0,0.0,0.0,0.0,0.0,0.0,0.0,0.0,-4.9533,-5.298,-5.4563,-5.5391,-5.6391,-5.7736,-5.9254,-6.022,-6.0323,-6.1013,-6.1461,-6.1565,-6.222,-6.2599,-6.2599,-6.322,0.0,0.0,0.0,-6.36,-6.36,-6.36,-6.36,-6.36,-6.36,-6.36,-6.36,-6.36,-6.36,-6.36,-6.36,-6.36,-6.36,-6.36,-6.36,-6.36,-6.3496,-6.3013,-6.2186,-6.084,-5.9771,-5.9012,-5.9116,0.0,0.0,-5.9012,-5.9012,-5.9012,-5.9012,-5.9012,-5.9012,-5.9012,-5.853,-5.8012,-5.7909,-5.684,-5.5736,-5.5632,-5.5046,-5.4494,-5.4494,-5.4494,-5.4287,-5.3529,-5.2554,-5.1583,-5.0796,-4.9739,-4.9018,-4.9018,-4.9018,-4.9018,-4.9018,-4.9018,-4.8714,-4.7973,-4.7906,0.0,-4.5838,-4.5026,-4.4005,-4.2523,-4.1136,-3.9445,-3.7371,-3.7371,-3.7686,-3.8261,-3.8362,-3.9343,-4.1204,-4.1271,-4.1407,-4.1474,-3.6738,-3.6265,0.0,0.0,0.0,0.0,0.0,0.0,0.0,0.0,0.0,0.0,0.0,0.0,0.0,0.0,0.0,-4.7603,-5.1494,-5.4598,-5.615,-5.6978,-5.7564,-5.7874,-5.9254,-6.0427,-6.1013,-6.1806,-6.2496,-6.3117,-6.3289,-6.3393,-6.3393,-6.3531,-6.36,-6.36,-6.36,-6.36,-6.36,-6.36,-6.36,-6.36,-6.36,0.0,-6.36,-6.36,-6.36,-6.36,-6.36,-6.36,-6.36,-6.36,-6.36,-6.3531,-6.2944,-6.222,-6.1496,-6.1185,-6.022,-5.9116,-5.9737,-5.953,-5.9012,-5.9012,-5.9012,-5.9012,-5.9012,-5.9012,0.0,-5.9012,-5.8909,-5.8668,-5.8047,-5.7253,-5.6391,-5.577,-5.5046,-5.4494,-5.4494,-5.4494,-5.4287,-5.3529,-5.2616,-5.1703,-5.0982,-4.9801,-4.9018,-4.9018,-4.9018,-4.9018,-4.9018,-4.9018,-4.8714,-4.7973,-4.7906,-4.7297,-4.5838,-4.5026,-4.4181,-4.3267,-4.2354,-4.1407,-4.0392,-4.0899,-4.1001,-4.0561,-4.1136,-4.1373,-4.1204,-4.1813,-4.2726,-4.3904,-4.2252,-4.1542,0.0,0.0,0.0,0.0,0.0,0.0,0.0,0.0,0.0,0.0,0.0,-3.8387,-4.1443,0.0,-4.7562,-5.0631,-5.3667,-5.5908,-5.6702,-5.7771,-5.8461,-5.8461,-5.9806,-6.0909,-6.1254,-6.2358,-6.3186,-6.3565,-6.36,-6.36,-6.36,-6.36,-6.36,-6.36,-6.36,-6.36,-6.36,-6.36,-6.36,-6.36,-6.36,-6.36,-6.36,-6.36,-6.36,-6.36,-6.36,-6.36,-6.36,-6.36,-6.36,-6.3565,-6.3186,-6.2565,-6.191,-6.191,-6.0909,-5.9668,-6.0047,-5.9668,-5.9012,-5.9012,-5.9012,-5.9012,-5.9012,-5.9012,-5.9012,-5.9012,-5.9012,-5.8944,-5.8564,-5.7909,-5.715,-5.6391,-5.5632,-5.4977,-5.4598,-5.4494,-5.4287,-5.3529,-5.2647,-5.1798,-5.1043,-4.9892,-4.9077,-4.9077,-4.9015,-4.9018,-4.9018,-4.9018,-4.8849,-4.8511,-4.8477,-4.8003,-4.6921,-4.5432,-4.4445,-4.4012,-4.2929,-4.2117,-4.1779,-4.2455,-4.2861,-4.2895,-4.3639,-4.4012,-4.4012,-4.435,-4.4925,-4.5698,-4.5669,-4.5263,0.0,0.0,0.0,0.0,0.0,0.0,0.0,-3.3481,-3.547,-3.8355,-4.0272,-4.2595,-4.6355,-4.8361,-5.0326,-5.2977,-5.5184,-5.6564,-5.6564,-5.7736,-5.8599,-5.8599,-6.0082,-6.1082,-6.1082,-6.2461,-6.3393,-6.3393,-6.3531,-6.36,-6.36,-6.36,-6.36,-6.36,-6.36,-6.36,-6.36,-6.36,-6.36,-6.36,-6.36,-6.36,-6.36,-6.36,-6.36,-6.36,-6.36,-6.36,-6.36,-6.36,-6.36,-6.3565,-6.3427,-6.3013,-6.2496,-6.2496,-6.1427,-5.9978,-6.0151,-5.9668,-5.9012,-5.9012,-5.9012,-5.9012,-5.9012,-5.9012,-5.9012,-5.9012,-5.9012,-5.9012,-5.9012,-5.8461,-5.7702,-5.6978,-5.6184,-5.5426,-5.4667,-5.4494,-5.4322,-5.3736,-5.2884,-5.2035,-5.1279,-5.0218,-4.9399,-4.9233,-4.9077,-4.9018,-4.9018,-4.9018,-4.9018,-4.9018,-4.9018,-4.8646,-4.7736,-4.5906,-4.475,-4.4615,-4.343,-4.2794,-4.2929,-4.3538,-4.4215,-4.5021,-4.5602,-4.621,-4.6786,-4.6786,-4.6853,-4.7022,-4.7631,-4.7597,-2.7011,-2.7674,-2.9828,-3.318,-3.3739,-3.5077,0.0,-4.1767,-4.1664,-4.4018,-4.6259,-4.7948,-4.8465,-5.0326,-5.2183,-5.3218,-5.4701,-5.5736,-5.5736,-5.6495,-5.7047,-5.7047,-5.8978,-6.0323,-6.0323,-6.1703,-6.2599,-6.2599,-6.322,-6.36,-6.36,-6.36,-6.36,-6.36,-6.36,-6.36,-6.36,-6.36,-6.36,-6.36,-6.36,-6.36,-6.36,-6.36,-6.36,-6.36,-6.36,-6.36,-6.36,-6.36,-6.36,-6.3531,-6.2875,-6.2565,-6.2496,-6.2496,-6.1082,-5.9254,-5.9944,-5.9668,-5.9012,-5.9012,-5.9012,-5.9012,-5.9012,-5.9012,-5.9012,-5.9012,-5.9012,-5.9012,-5.9012,-5.8461,-5.7702,-5.6978,-5.6184,-5.5426,-5.4667,-5.4494,-5.4494,-5.4391,-5.3739,-5.298,-5.2188,-5.1158,-5.0161,-4.9331,-4.9077,-4.9018,-4.9018,-4.9018,-4.9018,-4.9018,-4.9018,-4.8443,-4.7022,-4.6109,-4.5297,-4.4649,-4.4445,-4.4649,-4.5297,-4.5399,-4.5805,-4.6515,-4.6616,-4.6718,-4.6786,-4.6786,-4.7124,-4.78,-4.7838,-4.7838,-3.3304,-3.3379,-3.4021,-3.742,-3.8757,-4.0133,-4.3526,-4.4113,-4.463,-4.6914,-4.812,-4.9189,-5.0533,-5.1533,-5.2601,-5.3839,-5.4943,-5.5598,-5.5598,-5.6288,-5.6805,-5.6805,-5.8012,-5.9047,-5.9461,-6.1323,-6.2496,-6.2496,-6.3186,-6.36,-6.36,-6.36,-6.36,-6.36,-6.36,-6.36,-6.36,-6.36,-6.36,-6.36,-6.36,-6.36,-6.36,-6.36,-6.36,-6.36,-6.36,-6.36,-6.36,-6.36,-6.3324,-6.291,-6.2599,-6.1944,-6.122,-6.1634,-6.0909,-5.9737,-6.0082,-5.9668,-5.9012,-5.9012,-5.9012,-5.9012,-5.9012,-5.9012,-5.9012,-5.9012,-5.9012,-5.9012,-5.9012,-5.8771,-5.8254,-5.7081,-5.6529,-5.5977,-5.477,-5.4494,-5.4494,-5.4494,-5.3908,-5.3287,-5.2977,-5.1726,-5.0587,-5.0093,-4.944,-4.9018,-4.9018,-4.9018,-4.9018,-4.9018,-4.9018,-4.8748,-4.8139,-4.7394,-4.6853,-4.6549,-4.6109,-4.6007,-4.6312,-4.6752,-4.7158,-4.7428,-4.7868,-4.8071,-4.8071,-4.8071,-4.824,-4.8545,-4.8545,-4.8545,-3.6828,-3.7227,-3.7717,-4.0611,-4.2687,-4.4251,-4.5294,-4.5941,-4.6879,-4.8741,-4.9292,-4.9947,-5.1567,-5.2166,-5.2814,-5.4008,-5.4758,-5.5237,-5.5288,-5.5726,-5.6102,-5.6182,-5.6764,-5.7384,-5.8012,-6.0358,-6.2052,-6.2402,-6.295,-6.3393,-6.3565,-6.36,-6.36,-6.36,-6.36,-6.36,-6.36,-6.36,-6.36,-6.36,-6.36,-6.36,-6.36,-6.36,-6.36,-6.36,-6.36,-6.36,-6.36,-6.36,-6.3151,-6.2496,-6.2496,-6.1565,-6.0254,-6.0806,-6.053,-5.9875,-5.9875,-5.9495,-5.9012,-5.9012,-5.9012,-5.9012,-5.9012,-5.9012,-5.9012,-5.9012,-5.9012,-5.9012,-5.9012,-5.9012,-5.8633,-5.715,-5.6805,-5.6391,-5.4839,-5.4494,-5.4494,-5.4494,-5.408,-5.3632,-5.3425,-5.2372,-5.1325,-5.0758,-4.994,-4.9317,-4.9018,-4.9018,-4.9018,-4.9018,-4.9018,-4.8917,-4.8714,-4.821,-4.7804,-4.7631,-4.709,-4.6887,-4.709,-4.7631,-4.7973,-4.8206,-4.8748,-4.9018,-4.9018,-4.9018,-4.9018,-4.9018,-4.9018,-4.9018,-3.5173,-3.7356,-4.0123,-4.2368,-4.4724,-4.6845,-4.8327,-4.8672,-4.8947,-4.9804,-5.0528,-5.1045,-5.1149,-5.2138,-5.3108,-5.338,-5.3878,-5.4301,-5.4488,-5.4365,-5.4341,-5.4557,-5.5057,-5.5462,-5.5665,-5.8461,-6.0809,-6.2185,-6.2439,-6.2841,-6.3565,-6.36,-6.36,-6.36,-6.36,-6.36,-6.36,-6.36,-6.36,-6.36,-6.36,-6.36,-6.36,-6.36,-6.36,-6.36,-6.36,-6.36,-6.36,-6.36,-6.3151,-6.2496,-6.2496,-6.1565,-6.0185,-6.022,-5.9737,-5.9047,-5.9047,-5.9047,-5.9012,-5.9012,-5.9012,-5.9012,-5.9012,-5.9012,-5.9012,-5.9012,-5.9012,-5.9012,-5.9012,-5.9012,-5.8633,-5.715,-5.6805,-5.6391,-5.4839,-5.4494,-5.4494,-5.4494,-5.4494,-5.4253,-5.3529,-5.3197,-5.2523,-5.1115,-5.0602,-5.0017,-4.9117,-4.9018,-4.9018,-4.9018,-4.9018,-4.8714,-4.7973,-4.7906,-4.7597,-4.6887,-4.6819,-4.7124,-4.7838,-4.7872,-4.824,-4.8951,-4.8984,-4.9018,-4.9018,-4.9018,-4.9018,-4.9018,-4.9018,-4.9018,-3.886,-4.0836,-4.2664,-4.5405,-4.7121,-4.8327,-4.9361,-4.9597,-4.9528,-4.9258,-4.8982,-4.8923,-4.9221,-4.9792,-5.0702,-5.2103,-5.3093,-5.3996,-5.4939,-5.5104,-5.5112,-5.5079,-5.58,-5.629,-5.6261,-5.7725,-5.908,-6.0045,-6.1119,-6.2048,-6.2806,-6.3324,-6.36,-6.36,-6.36,-6.36,-6.36,-6.36,-6.36,-6.36,-6.36,-6.36,-6.36,-6.36,-6.36,-6.36,-6.36,-6.36,-6.36,-6.36,-6.2841,-6.1772,-6.2289,-6.1565,-6.0185,-6.0185,-6.0013,-5.9737,-5.9185,-5.9012,-5.9012,-5.9012,-5.9012,-5.9012,-5.9012,-5.9012,-5.9012,-5.9012,-5.9012,-5.9012,-5.9012,-5.9012,-5.8633,-5.715,-5.6805,-5.6391,-5.4839,-5.4494,-5.4494,-5.4494,-5.4494,-5.4425,-5.4184,-5.3639,-5.2719,-5.096,-5.0097,-4.9474,-4.9049,-4.9018,-4.9018,-4.9018,-4.9018,-4.8917,-4.8646,-4.8646,-4.8511,-4.8274,-4.8274,-4.8376,-4.8612,-4.8646,-4.8748,-4.9018,-4.9018,-4.9018,-4.9018,-4.9018,-4.9018,-4.9018,-4.9018,-4.9018,-4.1412,-4.3207,-4.463,-4.7424,-4.8672,-4.9384,-5.0096,-4.9913,-4.9412,-4.8813,-4.7835,-4.709,-4.7149,-4.7229,-4.8033,-5.0426,-5.1703,-5.3147,-5.5411,-5.5548,-5.5674,-5.6464,-5.6596,-5.6698,-5.6947,-5.752,-5.8239,-5.9281,-6.0566,-6.1634,-6.2461,-6.3186,-6.36,-6.36,-6.36,-6.36,-6.36,-6.36,-6.36,-6.36,-6.36,-6.36,-6.36,-6.36,-6.36,-6.36,-6.36,-6.36,-6.36,-6.36,-6.2841,-6.1806,-6.2565,-6.1944,-6.0634,-6.0909,-6.0668,-6.0082,-5.9288,-5.9012,-5.9012,-5.9012,-5.9012,-5.9012,-5.9012,-5.9012,-5.9012,-5.9012,-5.9012,-5.9012,-5.9012,-5.9012,-5.8633,-5.715,-5.6805,-5.6391,-5.4839,-5.4494,-5.4494,-5.4494,-5.4494,-5.4494,-5.4494,-5.3667,-5.254,-5.1298,-5.0059,-4.9229,-4.9049,-4.9018,-4.9018,-4.9018,-4.9018,-4.9018,-4.9018,-4.9018,-4.9018,-4.9018,-4.9018,-4.9018,-4.9018,-4.9018,-4.9018,-4.9018,-4.9018,-4.9018,-4.9018,-4.9018,-4.9018,-4.9018,-4.9018,-4.9018,-4.2758,-4.4458,-4.6086,-4.8293,-4.9424,-5.0051,-5.0562,-4.9604,-4.8557,-4.8277,-4.6831,-4.539,-4.4668,-4.443,-4.537,-4.8461,-4.9912,-5.1987,-5.5857,-5.5705,-5.6062,-5.8458,-5.7402,-5.683,-5.7666,-5.7781,-5.8448,-5.9896,-6.0773,-6.1599,-6.2393,-6.3186,-6.36,-6.36,-6.36,-6.36,-6.36,-6.36,-6.36,-6.36,-6.36,-6.36,-6.36,-6.36,-6.36,-6.36,-6.36,-6.36,-6.36,-6.36,-6.3151,-6.2565,-6.3289,-6.2668,-6.1461,-6.222,-6.153,-6.0151,-5.9357,-5.9047,-5.9012,-5.9012,-5.9012,-5.9012,-5.9012,-5.9012,-5.9012,-5.9012,-5.9012,-5.9012,-5.8944,-5.8944,-5.8599,-5.7081,-5.6736,-5.6322,-5.4839,-5.4494,-5.4494,-5.4494,-5.4494,-5.4494,-5.4494,-5.3287,-5.2192,-5.2039,-5.0617,-4.9449,-4.908,-4.8984,-4.9018,-4.9018,-4.9018,-4.9018,-4.9018,-4.9018,-4.9018,-4.9018,-4.9018,-4.9018,-4.9018,-4.9018,-4.9018,-4.9018,-4.9018,-4.9018,-4.9018,-4.9018,-4.9018,-4.9018,-4.9018,-4.9018,-4.5113,-4.6837,-4.8224,-4.9424,-4.9424,-4.9089,-4.9012,-4.7595,-4.5866,-4.4469,-4.2391,-4.0486,-3.9469,-4.1141,-4.3607,-4.6543,-4.9913,0.0,-5.7283,-5.7729,0.0,-5.9231,-5.9083,-5.8809,-5.8488,-5.8957,-5.9466,-5.9963,-6.0321,-6.0806,-6.1565,-6.2875,-6.36,-6.36,-6.36,-6.36,-6.36,-6.36,-6.36,-6.36,-6.36,-6.36,-6.36,-6.36,-6.36,-6.36,-6.36,-6.36,-6.36,-6.36,-6.3151,-6.2565,-6.3289,-6.3013,-6.222,-6.2393,-6.1875,-6.0909,-6.0151,-5.9495,-5.9012,-5.9012,-5.9012,-5.9012,-5.9012,-5.9012,-5.9012,-5.9012,-5.9012,-5.8875,-5.8323,-5.8185,-5.7805,-5.6288,-5.5908,-5.5667,-5.4701,-5.4494,-5.4494,-5.4494,-5.4494,-5.4494,-5.4494,-5.3736,-5.2846,-5.2107,-5.1028,-5.0025,-4.9236,-4.9046,-4.9018,-4.9018,-4.9018,-4.9018,-4.9018,-4.9018,-4.9018,-4.9018,-4.9018,-4.9018,-4.9018,-4.9018,-4.9018,-4.9018,-4.9018,-4.9018,-4.9018,-4.9018,-4.9018,-4.9018,-4.9018,-4.9289,-4.6975,-4.843,-4.9459,-4.9907,-4.9561,-4.8789,-4.7437,-4.5723,-4.3617,-4.0719,-3.8683,-3.6983,-3.5327,-3.7918,-4.1207,-4.4084,-4.8511,0.0,-5.7061,-5.8109,-5.8952,0.0,-6.0341,0.0,-6.012,-6.0547,-6.0717,-6.049,-6.0869,-6.1328,-6.1807,-6.2944,-6.36,-6.36,-6.36,-6.36,-6.36,-6.36,-6.36,-6.36,-6.36,-6.36,-6.36,-6.36,-6.36,-6.36,-6.36,-6.36,-6.36,-6.36,-6.3358,-6.3013,-6.3427,-6.3324,-6.2979,-6.2979,-6.2255,-6.1254,-6.084,-5.9944,-5.9012,-5.9012,-5.9012,-5.9012,-5.9012,-5.9012,-5.9012,-5.9012,-5.9012,-5.884,-5.8081,-5.7909,-5.7529,-5.5977,-5.5598,-5.5426,-5.4667,-5.4494,-5.4494,-5.4494,-5.4494,-5.4494,-5.4494,-5.3908,-5.3222,-5.2681,-5.1836,-5.1001,-5.0407,-4.9514,-4.9018,-4.9018,-4.9018,-4.9018,-4.9018,-4.9018,-4.9018,-4.9018,-4.9018,-4.9154,-4.9458,-4.9492,-4.9627,-4.9965,-4.9965,-4.9965,-4.9965,-4.9965,-4.9965,-4.9965,-4.9965,-5.0202,-4.8361,-4.9493,-4.9976,-4.9873,-4.9514,-4.846,-4.568,-4.362,-4.1167,-3.6979,-3.5279,-3.3913,-3.1866,-3.478,-3.8558,-4.1796,0.0,-5.1602,-5.63,-5.7802,-5.9197,-6.1361,-6.1292,-6.1333,-6.1933,-6.222,-6.2103,-6.1427,-6.2136,-6.2574,-6.2534,-6.3186,-6.36,-6.36,-6.36,-6.36,-6.36,-6.36,-6.36,-6.36,-6.36,-6.36,-6.36,-6.36,-6.36,-6.36,-6.36,-6.36,-6.36,-6.36,-6.36,-6.36,-6.36,-6.36,-6.36,-6.36,-6.2668,-6.1427,-6.1358,-6.0358,-5.915,-5.9047,-5.9012,-5.9012,-5.9012,-5.9012,-5.9012,-5.9012,-5.9012,-5.884,-5.8081,-5.784,-5.7391,-5.5943,-5.5529,-5.5288,-5.4667,-5.4494,-5.4494,-5.4494,-5.4494,-5.4494,-5.4494,-5.3977,-5.3529,-5.3425,-5.2681,-5.208,-5.1757,-5.0351,-4.932,-4.9289,-4.9221,-4.9154,-4.9154,-4.9052,-4.9018,-4.9018,-4.9086,-4.9424,-5.0067,-5.0168,-5.0541,-5.1217,-5.1185,-5.1185,-5.1185,-5.1185,-5.1185,-5.1185,-5.1185,-5.1219,-4.9355,-4.9907,-4.9838,-4.9154,-4.8066,-4.6352,-4.3302,-4.0123,0.0,-3.3359,-3.1031,-2.9463,-2.8881,-3.1928,-3.623,-4.1462,-4.5865,-5.0758,-5.6932,-5.849,-5.97,0.0,-6.2107,-6.2508,-6.2618,-6.3309,0.0,-6.2897,-6.3587,-6.3569,-6.2534,-6.3186,-6.36,-6.36,-6.36,-6.36,-6.36,-6.36,-6.36,-6.36,-6.36,-6.36,-6.36,-6.36,-6.36,-6.36,-6.36,-6.36,-6.36,-6.36,-6.36,-6.36,-6.36,-6.36,-6.36,-6.36,-6.3048,-6.2186,-6.153,-6.0737,-5.9875,-5.9219,-5.9012,-5.9012,-5.9012,-5.9012,-5.9012,-5.9012,-5.9012,-5.884,-5.8081,-5.746,-5.6771,-5.5839,-5.515,-5.4667,-5.4529,-5.4494,-5.4494,-5.4494,-5.4494,-5.4494,-5.4494,-5.4391,-5.4115,-5.3494,-5.3129,-5.2695,-5.2011,-5.1424,-5.1004,-5.0845,-5.027,-4.9898,-4.9898,-4.9357,-4.9018,-4.9018,-4.956,-4.9965,-5.0067,-5.0676,-5.1082,-5.1185,-5.1185,-5.1185,-5.1185,-5.1185,-5.1185,-5.1185,-5.1185,-5.1555,-4.9051,-4.97,-4.9804,-4.8982,-4.7607,-4.5291,-4.1054,0.0,0.0,-2.9808,-2.8141,-2.7247,-2.6609,-3.0145,-3.4504,-3.8505,-4.291,-4.7939,-5.3995,-5.6271,-5.8217,-6.0676,-6.2071,-6.278,-6.278,-6.2956,-6.2954,-6.2628,-6.2717,-6.2682,-6.2498,-6.2427,-6.2393,-6.2393,-6.2806,-6.3013,-6.3013,-6.3393,-6.36,-6.36,-6.36,-6.36,-6.36,-6.36,-6.36,-6.36,-6.36,-6.36,-6.36,-6.36,-6.36,-6.36,-6.36,-6.36,-6.36,-6.36,-6.3117,-6.2427,-6.2048,-6.1427,-6.0634,-5.9875,-5.9357,-5.9012,-5.9012,-5.9012,-5.9012,-5.9012,-5.9012,-5.884,-5.8081,-5.7633,-5.7081,-5.5908,-5.5046,-5.4494,-5.4494,-5.4494,-5.4494,-5.4494,-5.4494,-5.4494,-5.4494,-5.4494,-5.4391,-5.4046,-5.388,-5.3648,-5.321,-5.2983,-5.2518,-5.1479,-5.0943,-5.0676,-5.0676,-5.0371,-5.0168,-5.0168,-5.0473,-5.0845,-5.1217,-5.1589,-5.1995,-5.2401,-5.2401,-5.2401,-5.2401,-5.2401,-5.2401,-5.2401,-5.2401,-5.2604,-4.8568,-4.939,-4.9769,-4.8775,-4.7239,-4.4542,-3.9186,-3.5881,0.0,-2.7212,-2.6089,-2.5915,-2.5372,-2.87,-3.2596,0.0,-3.99,-4.48,-5.0655,-5.387,-5.6712,0.0,-6.1741,0.0,-6.278,-6.2502,0.0,-6.2128,-6.1457,-6.1392,-6.2186,-6.1634,-6.1289,-6.1289,-6.191,-6.222,-6.222,-6.2979,-6.3358,-6.3358,-6.3531,-6.36,-6.36,-6.36,-6.36,-6.36,-6.36,-6.36,-6.36,-6.36,-6.36,-6.36,-6.36,-6.36,-6.36,-6.36,-6.322,-6.2703,-6.253,-6.1979,-6.1185,-6.0427,-5.9771,-5.9219,-5.9047,-5.9012,-5.9012,-5.9012,-5.9012,-5.8875,-5.8288,-5.8012,-5.7529,-5.5977,-5.5046,-5.4494,-5.4494,-5.4494,-5.4494,-5.4494,-5.4494,-5.4494,-5.4494,-5.4494,-5.4494,-5.4494,-5.4494,-5.4431,-5.4271,-5.4239,-5.3665,-5.2245,-5.1717,-5.1486,-5.1454,-5.1286,-5.1185,-5.1185,-5.1352,-5.1725,-5.2266,-5.2469,-5.2841,-5.3484,-5.3518,-5.3518,-5.3518,-5.3518,-5.3518,-5.3518,-5.3518,-5.3518,-4.8396,-4.939,-4.9666,-4.8155,-4.6387,-4.3617,-3.8167,0.0,-3.0988,-2.6734,-2.5085,-2.4754,-2.5891,-2.7276,-2.9989,-3.5422,-3.8505,-4.2486,-4.8913,-5.3172,-5.6528,-5.9001,0.0,0.0,-6.278,-6.292,-6.2774,-6.2158,-6.0967,-6.0634,-6.1358,-6.1358,-6.1289,-6.1289,-6.1358,-6.1427,-6.1427,-6.2186,-6.2599,-6.2599,-6.3289,-6.36,-6.36,-6.36,-6.36,-6.36,-6.36,-6.36,-6.36,-6.36,-6.36,-6.36,-6.36,-6.36,-6.36,-6.36,-6.3565,-6.3393,-6.2703,-6.1979,-6.1185,-6.0427,-6.0151,-5.9944,-5.9219,-5.9012,-5.9012,-5.9012,-5.9012,-5.8978,-5.8944,-5.8392,-5.7529,-5.5977,-5.5046,-5.4494,-5.4494,-5.4494,-5.4494,-5.4494,-5.4494,-5.4494,-5.4494,-5.4494,-5.4494,-5.4494,-5.4494,-5.4494,-5.4463,-5.4303,-5.4139,-5.3969,-5.3064,-5.2396,-5.2198,-5.1589,-5.1185,-5.1185,-5.1826,-5.2232,-5.23,-5.301,-5.3416,-5.3518,-5.3518,-5.3518,-5.3518,-5.3518,-5.3518,-5.3518,-5.3518,-5.3518,-4.6941,-4.8361,-4.9016,-4.7948,-4.5562,-4.2333,-3.8033,-3.3657,-2.971,-2.6669,-2.4929,-2.4418,-2.5905,-2.6143,-2.7848,-3.3193,-3.4468,-3.7037,-4.3571,-4.7095,-5.0839,-5.5721,-5.8437,-6.0676,0.0,0.0,-6.1349,-6.0329,-5.9734,-5.9599,-5.9909,-5.9944,-5.9944,-5.9944,-6.0392,-6.0634,-6.0634,-6.1875,-6.2496,-6.2496,-6.3255,-6.36,-6.36,-6.36,-6.36,-6.36,-6.36,-6.36,-6.36,-6.36,-6.36,-6.36,-6.36,-6.36,-6.36,-6.36,-6.36,-6.3565,-6.3255,-6.2668,-6.1875,-6.1116,-6.0565,-6.0047,-5.9254,-5.9012,-5.9012,-5.9012,-5.9012,-5.9012,-5.9012,-5.8461,-5.7633,-5.6564,-5.5736,-5.5046,-5.4598,-5.4494,-5.4494,-5.4494,-5.4494,-5.4494,-5.4494,-5.4494,-5.4494,-5.4494,-5.4494,-5.4494,-5.4494,-5.4431,-5.4335,-5.4207,-5.3739,-5.3374,-5.3142,-5.2871,-5.2669,-5.2604,-5.2875,-5.301,-5.301,-5.3348,-5.3518,-5.3518,-5.3518,-5.3518,-5.3518,-5.3518,-5.3518,-5.3518,-5.3518,-5.3518,-4.5285,-4.7182,-4.8224,-4.7258,-4.4665,-4.1345,-3.76,-3.3128,-2.9121,-2.6704,-2.4929,-2.4226,-2.5681,-2.5637,-2.6725,-3.0858,-3.1861,-3.4137,-3.9937,-4.324,-4.7131,-5.2674,0.0,-5.793,-6.1092,-6.109,-6.0371,-5.9115,-5.9012,-5.9012,-5.9012,-5.9012,-5.9012,-5.9012,-5.9564,-5.984,-5.984,-6.1151,-6.1806,-6.1806,-6.2565,-6.291,-6.291,-6.291,-6.291,-6.291,-6.291,-6.3048,-6.3255,-6.3255,-6.3393,-6.36,-6.36,-6.36,-6.36,-6.36,-6.36,-6.36,-6.36,-6.2944,-6.2082,-6.1772,-6.084,-5.9771,-5.9461,-5.9185,-5.9012,-5.9012,-5.9012,-5.9012,-5.9012,-5.8461,-5.7702,-5.6978,-5.6184,-5.5426,-5.4667,-5.4494,-5.4494,-5.4494,-5.4494,-5.4494,-5.4494,-5.4494,-5.4494,-5.4494,-5.4494,-5.4494,-5.4494,-5.4494,-5.4431,-5.4303,-5.4207,-5.4045,-5.3816,-5.375,-5.3651,-5.3551,-5.3517,-5.3518,-5.3518,-5.3518,-5.3518,-5.3518,-5.3518,-5.3518,-5.3518,-5.3518,-5.3518,-5.3518,-5.3518,-5.3619,-4.369,-4.5975,-4.7327,-4.5811,-4.3722,-4.0875,-3.658,-3.2793,-2.9429,-2.6752,-2.4907,-2.4122,-2.5224,-2.5856,-2.6797,-2.8732,-3.1702,-3.5202,-3.9313,-4.3351,-4.7131,0.0,-5.2565,-5.4865,-5.7767,-5.9763,-6.0371,-5.9115,-5.9012,-5.9012,-5.9012,-5.9012,-5.9012,-5.9012,-5.9012,-5.9012,-5.9012,-5.9806,-6.022,-6.022,-6.0978,-6.1323,-6.1323,-6.1323,-6.1323,-6.1323,-6.1323,-6.1772,-6.2496,-6.2496,-6.2944,-6.36,-6.36,-6.36,-6.36,-6.36,-6.36,-6.36,-6.36,-6.2599,-6.1427,-6.222,-6.0909,-5.9185,-5.9944,-5.9633,-5.9012,-5.9012,-5.9012,-5.9012,-5.9012,-5.8461,-5.7702,-5.6978,-5.6184,-5.5426,-5.4667,-5.4494,-5.4494,-5.4494,-5.4494,-5.4494,-5.4494,-5.4494,-5.4494,-5.4494,-5.4494,-5.4494,-5.4494,-5.4494,-5.4494,-5.4494,-5.4529,-5.4335,-5.4013,-5.3816,-5.3717,-5.3717,-5.3584,-5.3518,-5.3518,-5.3518,-5.3518,-5.3518,-5.3518,-5.3518,-5.3518,-5.3518,-5.3518,-5.3518,-5.3518,-5.389,-3.9169,-4.0905,-4.1871,-4.0353,-3.8467,-3.6225,-3.3423,-3.0332,-2.7562,-2.5976,-2.4424,-2.3741,-2.5136,-2.5252,-2.6501,-3.0759,-3.2779,-3.5055,-3.8579,-4.302,0.0,-5.0398,-5.6195,-5.9939,-5.9998,-6.054,-6.0371,-5.9115,-5.9012,-5.9012,-5.9012,-5.9012,-5.9012,-5.9012,-5.9012,-5.9012,-5.9012,-5.9806,-6.0185,-6.022,-6.0944,-6.1289,-6.1289,-6.1289,-6.1289,-6.1289,-6.1289,-6.1427,-6.1668,-6.1668,-6.2151,-6.2841,-6.2841,-6.3151,-6.36,-6.36,-6.36,-6.36,-6.36,-6.2944,-6.2151,-6.2393,-6.1289,-5.9875,-6.0116,-5.9633,-5.9012,-5.9012,-5.9012,-5.9012,-5.9012,-5.884,-5.8357,-5.7116,-5.6598,-5.6081,-5.4805,-5.4494,-5.4494,-5.4494,-5.4494,-5.4494,-5.4494,-5.4494,-5.4494,-5.4494,-5.4494,-5.4494,-5.4494,-5.4494,-5.4494,-5.4494,-5.4494,-5.4399,-5.4175,-5.4078,-5.4013,-5.3915,-5.3717,-5.3617,-5.3617,-5.4025,-5.4025,-5.3518,-5.3991,-5.4262,-5.4262,-5.4262,-5.4499,-5.5006,-5.5006,-5.5141,-3.5619,-3.7391,-3.8112,-3.6926,-3.5357,-3.3582,-3.1524,-2.8956,-2.6691,-2.5612,-2.4177,-2.3472,-2.4704,-2.5016,-2.6237,-2.9771,-3.2032,-3.4504,-3.7771,-4.2139,-4.6598,-5.0869,-5.7098,-6.0621,-5.9731,-6.0409,-6.0494,-5.945,-5.9149,-5.9012,-5.9012,-5.9012,-5.9012,-5.9012,-5.9012,-5.9012,-5.9012,-5.9495,-5.9737,-5.9771,-6.022,-6.0427,-6.0427,-6.0427,-6.0427,-6.0427,-6.0427,-6.0599,0.0,-6.0875,-6.1323,-6.2048,-6.2048,-6.2324,-6.2737,-6.2737,-6.2737,-6.2737,-6.2737,-6.2427,-6.2082,-6.2393,-6.1634,-6.0496,-5.9909,-5.9392,-5.9012,-5.9012,-5.9012,-5.9012,-5.9012,-5.9012,-5.8633,-5.715,-5.6805,-5.6391,-5.4839,-5.4494,-5.4494,-5.4494,-5.4736,-5.4839,-5.4563,-5.4736,-5.4839,-5.4563,-5.4494,-5.4494,-5.4494,-5.4494,-5.4494,-5.4494,-5.4494,-5.4431,-5.4335,-5.4239,-5.4143,-5.4013,-5.3816,-5.3786,-5.4025,-5.4398,-5.4363,-5.3923,-5.4363,-5.4465,-5.4194,-5.4465,-5.4972,-5.5681,-5.5681,-5.5852,0.0,-3.4747,-3.5456,-3.4663,-3.3619,-3.23,-3.0335,-2.83,0.0,-2.5539,-2.413,-2.3342,-2.4292,-2.5244,-2.6177,-2.705,-3.0418,-3.41,-3.7382,-4.1568,-4.6394,-5.2137,-5.6048,-5.8117,-5.771,-5.9594,-6.0585,-6.0033,-5.9383,-5.9012,-5.9012,-5.9012,-5.9012,-5.9012,-5.9012,-5.9012,-5.9012,-5.9012,-5.9012,-5.9012,-5.9012,-5.9012,-5.9012,-5.9012,-5.9012,-5.9012,-5.9012,-5.9426,-6.0116,-6.0116,-6.0565,-6.122,-6.122,-6.1254,-6.1289,-6.1289,-6.1358,-6.1392,-6.1323,-6.1358,-6.1565,-6.2186,-6.1875,-6.0944,-5.9461,-5.9012,-5.9012,-5.9012,-5.9012,-5.9012,-5.9012,-5.9012,-5.8633,-5.7219,-5.684,-5.6391,-5.4908,-5.4598,-5.4598,-5.4598,-5.5184,-5.546,-5.4701,-5.515,-5.5357,-5.4632,-5.4494,-5.4494,-5.4494,-5.4494,-5.4494,-5.4494,-5.4494,-5.4494,-5.4494,-5.4335,-5.4175,-5.4013,-5.3883,-5.4024,-5.4601,-5.4634,-5.4634,-5.46,-5.46,-5.4296,-5.3653,-5.4397,-5.5141,-5.5886,-5.5886,-5.6224,-2.7032,0.0,-2.9075,-2.773,-2.7172,-2.678,0.0,-2.5218,-2.4536,-2.447,-2.3588,-2.3653,-2.6436,-2.6378,-2.7462,-3.2261,-3.4908,-3.7477,-4.0708,-4.7315,-5.309,-5.6502,-5.931,-6.0512,-5.9381,-5.9856,-6.016,-6.0001,-5.9383,-5.9012,-5.9012,-5.9012,-5.9012,-5.9012,-5.9012,-5.9012,-5.9012,-5.9012,-5.9012,-5.9012,-5.9012,-5.9012,-5.9012,-5.9012,-5.9012,-5.9012,-5.9012,-5.9116,-5.9288,-5.9288,-5.9771,-6.0461,-6.0461,-6.0806,-6.1289,-6.1289,-6.1668,-6.2117,-6.1496,-6.2082,-6.291,-6.191,-6.1082,-6.0289,-5.9323,-5.9012,-5.9012,-5.9012,-5.9012,-5.9012,-5.9012,-5.9012,-5.8771,-5.7874,-5.7219,-5.6529,-5.5563,-5.5357,-5.5357,-5.5357,-5.5977,-5.6288,-5.5495,-5.5495,-5.5357,-5.4632,-5.4494,-5.4494,-5.4494,-5.4494,-5.4494,-5.4494,-5.4494,-5.4494,-5.4494,-5.4463,-5.4335,-5.4175,-5.4527,-5.477,-5.4737,-5.5211,-5.5175,-5.46,-5.46,-5.4803,-5.5174,-5.5919,-5.6664,-5.7374,-5.7374,-5.7476,-2.4002,-2.5932,-2.7592,-2.6764,-2.6557,-2.6472,-2.6049,-2.485,-2.382,-2.3822,-2.3507,-2.3942,-2.6405,-2.7221,-2.8864,-3.2998,-3.6142,-3.9974,-4.5443,-5.0949,-5.5632,-5.8859,-6.0498,-6.1145,-6.0648,-5.9929,-5.946,-5.935,-5.8505,-5.815,-5.8495,-5.8495,-5.8668,-5.9012,-5.9012,-5.9012,-5.9012,-5.9012,-5.9012,-5.9012,-5.9012,-5.9012,-5.9012,-5.9012,-5.9012,-5.9012,-5.9012,-5.9012,-5.9012,-5.9012,-5.9254,-5.9668,-5.9668,-5.9909,-6.0289,-6.0668,-6.1082,-6.1427,-6.1323,-6.1841,-6.2393,-6.1565,-6.0806,-6.0047,-5.9254,-5.9012,-5.9012,-5.9012,-5.9012,-5.9012,-5.9012,-5.9012,-5.8806,-5.8081,-5.7598,-5.7081,-5.6322,-5.615,-5.615,-5.615,-5.6771,-5.7081,-5.6288,-5.615,-5.5908,-5.515,-5.4736,-5.4632,-5.4977,-5.5012,-5.515,-5.5529,-5.5563,-5.5563,-5.5563,-5.5467,-5.5197,-5.4658,-5.4835,-5.5213,-5.5687,-5.6022,-5.6021,-5.5615,-5.5277,-5.548,-5.6224,-5.6596,-5.7171,-5.7881,-5.7881,-5.7881,-2.3129,-2.5937,-2.8592,-2.7868,-2.7971,-2.8071,-2.7412,0.0,0.0,0.0,0.0,-2.467,-2.6378,-2.8488,-3.0665,-3.2828,-3.6854,-4.2385,-5.0085,-5.3151,-5.5874,-5.9359,-6.0134,-6.0511,-6.0817,-5.9501,-5.8545,-5.8494,-5.7409,-5.7081,-5.7702,-5.784,-5.8185,-5.8806,-5.8944,-5.9012,-5.9012,-5.9012,-5.9012,-5.9012,-5.9012,-5.9012,-5.9012,-5.9012,-5.9012,-5.9012,-5.9012,-5.9012,-5.9012,-5.9012,-5.9012,-5.9012,-5.9012,-5.9012,-5.9116,-5.9909,-6.0254,-6.0496,-6.1358,-6.1496,-6.1323,-6.1427,-6.0909,-6.0082,-5.9392,-5.9116,-5.9012,-5.9012,-5.9012,-5.9012,-5.9012,-5.9012,-5.884,-5.8219,-5.7978,-5.7736,-5.7116,-5.6978,-5.6978,-5.6978,-5.7564,-5.784,-5.7116,-5.6978,-5.6702,-5.5908,-5.5253,-5.5081,-5.5701,-5.5805,-5.6046,-5.6736,-5.6805,-5.6805,-5.6805,-5.664,-5.6199,-5.5484,-5.5281,-5.5654,-5.6731,-5.6799,-5.6765,-5.663,-5.6021,-5.6089,-5.6799,-5.6799,-5.7171,-5.7881,-5.7881,-5.7881,-2.506,-2.7902,-2.942,-2.5473,-2.6006,-2.7153,-2.5925,-2.5226,0.0,0.0,0.0,0.0,-3.0534,-3.1887,-3.3681,-3.7496,-4.156,-4.6233,-5.2024,-5.4326,-5.5793,-5.6822,-5.8112,-5.8495,-5.7481,-5.7234,-5.7329,-5.7806,-5.719,-5.684,-5.6978,-5.7564,-5.7943,-5.8081,-5.8668,-5.9012,-5.9012,-5.9012,-5.9012,-5.9012,-5.9012,-5.9012,-5.9012,-5.9012,-5.9012,-5.9012,-5.9012,-5.9012,-5.9012,-5.9012,-5.9012,-5.9012,-5.9012,-5.9012,-5.9116,-5.9909,-6.0599,-6.1323,-6.2737,-6.2393,-6.1427,-6.2082,-6.1358,-6.0185,-6.0047,-5.953,-5.9012,-5.9012,-5.9012,-5.9012,-5.9012,-5.9012,-5.8978,-5.8875,-5.8357,-5.7874,-5.7771,-5.7736,-5.7736,-5.7736,-5.8323,-5.8599,-5.7874,-5.7736,-5.7495,-5.6736,-5.6529,-5.6495,-5.6598,-5.6633,-5.6667,-5.6771,-5.6805,-5.6805,-5.6805,-5.664,-5.661,-5.6953,-5.6848,-5.6775,-5.6799,-5.6799,-5.6528,-5.5886,-5.5784,-5.6089,-5.6799,-5.6799,-5.7171,-5.7881,-5.7881,-5.7881,-2.3991,-2.6523,-2.8454,-2.673,-2.8661,-3.0697,-2.9642,-2.8363,-2.7483,0.0,0.0,0.0,-3.2103,-3.3969,-3.6913,-4.2369,-4.6049,-4.9596,-5.3453,-5.4942,-5.615,-5.7676,-5.7945,-5.7846,-5.7537,-5.6694,-5.6232,-5.646,-5.5911,-5.5736,-5.615,-5.6495,-5.6874,-5.7288,-5.8012,-5.8426,-5.8426,-5.8806,-5.9012,-5.9012,-5.9012,-5.9012,-5.9012,-5.9012,-5.9012,-5.9012,-5.9012,-5.9012,-5.9012,-5.9012,-5.9012,-5.9012,-5.9012,-5.9012,-5.915,-6.0358,-6.153,-6.2634,-6.3358,-6.2875,-6.2013,-6.2358,-6.1461,-6.0185,-6.0185,-5.9633,-5.9012,-5.9012,-5.9012,-5.9012,-5.9012,-5.9012,-5.9012,-5.9012,-5.8737,-5.8495,-5.8495,-5.8495,-5.8495,-5.8495,-5.8771,-5.8909,-5.8564,-5.815,-5.7771,-5.746,-5.7047,-5.6943,-5.7357,-5.7391,-5.7564,-5.7943,-5.8012,-5.8012,-5.8012,-5.7843,-5.7604,-5.7223,-5.7421,-5.7482,-5.7408,-5.7374,-5.7239,-5.69,-5.69,-5.707,-5.7374,-5.7374,-5.7577,-5.7881,-5.7881,-5.7881,-2.3612,-2.5626,-2.7764,-2.8696,-3.1007,-3.3076,-3.3386,-3.1696,-3.0248,-3.0972,-3.1731,-3.2665,-3.3902,-3.6507,-4.0546,-4.6748,-4.9553,-5.196,-5.4784,-5.5583,-5.6593,-5.8493,-5.7762,-5.7278,-5.7594,-5.6245,-5.5271,-5.5204,-5.4741,-5.477,-5.5322,-5.5529,-5.5908,-5.6495,-5.7253,-5.7633,-5.7633,-5.8392,-5.884,-5.9012,-5.9012,-5.9012,-5.9012,-5.9012,-5.9012,-5.9012,-5.9012,-5.9012,-5.9012,-5.9012,-5.9012,-5.9012,-5.9012,-5.9219,-5.9702,-6.1082,-6.2427,-6.36,-6.36,-6.322,-6.2737,-6.2737,-6.1703,-6.0461,-6.0461,-5.9771,-5.9012,-5.9012,-5.9012,-5.9012,-5.9012,-5.9012,-5.9012,-5.9012,-5.9012,-5.9012,-5.9012,-5.9012,-5.9012,-5.9012,-5.9012,-5.9012,-5.9012,-5.853,-5.815,-5.815,-5.7667,-5.7529,-5.8081,-5.815,-5.8392,-5.8944,-5.9012,-5.9012,-5.9012,-5.8875,-5.8426,-5.753,-5.7793,-5.7954,-5.7954,-5.7918,-5.7881,-5.7881,-5.7881,-5.7881,-5.7881,-5.7881,-5.7881,-5.7881,-5.7881,-5.7881,-2.6385,-2.7627,-2.8661,-3.0144,-3.0179,-3.0731,-3.4249,-3.3283,-3.2421,-3.5214,-3.6456,-3.7157,-3.7621,-4.071,-4.4905,-5.0019,-5.1263,-5.2738,-5.6164,-5.6689,-5.6859,-5.7216,-5.6724,-5.6154,-5.5677,-5.4965,-5.4563,-5.4557,-5.4526,-5.4529,-5.4598,-5.5253,-5.5632,-5.5701,-5.646,-5.6874,-5.6874,-5.7598,-5.8323,-5.9012,-5.9012,-5.9012,-5.9012,-5.9012,-5.9012,-5.9012,-5.9012,-5.9012,-5.9012,-5.9012,-5.9012,-5.9012,-5.9012,-5.9875,-6.1254,-6.2082,-6.291,-6.36,-6.36,-6.3565,-6.3531,-6.3531,-6.2461,-6.122,-6.122,-6.0185,-5.9012,-5.9012,-5.9012,-5.9012,-5.9012,-5.9012,-5.9012,-5.9012,-5.9012,-5.9012,-5.9012,-5.9012,-5.9012,-5.9012,-5.9012,-5.9012,-5.9012,-5.8978,-5.8944,-5.8944,-5.8875,-5.8875,-5.8909,-5.8944,-5.8944,-5.9012,-5.9012,-5.9012,-5.9012,-5.8875,-5.8771,-5.8667,-5.835,-5.8205,-5.8205,-5.7991,-5.7881,-5.7881,-5.7881,-5.7881,-5.7881,-5.7881,-5.7881,-5.7881,-5.7881,-5.7881,-2.4887,-2.673,-2.8765,-3.0317,-3.1524,-3.2972,-3.5352,-3.6318,-3.7318,-3.9388,-4.0077,-4.0354,-4.0481,-4.3534,-4.6949,-4.9799,-5.216,-5.4412,-5.6673,-5.7311,-5.7561,-5.7666,-5.6861,-5.6221,-5.5971,-5.5044,-5.4494,-5.4494,-5.4494,-5.4494,-5.4494,-5.477,-5.4943,-5.4943,-5.5667,-5.6046,-5.6046,-5.684,-5.7357,-5.7633,-5.8564,-5.9012,-5.9012,-5.9012,-5.9012,-5.9012,-5.9012,-5.9012,-5.9012,-5.9012,-5.9012,-5.9047,-5.9564,-6.0392,-6.1392,-6.2186,-6.2944,-6.36,-6.36,-6.36,-6.3531,-6.3048,-6.2186,-6.122,-6.0771,-5.9875,-5.9012,-5.9012,-5.9012,-5.9012,-5.9012,-5.9012,-5.9012,-5.9012,-5.9012,-5.9012,-5.9012,-5.9012,-5.9012,-5.9012,-5.9012,-5.9012,-5.9012,-5.9012,-5.9012,-5.9012,-5.9012,-5.9012,-5.9012,-5.9012,-5.9012,-5.9012,-5.9012,-5.9012,-5.9012,-5.8944,-5.8909,-5.8909,-5.8596,-5.8348,-5.8241,-5.8099,-5.8027,-5.7881,-5.7881,-5.7881,-5.7881,-5.7881,-5.7881,-5.7881,-5.7881,-5.8152,-2.4612,-2.6404,-2.8765,-3.0317,-3.2612,-3.5028,-3.7249,-3.8939,-4.0698,-4.2975,-4.3069,-4.2965,-4.3664,-4.5414,-4.7611,-5.0275,-5.2885,-5.5158,-5.6873,-5.7449,-5.7726,-5.7726,-5.6704,-5.6083,-5.6276,-5.5194,-5.4494,-5.4494,-5.4494,-5.4494,-5.4494,-5.4494,-5.4494,-5.4494,-5.5012,-5.5253,-5.5253,-5.6046,-5.6426,-5.646,-5.7943,-5.8668,-5.8668,-5.8909,-5.9012,-5.9012,-5.9012,-5.9012,-5.9012,-5.9012,-5.9012,-5.9116,-6.0151,-6.0875,-6.1427,-6.2461,-6.3151,-6.36,-6.36,-6.36,-6.3462,-6.2737,-6.1944,-6.1151,-6.0427,-5.9633,-5.9012,-5.9012,-5.9012,-5.9012,-5.9012,-5.9012,-5.9012,-5.9012,-5.9012,-5.9012,-5.9012,-5.9012,-5.9012,-5.9012,-5.9012,-5.9012,-5.9012,-5.9012,-5.9012,-5.9012,-5.9012,-5.9012,-5.9012,-5.9012,-5.9012,-5.9012,-5.9012,-5.9012,-5.9012,-5.9012,-5.8978,-5.8909,-5.8736,-5.849,-5.8312,-5.8171,-5.8027,-5.7881,-5.7881,-5.7881,-5.7881,-5.7881,-5.7881,-5.7881,-5.8118,-5.8524,-2.6316,-2.7247,-2.8799,-3.0334,-3.3007,-3.6249,-4.0066,-4.0929,-4.2033,-4.5837,-4.5389,-4.5036,-4.7286,-4.6466,-4.7091,-5.2085,-5.3524,-5.4717,-5.6823,-5.7116,-5.7116,-5.7091,-5.6075,-5.5629,-5.6221,-5.5194,-5.4494,-5.4494,-5.4494,-5.4494,-5.4494,-5.4494,-5.4494,-5.4494,-5.4494,-5.4494,-5.4494,-5.5221,-5.5598,-5.5632,-5.715,-5.7909,-5.7943,-5.8668,-5.9012,-5.9012,-5.9012,-5.9012,-5.9012,-5.9012,-5.9012,-5.915,-6.0703,-6.1289,-6.1496,-6.3013,-6.3565,-6.3565,-6.3565,-6.3565,-6.3462,-6.2703,-6.1944,-6.1151,-6.0427,-5.9633,-5.9012,-5.9012,-5.9012,-5.9012,-5.9012,-5.9012,-5.9012,-5.9012,-5.9012,-5.9012,-5.9012,-5.9012,-5.9012,-5.9012,-5.9012,-5.9012,-5.9012,-5.9012,-5.9012,-5.9012,-5.9012,-5.9012,-5.9012,-5.9012,-5.9012,-5.9012,-5.9012,-5.9012,-5.9012,-5.9012,-5.8978,-5.884,-5.8805,-5.8701,-5.8525,-5.8099,-5.7881,-5.7881,-5.7881,-5.7881,-5.7881,-5.7881,-5.7881,-5.7915,-5.866,-5.9032,-2.5523,-2.7627,-3.0386,-3.1869,-3.6146,-4.056,0.0,-4.3699,0.0,0.0,-4.7775,-4.7355,-4.701,-4.7872,-4.9395,-5.1658,-5.3596,-5.53,-5.6895,-5.7116,-5.6964,-5.6599,-5.5858,-5.549,-5.5629,-5.4957,-5.4494,-5.4494,-5.4494,-5.4494,-5.4494,-5.4494,-5.4494,-5.4494,-5.4494,-5.4494,-5.4494,-5.4736,-5.4839,-5.4839,-5.5839,-5.6874,-5.7943,-5.8668,-5.9012,-5.9012,-5.9012,-5.9012,-5.9012,-5.9012,-5.9012,-5.9116,-6.0116,-6.053,-6.0634,-6.1634,-6.1979,-6.1979,-6.1979,-6.1979,-6.1875,-6.1116,-6.0703,-6.0392,-5.9599,-5.9185,-5.9012,-5.9012,-5.9012,-5.9012,-5.9012,-5.9012,-5.9012,-5.9012,-5.9012,-5.9012,-5.9012,-5.9012,-5.9012,-5.9012,-5.9012,-5.9012,-5.9012,-5.9012,-5.9012,-5.9012,-5.9012,-5.9012,-5.9012,-5.9012,-5.9012,-5.9012,-5.9012,-5.9012,-5.9012,-5.9702,-6.0011,-5.9799,-5.9521,-5.9037,-5.8312,-5.8171,-5.8027,-5.7881,-5.7881,-5.7881,-5.7881,-5.7881,-5.8152,-5.8693,-5.893,-5.9607,-2.7144,-2.9592,-3.2543,-3.4628,-3.8594,-4.2699,-4.5458,-4.6424,-4.7224,-4.8913,-4.8775,-4.8258,-4.801,-4.8596,-4.9848,-5.2228,-5.3774,-5.5176,-5.6577,-5.6783,-5.6599,-5.5999,-5.5432,-5.5134,-5.5373,-5.4865,-5.4494,-5.4494,-5.4494,-5.4494,-5.4494,-5.4494,-5.4494,-5.4494,-5.4494,-5.4494,-5.4494,-5.4494,-5.4494,-5.4529,-5.5253,-5.6115,-5.7012,-5.8081,-5.8737,-5.9012,-5.9012,-5.9012,-5.9012,-5.9012,-5.9012,-5.9081,-5.9875,-6.0185,-6.0289,-6.1013,-6.1289,-6.1289,-6.1289,-6.1289,-6.1185,-6.0427,-6.0185,-6.0047,-5.9254,-5.9012,-5.9012,-5.9012,-5.9012,-5.9012,-5.9012,-5.9012,-5.9012,-5.9012,-5.9012,-5.9012,-5.9012,-5.9012,-5.9012,-5.9012,-5.9012,-5.9012,-5.9012,-5.9012,-5.9012,-5.9012,-5.9012,-5.9012,-5.9012,-5.9012,-5.9012,-5.9012,-5.9012,-5.9254,-5.9875,-6.0496,-6.0908,-6.0937,-6.051,-5.9779,-5.8683,-5.8269,-5.8027,-5.7881,-5.7881,-5.7881,-5.7881,-5.8186,-5.8558,-5.9032,-5.9641,-6.0419,-2.9886,-3.2267,-3.4855,-3.7927,-4.0629,-4.363,-4.7913,-4.8913,-4.912,-4.9873,-4.8907,-4.8355,-4.9735,-4.8907,-4.9291,-5.3193,-5.3937,-5.4473,-5.582,-5.6062,-5.5842,-5.5191,-5.4626,-5.4537,-5.5044,-5.4595,-5.4322,-5.4391,-5.4425,-5.4425,-5.4494,-5.4494,-5.4494,-5.4494,-5.4494,-5.4494,-5.4494,-5.4494,-5.4494,-5.4529,-5.5184,-5.5529,-5.5635,-5.715,-5.8219,-5.8909,-5.8978,-5.9012,-5.9012,-5.9012,-5.9012,-5.9081,-5.9806,-6.0082,-6.0185,-6.084,-6.1082,-6.1082,-6.1082,-6.1082,-6.0978,-6.0323,-6.0082,-5.9944,-5.9219,-5.9012,-5.9012,-5.9012,-5.9012,-5.9012,-5.9012,-5.9012,-5.9012,-5.9012,-5.9012,-5.9012,-5.9012,-5.9012,-5.9012,-5.9012,-5.9012,-5.9012,-5.9012,-5.9012,-5.9012,-5.9012,-5.9012,-5.9012,-5.9012,-5.9012,-5.9012,-5.9012,-5.9012,-5.9702,-6.1358,-6.1496,-6.1703,-6.2186,-6.1782,-6.0935,-5.9633,-5.8567,-5.7949,-5.7881,-5.7881,-5.7915,-5.7983,-5.8693,-5.9099,-5.9268,-6.0655,-6.1332,-2.842,-3.142,-3.4959,-3.856,-4.3009,-4.7044,-4.9252,-4.9735,-4.9804,-4.9976,-4.9735,-4.9631,-4.9942,-5.0218,-5.0824,-5.2204,-5.3291,-5.3896,-5.3815,-5.4153,-5.4044,-5.2999,-5.2762,-5.2731,-5.2883,-5.2762,-5.2977,-5.3598,-5.3632,-5.3908,-5.4494,-5.4494,-5.4494,-5.4494,-5.4494,-5.4494,-5.4494,-5.4494,-5.4494,-5.4494,-5.4667,-5.5046,-5.56,-5.6598,-5.746,-5.8185,-5.8771,-5.9012,-5.9012,-5.9012,-5.9012,-5.9047,-5.9185,-5.9254,-5.9288,-5.9461,-5.9495,-5.9495,-5.9495,-5.9495,-5.9461,-5.9323,-5.9254,-5.9254,-5.9047,-5.9012,-5.9012,-5.9012,-5.9012,-5.9012,-5.9012,-5.9012,-5.9012,-5.9012,-5.9012,-5.9012,-5.9012,-5.9012,-5.9012,-5.9012,-5.9012,-5.9012,-5.9012,-5.9012,-5.9012,-5.9012,-5.9012,-5.9012,-5.9012,-5.9012,-5.9012,-5.9012,-5.9012,-6.0116,-6.2875,-6.3117,-6.3151,-6.3255,-6.3144,-6.2706,-6.1787,-5.9847,-5.849,-5.7915,-5.7881,-5.8186,-5.8761,-5.893,-5.9641,-6.0825,-6.1163,-6.1603,-2.8696,-3.2248,-3.6422,-4.1698,-4.5389,-4.8086,-4.9666,-5.0011,-5.0011,-5.0011,-5.0011,-5.0011,-5.0011,-5.0321,-5.087,-5.1836,-5.2544,-5.3014,-5.3099,-5.3356,-5.319,-5.2309,-5.2188,-5.2188,-5.2188,-5.2563,-5.2942,-5.3356,-5.3736,-5.4115,-5.4494,-5.4494,-5.4494,-5.4494,-5.4494,-5.4494,-5.4494,-5.4494,-5.4494,-5.4494,-5.4494,-5.4701,-5.5115,-5.6288,-5.7219,-5.7909,-5.8323,-5.8668,-5.9012,-5.9012,-5.9012,-5.9012,-5.9012,-5.9012,-5.9012,-5.9012,-5.9012,-5.9012,-5.9012,-5.9012,-5.9012,-5.9012,-5.9012,-5.9012,-5.9012,-5.9012,-5.9012,-5.9012,-5.9012,-5.9012,-5.9012,-5.9012,-5.9012,-5.9012,-5.9012,-5.9012,-5.9012,-5.9012,-5.9012,-5.9012,-5.9323,-5.9461,-5.9081,-5.9012,-5.9012,-5.9012,-6.0254,-6.122,-6.122,-6.122,-6.122,-6.122,-6.122,-6.1841,-6.3462,-6.36,-6.3452,-6.3076,-6.3038,-6.2923,-6.2693,-6.0905,-5.9505,-5.8626,-5.8829,-5.9133,-5.9539,-5.9911,-6.052,-6.1298,-6.167,-6.2009,-2.8592,-3.3041,-3.8112,-4.4734,-4.7052,0.0,-4.9493,-4.9907,-5.0011,-5.0011,-5.0011,-5.0011,-5.0011,-5.0011,-5.0357,-5.1452,-5.1723,-5.1961,-5.2481,-5.2636,-5.2501,-5.1899,-5.1808,-5.1808,-5.1808,-5.2425,-5.2873,-5.3011,-5.3563,-5.4046,-5.4322,-5.4322,-5.4391,-5.4494,-5.4494,-5.4494,-5.4494,-5.4494,-5.4494,-5.4494,-5.4494,-5.4494,-5.4563,-5.5839,-5.6805,-5.7529,-5.7667,-5.815,-5.8806,-5.8806,-5.8909,-5.9012,-5.9012,-5.9012,-5.9012,-5.9012,-5.9012,-5.9012,-5.9012,-5.9012,-5.9012,-5.9012,-5.9012,-5.9012,-5.9012,-5.9012,-5.9012,-5.9012,-5.9012,-5.9012,-5.9012,-5.9012,-5.9012,-5.9012,-5.9116,-5.9185,-5.9047,-5.9012,-5.9047,-5.9254,-5.9806,-6.0013,-5.915,-5.9012,-5.9185,-5.9702,-6.1979,-6.36,-6.36,-6.36,-6.36,-6.36,-6.36,-6.36,-6.36,-6.36,-6.334,-6.2654,-6.2459,-6.2615,-6.3076,-6.1872,-6.0791,-5.9945,-6.0047,-6.0182,-6.0317,-6.0994,-6.1366,-6.1501,-6.211,-6.2381,-2.5247,0.0,-3.8663,0.0,-4.6638,-4.7913,0.0,0.0,-5.0011,-5.0011,-5.0011,-5.0011,-5.0011,-5.0011,-5.0074,-5.023,-5.0649,-5.0822,-5.0455,-5.0788,-5.0899,-5.0345,-5.0287,-5.0287,-5.0287,-5.039,-5.0735,-5.1356,-5.1528,-5.2149,-5.3494,-5.3563,-5.3839,-5.4494,-5.4494,-5.4494,-5.4494,-5.4494,-5.4494,-5.4494,-5.4494,-5.4494,-5.4529,-5.4701,-5.5219,-5.5977,-5.6633,-5.7357,-5.8047,-5.8047,-5.8426,-5.9012,-5.9012,-5.9012,-5.9012,-5.9012,-5.9012,-5.9012,-5.9012,-5.9012,-5.9012,-5.9012,-5.9012,-5.9012,-5.9012,-5.9012,-5.9012,-5.9012,-5.9012,-5.9012,-5.9012,-5.9012,-5.9012,-5.9012,-5.953,-5.984,-5.915,-5.9012,-5.9288,-6.022,-6.0461,-6.022,-5.9185,-5.9012,-5.9909,-6.2565,-6.3324,-6.36,-6.36,-6.36,-6.36,-6.36,-6.36,-6.36,-6.36,-6.36,-6.3563,-6.3452,-6.2808,-6.2731,-6.3489,-6.2672,-6.2144,-6.1975,-6.0757,-6.0452,-6.1129,-6.1264,-6.1637,-6.2245,-6.2347,-6.2381,-2.7971,-3.3041,-3.8215,0.0,-4.5914,-4.6707,-4.7913,-4.8775,-4.9355,-4.9355,-4.97,-5.0011,-5.0011,-5.0011,-5.0011,-5.0011,-5.0206,-5.0291,-5.004,-5.0206,-5.0263,-5.004,-5.0011,-5.0011,-5.0011,-5.039,-5.0769,-5.108,-5.1464,-5.2011,-5.2701,-5.2735,-5.308,-5.3873,-5.3873,-5.408,-5.4494,-5.4494,-5.4494,-5.4494,-5.4494,-5.4494,-5.4494,-5.4494,-5.4908,-5.5632,-5.5977,-5.6564,-5.7322,-5.7736,-5.8081,-5.8426,-5.884,-5.9012,-5.9012,-5.9012,-5.9012,-5.9012,-5.9012,-5.9012,-5.9012,-5.9012,-5.9012,-5.9012,-5.9012,-5.9012,-5.9012,-5.9012,-5.9012,-5.9012,-5.9012,-5.9012,-5.9012,-5.9012,-5.9599,-6.022,-6.0289,-6.0289,-6.053,-6.1289,-6.0496,-6.0116,-6.1358,-6.1565,-6.2048,-6.3393,-6.36,-6.36,-6.36,-6.36,-6.36,-6.36,-6.36,-6.36,-6.36,-6.36,-6.36,-6.36,-6.3265,-6.3227,-6.36,-6.3038,-6.2615,-6.2381,-6.1738,-6.1569,-6.1907,-6.1907,-6.2076,-6.2381,-6.2381,-6.2381,-2.911,-3.2697,-3.5766,-4.1871,-4.4122,-4.5251,0.0,0.0,-4.881,-4.881,-4.9459,-5.0011,-5.0011,-5.0011,-5.0011,-5.0011,-5.0011,-5.0011,-5.0011,-5.0011,-5.0011,-5.0011,-5.0011,-5.0011,-5.0011,-5.0493,-5.0838,-5.0838,-5.1326,-5.1705,-5.1912,-5.1912,-5.2287,-5.308,-5.3287,-5.3667,-5.4218,-5.4425,-5.4494,-5.4494,-5.4494,-5.4494,-5.4494,-5.4494,-5.4805,-5.5322,-5.5322,-5.577,-5.6564,-5.7322,-5.7736,-5.7978,-5.8737,-5.9012,-5.9012,-5.9012,-5.9012,-5.9012,-5.9012,-5.9012,-5.9012,-5.9012,-5.9012,-5.9012,-5.9012,-5.9012,-5.9012,-5.9012,-5.9012,-5.9012,-5.9012,-5.9012,-5.9012,-5.9012,-5.9771,-6.0634,-6.1185,-6.1599,-6.2013,-6.2393,-6.122,-6.0909,-6.3186,-6.36,-6.36,-6.36,-6.36,-6.36,-6.36,-6.36,-6.36,-6.36,-6.36,-6.36,-6.36,-6.36,-6.36,-6.36,-6.36,-6.36,-6.36,-6.3302,-6.2923,-6.242,-6.2381,-6.2381,-6.2381,-6.2381,-6.2381,-6.2381,-6.2381,-6.2381,-2.4956,-2.7627,-3.0282,-3.6408,-4.0618,-4.369,0.0,0.0,-4.881,-4.881,-4.9459,-5.0011,-5.0011,-5.0011,-5.0011,-5.0011,-5.0011,-5.0011,-5.0011,-5.0011,-5.0011,-5.0011,-5.0011,-5.0011,-5.0011,-5.0045,-5.008,-5.008,-5.008,-5.0424,-5.1149,-5.1183,-5.1498,-5.2222,-5.3011,-5.3425,-5.346,-5.4149,-5.4494,-5.4494,-5.4494,-5.4494,-5.4494,-5.4494,-5.4529,-5.4563,-5.4563,-5.4977,-5.5736,-5.6529,-5.7288,-5.7978,-5.8737,-5.9012,-5.9012,-5.9012,-5.9012,-5.9012,-5.9012,-5.9012,-5.9012,-5.9012,-5.9012,-5.9012,-5.9012,-5.9012,-5.9012,-5.9012,-5.9012,-5.9012,-5.9012,-5.9012,-5.9012,-5.9012,-6.0151,-6.1254,-6.1289,-6.2461,-6.3496,-6.3531,-6.3427,-6.3393,-6.3565,-6.36,-6.36,-6.36,-6.36,-6.36,-6.36,-6.36,-6.36,-6.36,-6.36,-6.36,-6.36,-6.36,-6.36,-6.36,-6.36,-6.36,-6.36,-6.36,-6.3227,-6.242,-6.2381,-6.2381,-6.2381,-6.2381,-6.2381,-6.2381,-6.2381,-6.2381,-2.3715,-2.6143,-2.8799,-3.3386,-3.7042,-4.0066,-4.2043,-4.4665,-4.6879,-4.7879,-4.8672,-4.939,-4.9907,-5.0011,-5.0011,-5.0011,-5.0011,-5.0011,-5.0011,-5.0011,-5.0011,-5.0011,-5.0011,-5.0011,-5.0011,-5.0011,-5.0011,-5.0011,-5.0011,-5.0114,-5.039,-5.039,-5.0735,-5.1494,-5.2222,-5.3115,-5.4115,-5.4391,-5.4494,-5.4494,-5.4494,-5.4494,-5.4494,-5.4494,-5.4494,-5.4494,-5.4494,-5.4667,-5.5012,-5.6288,-5.6943,-5.7322,-5.853,-5.9012,-5.9012,-5.9012,-5.9012,-5.9012,-5.9012,-5.9012,-5.9012,-5.9012,-5.9012,-5.9012,-5.9012,-5.9012,-5.9012,-5.9012,-5.9012,-5.9012,-5.9012,-5.9012,-5.9254,-6.0254,-6.1634,-6.2772,-6.2772,-6.322,-6.36,-6.36,-6.36,-6.36,-6.36,-6.36,-6.36,-6.36,-6.36,-6.36,-6.36,-6.36,-6.36,-6.36,-6.36,-6.36,-6.36,-6.36,-6.36,-6.36,-6.36,-6.36,-6.36,-6.36,-6.3227,-6.242,-6.2381,-6.2381,-6.2381,-6.2381,-6.2381,-6.2381,-6.2381,-6.2381,-2.1876,-2.3991,0.0,0.0,-3.3697,-3.6305,-4.0342,-4.2802,-4.4742,-4.6535,-4.7707,-4.8568,-4.9148,-4.9252,-4.9424,-4.9942,-5.0011,-5.0011,-5.0011,-5.0011,-5.0011,-5.0011,-5.0011,-5.0011,-5.0011,-5.0011,-5.0011,-5.0011,-5.0011,-5.0011,-5.0011,-5.0011,-5.0355,-5.108,-5.1808,-5.2839,-5.4115,-5.4391,-5.4494,-5.4494,-5.4494,-5.4494,-5.4494,-5.4494,-5.4494,-5.4494,-5.4494,-5.4494,-5.4632,-5.615,-5.6805,-5.6943,-5.8426,-5.9012,-5.9012,-5.9012,-5.9012,-5.9012,-5.9012,-5.9012,-5.9012,-5.9012,-5.9012,-5.9012,-5.9012,-5.9012,-5.9012,-5.9012,-5.9012,-5.9012,-5.9012,-5.9012,-5.9392,-6.0944,-6.2082,-6.2979,-6.3496,-6.36,-6.36,-6.36,-6.36,-6.36,-6.36,-6.36,-6.36,-6.36,-6.36,-6.36,-6.36,-6.36,-6.36,-6.36,-6.36,-6.36,-6.36,-6.36,-6.36,-6.36,-6.36,-6.36,-6.36,-6.36,-6.3227,-6.242,-6.2381,-6.2381,-6.2381,-6.2381,-6.2381,-6.2381,-6.2381,-6.2381,0.0,0.0,0.0,0.0,0.0,0.0,-3.9939,0.0,-4.2423,-4.4811,-4.6466,-4.7562,-4.7672,-4.7672,-4.8189,-4.97,-4.9942,-4.9976,-5.0011,-5.0011,-5.0011,-5.0011,-5.0011,-5.0011,-5.0011,-5.0011,-5.0011,-5.0011,-5.0011,-5.0011,-5.0011,-5.0011,-5.0355,-5.108,-5.1808,-5.2597,-5.3391,-5.4149,-5.4494,-5.4494,-5.4494,-5.4494,-5.4494,-5.4494,-5.4494,-5.4494,-5.4494,-5.4494,-5.4632,-5.615,-5.6771,-5.6943,-5.8392,-5.8978,-5.9012,-5.9012,-5.9012,-5.9012,-5.9012,-5.9012,-5.9012,-5.9012,-5.9012,-5.9012,-5.9012,-5.9012,-5.9012,-5.9012,-5.9012,-5.9047,-5.9116,-5.915,-5.9495,-6.0944,-6.1323,-6.1772,-6.3289,-6.36,-6.36,-6.36,-6.36,-6.36,-6.36,-6.36,-6.36,-6.36,-6.36,-6.36,-6.36,-6.36,-6.36,-6.36,-6.36,-6.36,-6.36,-6.36,-6.36,-6.36,-6.36,-6.36,-6.36,-6.36,-6.3227,-6.242,-6.2381,-6.2381,-6.2381,-6.2381,-6.2381,-6.2381,-6.2381,-6.2381,-2.0394,0.0,0.0,0.0,0.0,0.0,0.0,0.0,-3.6835,-4.1905,-4.2837,-4.3768,-4.7113,-4.7672,-4.7838,-4.8258,-4.8775,-4.9327,-4.9942,-5.0011,-5.0011,-5.0011,-5.0011,-5.0011,-5.0011,-5.0011,-5.0011,-5.0011,-5.0011,-5.0011,-5.0011,-5.0011,-5.0355,-5.108,-5.1808,-5.2597,-5.3391,-5.4149,-5.4494,-5.4494,-5.4494,-5.4494,-5.4494,-5.4494,-5.4494,-5.4494,-5.4494,-5.4494,-5.4563,-5.5563,-5.6288,-5.6874,-5.784,-5.853,-5.9012,-5.9012,-5.9012,-5.9012,-5.9012,-5.9012,-5.9012,-5.9012,-5.9012,-5.9012,-5.9012,-5.9012,-5.9012,-5.9012,-5.9012,-5.953,-6.1737,-6.2324,-6.2151,-6.1461,-6.2151,-6.3082,-6.3496,-6.36,-6.36,-6.36,-6.36,-6.36,-6.36,-6.36,-6.36,-6.36,-6.36,-6.36,-6.36,-6.36,-6.36,-6.36,-6.36,-6.36,-6.36,-6.36,-6.36,-6.36,-6.36,-6.36,-6.36,-6.36,-6.3227,-6.242,-6.2381,-6.2381,-6.2381,-6.2381,-6.2381,-6.2381,-6.2381,-6.2381,-2.1785,-2.253,0.0,0.0,0.0,0.0,-3.0938,-3.2179,-3.4076,-3.9836,-4.0963,-4.1826,-4.4768,-4.5837,-4.6389,-4.6672,-4.7362,-4.8155,-4.8941,-4.9045,-4.9148,-4.9459,-4.9528,-4.9631,-4.9976,-5.0011,-5.0011,-5.0011,-5.0011,-5.0011,-5.0011,-5.0011,-5.0218,-5.0631,-5.1356,-5.2114,-5.2908,-5.3667,-5.4218,-5.4494,-5.4494,-5.4494,-5.4494,-5.4494,-5.4494,-5.4494,-5.4494,-5.4494,-5.4529,-5.4977,-5.5805,-5.6874,-5.7598,-5.8357,-5.9012,-5.9012,-5.9012,-5.9012,-5.9012,-5.9012,-5.9012,-5.9012,-5.9012,-5.9012,-5.9012,-5.9012,-5.9012,-5.9012,-5.9012,-5.9702,-6.2806,-6.36,-6.3358,-6.2461,-6.2944,-6.36,-6.36,-6.36,-6.36,-6.36,-6.36,-6.36,-6.36,-6.36,-6.36,-6.36,-6.36,-6.36,-6.36,-6.36,-6.36,-6.36,-6.36,-6.36,-6.36,-6.36,-6.36,-6.36,-6.36,-6.36,-6.36,-6.4807,-6.5079,-6.4241,-6.3024,-6.2381,-6.2381,-6.2381,-6.2381,-6.2381,-6.2381,-6.3057,-2.375,-2.3888,0.0,-2.6695,-2.5868,0.0,-3.249,-3.2628,-3.28,-3.7698,-3.9272,-4.0101,-4.117,-4.262,-4.3837,-4.4432,-4.5492,-4.6562,-4.7562,-4.7672,-4.7913,-4.8603,-4.8672,-4.8947,-4.97,-4.9735,-4.9804,-4.9873,-4.9942,-5.0011,-5.0011,-5.0011,-5.0011,-5.0011,-5.0735,-5.1459,-5.2188,-5.3011,-5.377,-5.4494,-5.4494,-5.4494,-5.4494,-5.4494,-5.4494,-5.4494,-5.4494,-5.4494,-5.4494,-5.4494,-5.5426,-5.6874,-5.7529,-5.8288,-5.9012,-5.9012,-5.9012,-5.9012,-5.9012,-5.9012,-5.9012,-5.9012,-5.9012,-5.9012,-5.9012,-5.9012,-5.9012,-5.9012,-5.9254,-6.0151,-6.2875,-6.36,-6.36,-6.36,-6.36,-6.36,-6.36,-6.36,-6.36,-6.36,-6.36,-6.36,-6.36,-6.36,-6.36,-6.36,-6.36,-6.36,-6.36,-6.36,-6.36,-6.36,-6.36,-6.36,-6.36,-6.36,-6.36,-6.36,-6.36,-6.3738,-6.4083,-6.6592,-6.7563,-6.6812,-6.3903,-6.2381,-6.2381,-6.2381,-6.2381,-6.2381,-6.2381,-6.3971,-2.7696,-2.7833,-2.8059,-2.6695,-2.7868,0.0,-2.6507,-2.7592,-2.9696,0.0,-3.2577,-3.3682,-3.6835,-3.8663,-3.956,-3.9112,-4.1757,-4.4734,-4.7355,-4.7672,-4.7741,-4.7879,-4.7913,-4.7982,-4.812,-4.8148,-4.8361,-4.8982,-4.9631,-5.0011,-5.0011,-5.0011,-5.0011,-5.0011,-5.0735,-5.1459,-5.2188,-5.3011,-5.377,-5.4494,-5.4494,-5.4494,-5.4494,-5.4494,-5.4494,-5.4494,-5.4494,-5.4494,-5.4494,-5.4494,-5.5426,-5.6805,-5.6978,-5.784,-5.9012,-5.9012,-5.9012,-5.9012,-5.9012,-5.9012,-5.9012,-5.9012,-5.9012,-5.9012,-5.9012,-5.9012,-5.9012,-5.9012,-6.0806,-6.2841,-6.3427,-6.36,-6.36,-6.36,-6.36,-6.36,-6.36,-6.36,-6.36,-6.36,-6.36,-6.36,-6.36,-6.36,-6.36,-6.36,-6.36,-6.36,-6.36,-6.36,-6.36,-6.36,-6.36,-6.36,-6.36,-6.36,-6.36,-6.36,-6.36,-6.4669,-6.7118,-6.7093,-6.698,-6.6812,-6.3903,-6.2381,-6.2381,-6.2381,-6.2381,-6.2381,-6.2381,-6.3971,-3.0075,-2.9834,-2.9903,-2.9144,-2.9248,0.0,0.0,-2.7833,-2.873,-3.1784,-3.1508,-3.1731,-3.5111,-3.6387,-3.7042,-3.7443,-4.0066,-4.2447,-4.3561,-4.5328,-4.6707,-4.7086,-4.7148,-4.732,-4.7638,-4.7672,-4.8017,-4.8741,-4.9154,-4.9597,-4.9976,-5.0011,-5.0011,-5.0011,-5.0355,-5.108,-5.2188,-5.2597,-5.3391,-5.4494,-5.4494,-5.4494,-5.4494,-5.4494,-5.4494,-5.4494,-5.4494,-5.4494,-5.4494,-5.4494,-5.5426,-5.6805,-5.6805,-5.7702,-5.9012,-5.9012,-5.9012,-5.9012,-5.9012,-5.9012,-5.9012,-5.9012,-5.9012,-5.9012,-5.9012,-5.9012,-5.9081,-5.9495,-6.0427,-6.1668,-6.3186,-6.36,-6.36,-6.36,-6.36,-6.36,-6.36,-6.36,-6.36,-6.36,-6.36,-6.36,-6.36,-6.36,-6.36,-6.36,-6.36,-6.36,-6.36,-6.36,-6.36,-6.36,-6.36,-6.36,-6.36,-6.36,-6.36,-6.36,-6.5014,-6.6337,-6.7407,-6.7022,-6.6812,-6.6812,-6.5358,-6.458,-6.458,-6.458,-6.458,-6.458,-6.458,-6.5392,-3.2612,-3.2129,-3.2198,-3.2041,0.0,-3.0248,0.0,0.0,0.0,-3.1903,-3.1317,-3.1007,0.0,0.0,0.0,-3.5766,0.0,0.0,0.0,-4.1561,0.0,-4.5182,-4.5665,-4.6182,-4.6803,-4.67,-4.7113,-4.8293,-4.8086,-4.8493,-4.97,-4.9942,-5.0011,-5.0011,-5.0011,-5.0666,-5.1981,-5.2119,-5.2908,-5.4287,-5.4425,-5.4494,-5.4494,-5.4494,-5.4494,-5.4494,-5.4494,-5.4494,-5.4494,-5.4494,-5.5426,-5.6805,-5.6805,-5.7702,-5.9012,-5.9012,-5.9012,-5.9012,-5.9012,-5.9012,-5.9012,-5.9012,-5.9012,-5.9012,-5.9012,-5.9012,-5.915,-5.9806,-5.9668,-5.9909,-6.2496,-6.3358,-6.36,-6.36,-6.36,-6.36,-6.36,-6.36,-6.36,-6.36,-6.36,-6.36,-6.36,-6.36,-6.36,-6.36,-6.36,-6.36,-6.36,-6.36,-6.36,-6.36,-6.36,-6.36,-6.36,-6.36,-6.36,-6.36,-6.6273,-6.7523,-6.6812,-6.6812,-6.6812,-6.6812,-6.6812,-6.6812,-6.6812,-6.6812,-6.6812,-6.6812,-6.6812,-6.6812,0.0,0.0,0.0,0.0,-3.4628,-3.4766,-2.8247,0.0,-2.9696,-2.7489,0.0,0.0,0.0,0.0,0.0,0.0,0.0,0.0,-3.3869,-3.6387,-3.8905,-4.0319,-4.2344,-4.3621,-4.369,-4.3069,-4.3802,-4.6665,-4.5561,-4.601,-4.8775,-4.9631,-5.0011,-5.0011,-5.0011,-5.039,-5.1218,-5.1843,-5.2666,-5.3529,-5.4184,-5.4494,-5.4494,-5.4494,-5.4494,-5.4494,-5.4494,-5.4494,-5.4494,-5.4494,-5.5426,-5.6805,-5.6805,-5.7702,-5.9012,-5.9012,-5.9012,-5.9012,-5.9012,-5.9012,-5.9012,-5.9012,-5.9012,-5.9012,-5.9012,-5.9012,-5.9047,-5.9116,-5.9771,-6.0599,-6.1358,-6.2565,-6.36,-6.36,-6.36,-6.36,-6.36,-6.36,-6.36,-6.36,-6.36,-6.36,-6.36,-6.36,-6.36,-6.36,-6.36,-6.36,-6.36,-6.36,-6.36,-6.36,-6.36,-6.36,-6.36,-6.36,-6.36,-6.36,-6.5722,-6.6896,-6.6812,-6.6812,-6.6812,-6.6812,-6.6812,-6.6812,-6.6812,-6.6812,-6.6812,-6.6812,-6.6812,-6.6812,0.0,0.0,0.0,0.0,-3.518,-3.4337,-2.9799,-2.873,-2.8592,0.0,0.0,0.0,0.0,0.0,0.0,0.0,-3.1903,0.0,0.0,0.0,-3.5732,-3.8134,0.0,0.0,-4.1757,-4.1136,-4.194,-4.501,-4.3862,-4.4492,-4.7982,-4.8879,-4.9528,-5.0011,-5.0011,-5.0355,-5.1114,-5.1808,-5.2597,-5.3425,-5.4149,-5.4494,-5.4494,-5.4494,-5.4494,-5.4494,-5.4494,-5.4494,-5.4494,-5.4494,-5.515,-5.615,-5.6633,-5.7702,-5.9012,-5.9012,-5.9012,-5.9012,-5.9012,-5.9012,-5.9012,-5.9012,-5.9012,-5.9012,-5.9012,-5.9012,-5.9012,-5.9012,-5.9323,-5.9737,-5.9909,-6.1772,-6.36,-6.36,-6.36,-6.36,-6.36,-6.36,-6.36,-6.36,-6.36,-6.36,-6.36,-6.36,-6.36,-6.36,-6.36,-6.36,-6.36,-6.36,-6.36,-6.36,-6.36,-6.36,-6.36,-6.36,-6.36,-6.36,-6.5601,-6.6812,-6.6812,-6.6812,-6.6812,-6.6812,-6.6812,-6.6812,-6.6812,-6.6812,-6.6812,-6.6812,-6.6812,-6.6812,-3.9134,0.0,-3.9203,-3.6387,-3.5042,-3.3613,-3.0472,-2.911,-2.873,-2.9386,0.0,0.0,0.0,0.0,0.0,0.0,0.0,-3.0903,0.0,-3.0489,0.0,0.0,0.0,0.0,0.0,-3.8663,-3.9353,-4.3103,-4.155,-4.2388,-4.681,-4.7982,-4.8844,-4.9666,-4.9907,-5.0252,-5.0804,-5.1528,-5.2291,-5.308,-5.3839,-5.4322,-5.4494,-5.4494,-5.4494,-5.4494,-5.4494,-5.4494,-5.4494,-5.4494,-5.4943,-5.5667,-5.6253,-5.7391,-5.8737,-5.8944,-5.9012,-5.9012,-5.9012,-5.9012,-5.9012,-5.9012,-5.9012,-5.9012,-5.9012,-5.9012,-5.9012,-5.9012,-5.9012,-5.9012,-5.9012,-6.1289,-6.36,-6.36,-6.36,-6.36,-6.36,-6.36,-6.36,-6.36,-6.36,-6.36,-6.36,-6.36,-6.36,-6.36,-6.36,-6.36,-6.36,-6.36,-6.36,-6.36,-6.36,-6.36,-6.36,-6.36,-6.3833,-6.4431,-6.5956,-6.6896,-6.7146,-6.6938,-6.6896,-6.7146,-6.6938,-6.6812,-6.6812,-6.6812,-6.6812,-6.6812,-6.6812,-6.6812,-4.2275,-4.2447,-4.1619,-3.5649,-3.4683,-3.38,-2.8592,-2.9592,-3.1248,-2.9799,0.0,0.0,0.0,0.0,0.0,0.0,0.0,0.0,0.0,0.0,0.0,0.0,0.0,0.0,0.0,-3.4869,-3.5318,-4.0618,-3.818,-3.9112,-4.5156,-4.6914,-4.8051,-4.881,-4.9597,-5.0011,-5.0045,-5.0769,-5.1528,-5.2222,-5.3046,-5.3804,-5.4494,-5.4494,-5.4494,-5.4494,-5.4494,-5.4494,-5.4494,-5.4494,-5.4943,-5.5598,-5.5632,-5.6598,-5.8012,-5.8737,-5.9012,-5.9012,-5.9012,-5.9012,-5.9012,-5.9012,-5.9012,-5.9012,-5.9012,-5.9012,-5.9012,-5.9012,-5.9012,-5.9012,-5.9012,-6.1289,-6.36,-6.36,-6.36,-6.36,-6.36,-6.36,-6.36,-6.36,-6.36,-6.36,-6.36,-6.36,-6.36,-6.36,-6.36,-6.36,-6.36,-6.36,-6.36,-6.36,-6.36,-6.36,-6.36,-6.36,-6.45,-6.6558,-6.6745,-6.7188,-6.8004,-6.727,-6.7229,-6.8044,-6.7229,-6.6812,-6.6812,-6.6812,-6.6812,-6.6812,-6.6812,-6.6812,-4.3655,-4.4483,-4.4216,-3.9077,-3.7249,-3.5456,-3.0645,-3.0731,-3.1351,-2.9834,0.0,0.0,0.0,0.0,0.0,0.0,0.0,0.0,0.0,0.0,0.0,0.0,0.0,0.0,0.0,0.0,-3.4283,-3.7594,-3.6904,-3.8732,-4.4354,-4.563,-4.6983,-4.8741,-4.9051,-4.9459,-5.0011,-5.0735,-5.1494,-5.2188,-5.3011,-5.3804,-5.4494,-5.4494,-5.4494,-5.4494,-5.4494,-5.4494,-5.4494,-5.4494,-5.4667,-5.4943,-5.5426,-5.6253,-5.7253,-5.8012,-5.8599,-5.9012,-5.9012,-5.9012,-5.9012,-5.9012,-5.9012,-5.9012,-5.9012,-5.9012,-5.9012,-5.9012,-5.9012,-5.9495,-6.1496,-6.2806,-6.36,-6.36,-6.36,-6.36,-6.36,-6.36,-6.36,-6.36,-6.36,-6.36,-6.36,-6.36,-6.36,-6.36,-6.36,-6.36,-6.36,-6.36,-6.36,-6.36,-6.36,-6.4393,-6.6393,-6.6057,-6.6018,-6.6745,-6.7319,-6.7765,-6.8083,-6.7805,-6.7805,-6.8083,-6.7236,-6.6812,-6.6812,-6.6812,-6.6812,-6.6812,-6.6812,-6.6812,-4.5095,-4.5811,-4.563,-4.1526,-3.9802,-3.7927,-3.3337,-3.349,-3.418,-3.2662,0.0,0.0,0.0,0.0,0.0,0.0,0.0,0.0,0.0,-2.5665,0.0,0.0,0.0,0.0,0.0,-3.0972,-3.2421,-3.6042,-3.5559,-3.7422,0.0,-4.432,-4.5941,-4.7948,-4.8534,-4.9292,-5.039,-5.0873,-5.1632,-5.2632,-5.3149,-5.3804,-5.4494,-5.4494,-5.4494,-5.4494,-5.4494,-5.4494,-5.4494,-5.4494,-5.4494,-5.4563,-5.5046,-5.5874,-5.6874,-5.7633,-5.8392,-5.9012,-5.9012,-5.9012,-5.9012,-5.9012,-5.9012,-5.9012,-5.9012,-5.9012,-5.9081,-5.9461,-5.9564,-6.0185,-6.291,-6.36,-6.36,-6.36,-6.36,-6.36,-6.36,-6.36,-6.36,-6.36,-6.36,-6.36,-6.36,-6.36,-6.36,-6.36,-6.36,-6.36,-6.36,-6.36,-6.36,-6.36,-6.36,-6.4807,-6.7842,-6.7563,-6.727,-6.727,-6.7765,-6.8083,-6.8083,-6.8083,-6.7925,-6.7644,-6.7105,-6.6812,-6.6812,-6.6812,-6.6812,-6.6812,-6.6812,-6.6812]},{"header":{"parameterUnit":"m.s-1","parameterCategory":1,"la1":30.6,"la2":29.2853,"lo1":-89.7004,"lo2":-87.6739,"dy":0.0162,"dx":0.0183,"nx":112,"ny":82,"refTime":"2026-05-23T12:00:00:Z","depth":0,"parameterNumber":3,"parameterNumberName":"V-component_of_WINDS"},"data":[0.0,0.0,0.0,0.0,0.0,0.0,0.0,0.0,0.0,0.0,0.0,0.0,0.0,0.0,0.0,0.0,0.0,0.0,0.0,0.0,0.0,0.0,0.0,0.0,0.0,0.0,0.0,0.0,0.0,0.0,0.0,0.0,0.0,0.0,0.0,0.0,0.0,0.0,0.0,0.0,0.0,0.0,0.0,0.0,0.0,0.0,0.0,0.0,0.0,0.0,0.0,0.0,0.0,0.0,0.0,0.0,0.0,0.0,0.0,0.0,0.0,0.0,0.0,0.0,0.0,0.0,0.0,0.0,0.0,0.0,0.0,0.0,0.0,0.0,0.0,0.0,0.0,0.0,0.0,0.0,0.0,0.0,0.0,0.0,0.0,0.0,0.0,0.0,0.0,0.0,2.1859,2.3001,2.592,2.7716,2.7544,2.7894,2.6594,2.2982,0.0,0.0,0.0,0.0,0.0,0.0,0.0,0.0,0.0,0.0,0.0,0.0,0.0,0.0,0.0,0.0,0.0,0.0,0.0,0.0,0.0,0.0,0.0,0.0,0.0,0.0,0.0,0.0,0.0,0.0,0.0,0.0,0.0,0.0,0.0,0.0,0.0,0.0,0.0,0.0,0.0,0.0,0.0,0.0,0.0,0.0,0.0,0.0,0.0,0.0,0.0,0.0,0.0,0.0,0.0,0.0,0.0,0.0,0.0,0.0,0.0,0.0,0.0,0.0,0.0,0.0,0.0,0.0,0.0,0.0,0.0,0.0,0.0,0.0,0.0,0.0,0.0,0.0,0.0,0.0,0.0,0.0,0.0,0.0,0.0,0.0,0.0,0.0,0.0,0.0,0.0,0.0,0.0,0.0,0.0,0.0,0.0,0.0,0.0,0.0,0.0,0.0,0.0,0.0,2.1667,2.5428,2.6615,2.7763,2.9391,2.7412,2.5698,2.4921,0.0,0.0,0.0,0.0,0.0,0.0,0.0,0.0,0.0,0.0,0.0,0.0,0.0,0.0,0.0,0.0,0.0,0.0,0.0,0.0,0.0,0.0,0.0,0.0,0.0,0.0,0.0,0.0,0.0,0.0,0.0,0.0,0.0,0.0,0.0,0.0,0.0,0.0,0.0,0.0,0.0,0.0,0.0,0.0,0.0,0.0,0.0,0.0,0.0,0.0,0.0,0.0,0.0,0.0,0.0,0.0,0.0,0.0,0.0,0.0,0.0,0.0,0.0,0.0,0.0,0.0,0.0,0.0,0.0,0.0,0.0,0.0,0.0,0.0,0.0,0.0,0.0,0.0,0.0,0.0,0.0,0.0,0.0,0.0,0.0,0.0,0.0,0.0,0.0,0.0,0.0,0.0,0.0,0.0,0.0,0.0,0.0,0.0,0.0,0.0,0.0,0.0,0.0,2.0938,2.309,2.673,2.7246,2.7861,2.9105,2.773,2.6129,2.4593,2.3033,0.0,0.0,0.0,0.0,0.0,0.0,0.0,0.0,0.0,0.0,0.0,0.0,0.0,0.0,0.0,0.0,0.0,0.0,0.0,0.0,0.0,0.0,0.0,0.0,0.0,0.0,0.0,0.0,0.0,0.0,0.0,0.0,0.0,0.0,0.0,0.0,0.0,0.0,0.0,0.0,0.0,0.0,0.0,0.0,0.0,0.0,0.0,0.0,0.0,0.0,0.0,0.0,0.0,0.0,0.0,0.0,0.0,0.0,0.0,0.0,0.0,0.0,0.0,0.0,0.0,0.0,0.0,0.0,0.0,0.0,0.0,0.0,0.0,0.0,0.0,0.0,0.0,0.0,0.0,0.0,0.0,0.0,0.0,0.0,0.0,0.0,0.0,0.0,0.0,0.0,0.0,0.0,0.0,0.0,0.0,0.0,0.0,0.0,0.0,0.0,0.0,0.0,2.3354,2.4883,2.7454,2.7754,2.7994,2.8478,2.7636,2.6086,2.3764,2.2073,0.0,0.0,0.0,0.0,0.0,0.0,0.0,0.0,0.0,0.0,0.0,0.0,0.0,0.0,0.0,0.0,0.0,0.0,0.0,0.0,0.0,0.0,0.0,0.0,0.0,0.0,0.0,0.0,0.0,0.0,0.0,0.0,0.0,0.0,0.0,0.0,0.0,0.0,0.0,0.0,0.0,0.0,0.0,0.0,0.0,0.0,0.0,0.0,0.0,0.0,0.0,0.0,0.0,0.0,0.0,0.0,0.0,0.0,0.0,0.0,0.0,0.0,0.0,0.0,0.0,0.0,0.0,0.0,0.0,0.0,0.0,0.0,0.0,0.0,0.0,0.0,0.0,0.0,0.0,0.0,0.0,0.0,0.0,0.0,0.0,0.0,0.0,0.0,0.0,0.0,0.0,0.0,0.0,0.0,0.0,0.0,0.0,0.0,0.0,0.0,0.0,0.0,2.418,2.6543,2.7611,2.8008,2.8311,2.8519,2.6326,2.4387,2.3148,1.9892,0.0,0.0,0.0,0.0,0.0,0.0,0.0,0.0,0.0,0.0,0.0,0.0,0.0,0.0,0.0,0.0,0.0,0.0,0.0,0.0,0.0,0.0,0.0,0.0,0.0,0.0,0.0,0.0,0.0,0.0,0.0,0.0,0.0,0.0,0.0,0.0,0.0,0.0,0.0,0.0,0.0,0.0,0.0,0.0,0.0,0.0,0.0,0.0,0.0,0.0,0.0,0.0,0.0,0.0,0.0,0.0,0.0,0.0,0.0,0.0,0.0,0.0,0.0,0.0,0.0,0.0,0.0,0.0,0.0,0.0,0.0,0.0,0.0,0.0,0.0,0.0,0.0,0.0,0.0,0.0,0.0,0.0,0.0,0.0,0.0,0.0,0.0,0.0,0.0,0.0,0.0,0.0,0.0,0.0,0.0,0.0,0.0,0.0,0.0,0.0,0.0,0.0,2.3691,2.5898,2.7851,2.8203,2.8351,2.8519,2.7071,2.5312,2.3215,0.0,0.0,0.0,0.0,0.0,0.0,0.0,0.0,0.0,0.0,0.0,0.0,0.0,0.0,0.0,0.0,0.0,0.0,0.0,0.0,0.0,0.0,0.0,0.0,0.0,0.0,0.0,0.0,0.0,0.0,0.0,0.0,0.0,0.0,0.0,0.0,0.0,0.0,0.0,0.0,0.0,0.0,0.0,0.0,0.0,0.0,0.0,0.0,0.0,0.0,0.0,0.0,0.0,0.0,0.0,0.0,0.0,0.0,0.0,0.0,0.0,0.0,0.0,0.0,0.0,0.0,0.0,0.0,0.0,0.0,0.0,0.0,0.0,0.0,0.0,0.0,0.0,0.0,0.0,0.0,0.0,0.0,0.0,0.0,0.0,0.0,0.0,0.0,0.0,0.0,0.0,0.0,0.0,0.0,0.0,0.0,0.0,0.0,0.0,0.0,0.0,0.0,2.1504,2.3848,2.6016,2.8066,2.8301,2.8246,2.8016,2.6962,2.5116,2.2258,0.0,0.0,0.0,0.0,0.0,0.0,0.0,0.0,0.0,0.0,0.0,0.0,0.0,0.0,0.0,0.0,0.0,0.0,0.0,0.0,0.0,0.0,0.0,0.0,0.0,0.0,0.0,0.0,0.0,0.0,0.0,0.0,0.0,0.0,0.0,0.0,0.0,0.0,0.0,0.0,0.0,0.0,0.0,0.0,0.0,0.0,0.0,0.0,0.0,0.0,0.0,0.0,0.0,0.0,0.0,0.0,0.0,0.0,0.0,0.0,0.0,0.0,0.0,0.0,0.0,0.0,0.0,0.0,0.0,0.0,0.0,0.0,0.0,0.0,0.0,0.0,0.0,0.0,0.0,0.0,0.0,0.0,0.0,0.0,0.0,0.0,0.0,0.0,0.0,0.0,0.0,0.0,0.0,0.0,0.0,0.0,0.0,0.0,0.0,0.0,0.0,0.0,2.166,2.4902,2.7344,2.8203,2.8301,2.7949,2.709,2.5605,2.3358,0.0,0.0,0.0,0.0,0.0,0.0,0.0,0.0,0.0,0.0,0.0,0.0,0.0,0.0,0.0,0.0,0.0,0.0,0.0,0.0,0.0,0.0,0.0,0.0,0.0,0.0,0.0,0.0,0.0,0.0,0.0,0.0,0.0,0.0,0.0,0.0,0.0,0.0,0.0,0.0,0.0,0.0,0.0,0.0,0.0,0.0,0.0,0.0,0.0,0.0,0.0,0.0,0.0,0.0,0.0,0.0,0.0,0.0,0.0,0.0,0.0,0.0,0.0,0.0,0.0,0.0,0.0,0.0,0.0,0.0,0.0,0.0,0.0,0.0,0.0,0.0,0.0,0.0,0.0,0.0,0.0,0.0,0.0,0.0,0.0,0.0,0.0,0.0,0.0,0.0,0.0,0.0,0.0,0.0,0.0,0.0,0.0,0.0,0.0,0.0,0.0,0.0,0.0,2.166,2.5156,2.7793,2.8652,2.873,2.8398,2.7539,2.6202,2.3826,2.0206,0.0,0.0,0.0,0.0,0.0,0.0,0.0,0.0,0.0,0.0,0.0,0.0,0.0,0.0,0.0,0.0,0.0,0.0,0.0,0.0,0.0,0.0,0.0,0.0,0.0,0.0,0.0,0.0,0.0,0.0,0.0,0.0,0.0,0.0,0.0,0.0,0.0,0.0,0.0,0.0,0.0,0.0,0.0,0.0,0.0,0.0,0.0,0.0,0.0,0.0,0.0,0.0,0.0,0.0,0.0,0.0,0.0,0.0,0.0,0.0,0.0,0.0,0.0,0.0,0.0,0.0,0.0,0.0,0.0,0.0,0.0,0.0,0.0,0.0,0.0,0.0,0.0,0.0,0.0,0.0,0.0,0.0,0.0,0.0,0.0,0.0,0.0,0.0,0.0,0.0,0.0,0.0,0.0,0.0,0.0,0.0,0.0,0.0,0.0,0.0,0.0,0.0,2.166,2.5273,2.7988,2.8828,2.8926,2.8652,2.7969,2.6582,2.4193,2.0713,0.0,0.0,0.0,0.0,0.0,0.0,0.0,0.0,0.0,0.0,0.0,0.0,0.0,0.0,0.0,0.0,0.0,0.0,0.0,0.0,0.0,0.0,0.0,0.0,0.0,0.0,0.0,0.0,0.0,0.0,0.0,0.0,0.0,0.0,0.0,0.0,0.0,0.0,0.0,0.0,0.0,0.0,0.0,0.0,0.0,0.0,0.0,0.0,0.0,0.0,0.0,0.0,0.0,0.0,0.0,0.0,0.0,0.0,0.0,0.0,0.0,0.0,0.0,0.0,0.0,0.0,0.0,0.0,0.0,0.0,0.0,0.0,0.0,0.0,0.0,0.0,0.0,0.0,0.0,0.0,0.0,0.0,0.0,0.0,0.0,0.0,0.0,0.0,0.0,0.0,0.0,0.0,0.0,0.0,0.0,0.0,0.0,0.0,0.0,0.0,0.0,0.0,2.1719,2.5332,2.8027,2.8828,2.8945,2.8789,2.834,2.6758,2.4465,2.1444,0.0,0.0,0.0,0.0,0.0,0.0,0.0,0.0,0.0,0.0,0.0,0.0,0.0,0.0,0.0,0.0,0.0,0.0,0.0,0.0,0.0,0.0,0.0,0.0,0.0,0.0,0.0,0.0,0.0,0.0,0.0,0.0,0.0,0.0,0.0,0.0,0.0,0.0,0.0,0.0,0.0,0.0,0.0,0.0,0.0,0.0,0.0,0.0,0.0,0.0,0.0,0.0,0.0,0.0,0.0,0.0,0.0,0.0,0.0,0.0,2.1342,2.0408,0.0,0.0,0.0,0.0,0.0,0.0,0.0,0.0,0.0,0.0,0.0,0.0,0.0,0.0,0.0,0.0,0.0,0.0,0.0,0.0,0.0,0.0,0.0,0.0,0.0,0.0,0.0,0.0,0.0,0.0,0.0,0.0,0.0,0.0,0.0,0.0,0.0,0.0,0.0,0.0,2.2109,2.5762,2.8359,2.8867,2.9219,2.9121,2.8359,2.7031,2.4961,2.1934,1.9494,0.0,0.0,0.0,0.0,0.0,0.0,0.0,0.0,0.0,0.0,0.0,0.0,0.0,0.0,0.0,0.0,0.0,0.0,0.0,0.0,0.0,0.0,0.0,0.0,0.0,0.0,0.0,0.0,0.0,0.0,0.0,0.0,0.0,0.0,0.0,0.0,0.0,0.0,0.0,0.0,0.0,0.0,0.0,0.0,0.0,0.0,0.0,0.0,0.0,0.0,0.0,0.0,0.0,0.0,0.0,0.0,0.0,0.0,0.0,2.4126,2.3028,0.0,0.0,0.0,0.0,0.0,0.0,0.0,0.0,0.0,0.0,0.0,0.0,0.0,0.0,0.0,0.0,0.0,0.0,0.0,0.0,0.0,0.0,0.0,0.0,0.0,0.0,0.0,0.0,0.0,0.0,0.0,0.0,0.0,0.0,0.0,0.0,0.0,0.0,0.0,0.0,2.2285,2.5898,2.8457,2.8867,2.9121,2.9082,2.8633,2.7246,2.5449,2.3242,2.0644,0.0,0.0,0.0,0.0,0.0,0.0,0.0,0.0,0.0,0.0,0.0,0.0,0.0,0.0,0.0,0.0,0.0,0.0,0.0,0.0,0.0,0.0,0.0,0.0,0.0,0.0,0.0,0.0,0.0,0.0,0.0,0.0,0.0,0.0,0.0,0.0,0.0,0.0,0.0,0.0,0.0,0.0,0.0,0.0,0.0,0.0,0.0,0.0,0.0,0.0,0.0,0.0,0.0,2.7067,2.7864,2.8661,2.8068,2.8531,2.9721,2.712,2.6128,2.6169,2.4108,0.0,0.0,0.0,0.0,0.0,0.0,0.0,0.0,0.0,0.0,0.0,0.0,0.0,0.0,0.0,0.0,0.0,0.0,0.0,0.0,0.0,0.0,2.214,2.2916,2.3621,2.3413,2.0566,0.0,0.0,0.0,0.0,0.0,0.0,0.0,0.0,0.0,0.0,0.0,2.2656,2.6035,2.8418,2.8769,2.8867,2.8867,2.8711,2.7344,2.5937,2.4609,2.1914,1.9609,0.0,0.0,0.0,0.0,0.0,0.0,0.0,0.0,0.0,0.0,0.0,0.0,0.0,0.0,0.0,0.0,0.0,0.0,0.0,0.0,0.0,0.0,0.0,0.0,0.0,0.0,0.0,0.0,0.0,0.0,0.0,0.0,1.593,1.6868,0.0,0.0,0.0,0.0,0.0,0.0,0.0,0.0,0.0,0.0,0.0,0.0,0.0,2.5408,2.6324,2.8394,2.9329,2.909,3.0909,3.1497,3.0964,3.124,3.1479,3.1644,3.1221,0.0,2.8294,2.6491,0.0,0.0,0.0,0.0,0.0,0.0,0.0,0.0,0.0,0.0,0.0,0.0,0.0,0.0,0.0,0.0,0.0,0.0,0.0,0.0,0.0,0.0,2.5933,2.5553,2.5544,2.5604,2.5421,2.2402,1.957,1.8984,1.7964,1.6934,0.0,0.0,0.0,0.0,0.0,0.0,2.3906,2.6582,2.832,2.8359,2.8711,2.8633,2.7891,2.7285,2.6367,2.5106,2.3203,2.1387,1.9648,1.7553,0.0,0.0,0.0,0.0,0.0,0.0,0.0,0.0,0.0,0.0,0.0,0.0,0.0,0.0,0.0,0.0,0.0,0.0,0.0,0.0,0.0,0.0,0.0,0.0,0.0,0.0,0.0,0.0,0.0,1.5644,1.7656,1.8047,1.8236,1.7923,0.0,0.0,0.0,0.0,0.0,0.0,0.0,0.0,0.0,2.5758,2.6848,2.795,2.9116,3.0523,3.1231,3.1286,3.2404,3.2881,3.2753,3.2716,3.2808,3.301,3.279,3.214,3.1128,2.8965,2.7234,2.5748,0.0,0.0,0.0,0.0,2.3198,2.3363,2.4225,2.4519,2.4335,2.3272,0.0,0.0,0.0,0.0,0.0,0.0,0.0,2.2982,2.3719,2.5189,2.6676,2.6983,2.7245,2.7409,2.7193,2.5371,2.3287,2.1795,2.082,1.9668,1.774,1.7695,0.0,0.0,0.0,2.3184,2.459,2.6836,2.8301,2.8301,2.8242,2.8066,2.7748,2.7051,2.6309,2.5488,2.4043,2.2676,2.1426,1.9316,1.7383,0.0,0.0,0.0,0.0,0.0,0.0,0.0,0.0,0.0,0.0,0.0,0.0,0.0,0.0,0.0,0.0,0.0,0.0,0.0,0.0,0.0,0.0,0.0,0.0,0.0,0.0,0.0,0.0,1.7695,1.9436,1.9343,2.014,2.0138,0.0,0.0,0.0,0.0,0.0,0.0,2.4295,2.5356,2.6738,2.8685,2.9489,3.0387,3.1396,3.2111,3.2625,3.2918,3.323,3.3523,3.3798,3.3505,3.3541,3.3798,3.3505,3.3376,3.3211,3.1066,2.947,2.8242,2.6848,2.5986,2.5564,2.5656,2.5894,2.6279,2.7288,2.7636,2.7453,2.6371,2.5506,2.4477,2.2502,0.0,0.0,0.0,0.0,2.4115,2.5311,2.6212,2.6954,2.7845,2.8277,2.8408,2.806,2.74,2.6332,2.44,2.3491,2.2298,1.9865,1.9922,0.0,1.9943,2.2324,2.4473,2.543,2.7168,2.8262,2.8144,2.7851,2.763,2.7415,2.6758,2.6211,2.5713,2.4609,2.3613,2.2871,2.0977,1.9297,1.7891,0.0,0.0,0.0,0.0,0.0,0.0,0.0,0.0,0.0,0.0,0.0,0.0,0.0,0.0,0.0,0.0,0.0,0.0,0.0,0.0,0.0,0.0,0.0,0.0,0.0,0.0,0.0,0.0,0.0,2.1392,2.2788,0.0,0.0,0.0,0.0,2.2648,2.3877,2.5506,2.7473,2.8315,2.9525,3.1139,3.1983,3.2643,3.3101,3.3523,3.3725,3.3743,3.378,3.3798,3.3817,3.3798,3.3798,3.3817,3.3798,3.378,3.3688,3.2404,3.1176,3.0002,2.914,2.8315,2.773,2.8058,2.8223,2.8297,2.8737,2.8902,2.8938,2.9232,2.804,2.6371,2.5892,2.4955,0.0,0.0,2.5784,2.6499,2.6995,2.7417,2.7805,2.8125,2.8219,2.8276,2.8521,2.7916,2.7112,2.6384,2.5286,2.4256,2.3627,0.0,2.3042,2.3477,2.4375,2.5469,2.6758,2.7715,2.8144,2.7787,2.7728,2.7344,2.6523,2.6406,2.6211,2.5713,2.4836,2.418,2.375,2.2461,2.0937,1.9219,1.7447,0.0,0.0,0.0,0.0,0.0,0.0,0.0,0.0,0.0,0.0,0.0,0.0,0.0,0.0,0.0,0.0,0.0,0.0,0.0,0.0,0.0,0.0,0.0,0.0,0.0,0.0,0.0,0.0,2.3586,2.4975,0.0,2.3765,2.4424,2.5047,2.5271,2.6885,2.8407,2.9635,3.0479,3.1433,3.2533,3.2845,3.3193,3.3596,3.3743,3.3817,3.3817,3.3817,3.3817,3.3817,3.3817,3.3817,3.3817,3.3817,3.3817,3.378,3.334,3.2771,3.2056,3.1249,3.0589,3.0075,2.9984,2.9929,2.9947,3.0094,3.0149,3.0075,2.969,2.892,2.8095,2.7948,2.7435,2.6995,2.7545,2.7728,2.7838,2.8242,2.8443,2.8612,2.867,2.8729,2.8713,2.8724,2.8501,2.8164,2.7795,2.675,2.5613,2.4758,2.4961,2.5098,2.4668,2.5586,2.6582,2.7344,2.7695,2.7885,2.7728,2.7219,2.6719,2.6406,2.6133,2.5781,2.5332,2.4746,2.4238,2.3809,2.2559,2.1465,2.0566,1.8812,1.6863,0.0,0.0,0.0,0.0,0.0,0.0,0.0,0.0,0.0,0.0,0.0,0.0,0.0,0.0,0.0,0.0,0.0,0.0,0.0,0.0,0.0,0.0,0.0,0.0,0.0,2.2821,2.48,2.5052,2.6707,2.7288,2.5956,2.6903,2.7655,2.7801,2.9287,3.0534,3.1359,3.2038,3.2735,3.3395,3.3413,3.3541,3.3817,3.3817,3.3817,3.3817,3.3817,3.3817,3.3817,3.3817,3.3817,3.3817,3.3817,3.3817,3.3817,3.3817,3.3651,3.3358,3.268,3.2074,3.1561,3.1304,3.1102,3.0992,3.0992,3.0992,3.0882,3.0204,2.98,2.9562,2.9434,2.9214,2.9067,2.9324,2.9104,2.8847,2.9104,2.9085,2.8975,2.8975,2.8975,2.8961,2.8861,2.8753,2.8685,2.8596,2.7844,2.6975,2.6133,2.6476,2.6621,2.6084,2.668,2.7383,2.7832,2.7871,2.7773,2.748,2.6934,2.6484,2.6191,2.5762,2.5391,2.5125,2.4394,2.3867,2.3574,2.2344,2.1465,2.1016,1.9316,1.7623,1.6074,0.0,0.0,0.0,0.0,0.0,0.0,0.0,0.0,0.0,0.0,0.0,0.0,0.0,0.0,0.0,0.0,0.0,0.0,0.0,0.0,0.0,0.0,0.0,2.18,2.4334,2.6079,2.5856,2.7995,2.8883,2.7473,2.8718,2.9819,3.0222,3.0992,3.1781,3.257,3.301,3.3413,3.3798,3.3817,3.3817,3.3817,3.3817,3.3817,3.3817,3.3817,3.3817,3.3817,3.3817,3.3817,3.3817,3.3817,3.3817,3.3817,3.3817,3.3817,3.378,3.3395,3.2753,3.2019,3.2019,3.1744,3.1377,3.1377,3.1377,3.1322,3.0937,3.0809,3.0736,3.0351,3.0222,3.0222,3.0222,2.991,2.9641,2.958,2.9287,2.8993,2.8993,2.8975,2.8975,2.8975,2.8682,2.8505,2.8758,2.8634,2.8365,2.7799,2.7748,2.7728,2.7728,2.7728,0.0,2.8242,2.8281,2.7949,2.7109,2.7012,2.666,2.5752,2.5332,2.5106,2.5106,2.3848,2.3101,2.3101,2.1892,2.1055,2.0625,1.8926,1.7852,1.7422,0.0,0.0,0.0,0.0,0.0,0.0,0.0,0.0,0.0,0.0,0.0,0.0,0.0,0.0,0.0,0.0,0.0,0.0,0.0,0.0,0.0,2.2285,2.4089,2.4089,2.6095,2.7809,2.8431,2.9646,3.0401,3.0284,3.0901,3.1396,3.1506,3.2258,3.2808,3.3046,3.3431,3.3707,3.3817,3.3817,3.3817,3.3817,3.3817,3.3817,3.3817,3.3817,3.3817,3.3817,3.3817,3.3817,3.3817,3.3817,3.3817,3.3817,3.3817,3.3817,3.3798,3.3688,3.3156,3.2441,3.2441,3.1983,3.1377,3.1377,3.1377,3.1359,3.1249,3.1212,3.1194,3.1084,3.0846,3.0626,3.0626,3.0332,2.9965,2.9654,2.9489,2.9342,2.9048,2.8975,2.8975,2.8975,2.908,2.9056,2.8442,2.8653,2.8795,2.8365,2.8233,2.8125,2.8125,2.8125,2.8164,2.8281,2.8027,2.7617,2.707,2.6738,2.6328,2.5732,2.5332,2.4922,2.4609,2.3691,2.3144,2.3101,2.2207,2.1504,2.1055,1.9961,1.8987,0.0,0.0,0.0,0.0,0.0,0.0,0.0,0.0,0.0,0.0,0.0,0.0,0.0,0.0,0.0,0.0,0.0,0.0,0.0,0.0,0.0,0.0,2.443,2.6293,2.6625,2.7843,2.908,3.0009,3.0791,3.1396,3.1616,3.2019,3.2258,3.2258,3.2863,3.323,3.323,3.3596,3.3817,3.3817,3.3817,3.3817,3.3817,3.3817,3.3817,3.3817,3.3817,3.3817,3.3817,3.3817,3.3817,3.3817,3.3817,3.3817,3.3817,3.3817,3.3817,3.3817,0.0,0.0,0.0,0.0,3.1946,3.1377,3.1377,3.1377,3.1377,3.1377,3.1377,3.1377,3.1377,3.1212,3.1029,3.1029,3.0754,3.0387,3.0149,2.9819,2.9507,2.9287,2.9104,2.8975,2.8975,2.9153,2.9087,2.8381,2.8634,0.0,2.8344,2.8304,2.8301,2.8301,2.8301,2.8301,2.8301,2.8086,2.7773,2.7324,2.707,2.668,2.6055,2.5605,0.0,0.0,0.0,2.291,2.2321,2.1875,0.0,0.0,0.0,0.0,0.0,0.0,0.0,0.0,1.9531,1.9512,0.0,0.0,0.0,0.0,0.0,0.0,0.0,0.0,0.0,0.0,0.0,0.0,0.0,0.0,0.0,0.0,2.6407,2.8244,2.9012,2.9452,2.9984,3.0699,3.1506,3.2019,3.2074,3.2441,3.268,3.2735,3.3083,3.3285,3.3285,3.3615,0.0,0.0,0.0,3.3817,3.3817,3.3817,3.3817,3.3817,3.3817,3.3817,3.3817,3.3817,3.3817,3.3817,3.3817,3.3817,3.3817,3.3817,3.3817,3.3817,3.3762,3.3505,3.3065,3.2349,3.1781,3.1377,3.1433,0.0,0.0,3.1377,3.1377,3.1377,3.1377,3.1377,3.1377,3.1377,3.1121,3.0846,3.0791,3.0222,2.9635,2.958,2.9269,2.8975,2.8975,2.8975,2.8865,2.8462,2.846,2.8446,2.8012,2.8141,2.8301,2.8301,2.8301,2.8301,2.8301,2.8301,2.8125,2.7767,2.7728,0.0,2.6465,2.5996,2.5343,2.4551,2.375,2.2773,2.1522,2.1522,2.1758,2.209,2.2148,2.2715,2.3789,2.3828,2.3906,2.3945,2.1211,2.0937,0.0,0.0,0.0,0.0,0.0,0.0,0.0,0.0,0.0,0.0,0.0,0.0,0.0,0.0,0.0,2.5378,2.738,2.903,2.9855,3.0296,3.0607,3.0772,3.1506,3.2129,3.2441,3.2863,3.323,3.356,3.3651,3.3707,3.3707,3.378,3.3817,3.3817,3.3817,3.3817,3.3817,3.3817,3.3817,3.3817,3.3817,0.0,3.3817,3.3817,3.3817,3.3817,3.3817,3.3817,3.3817,3.3817,3.3817,3.378,3.3468,3.3083,3.2698,3.2533,3.2019,3.1433,3.1763,3.1653,3.1377,3.1377,3.1377,3.1377,3.1377,3.1377,0.0,3.1377,3.1322,3.1194,3.0864,3.0442,2.9984,2.9654,2.9269,2.8975,2.8975,2.8975,2.8865,2.8462,2.8346,2.8145,2.7753,2.8033,2.8301,2.8301,2.8301,2.8301,2.8301,2.8301,2.8125,2.7767,2.7728,2.7376,2.6465,2.5996,2.5508,2.498,2.4453,2.3906,2.332,2.3613,2.3672,2.3418,2.375,2.3887,2.3789,2.4141,2.4668,2.5284,2.4394,2.3984,0.0,0.0,0.0,0.0,0.0,0.0,0.0,0.0,0.0,0.0,0.0,2.0411,2.2152,0.0,2.5289,2.6921,2.8535,2.9727,3.0149,3.0717,3.1084,3.1084,3.1799,3.2386,3.257,3.3156,3.3596,3.3798,3.3817,3.3817,3.3817,3.3817,3.3817,3.3817,3.3817,3.3817,3.3817,3.3817,3.3817,3.3817,3.3817,3.3817,3.3817,3.3817,3.3817,3.3817,3.3817,3.3817,3.3817,3.3817,3.3817,3.3798,3.3596,3.3266,3.2918,3.2918,3.2386,3.1726,3.1928,3.1726,3.1377,3.1377,3.1377,3.1377,3.1377,3.1377,3.1377,3.1377,3.1377,3.1341,3.1139,3.0791,3.0387,2.9984,2.958,2.9232,2.903,2.8975,2.8865,2.8462,2.8288,2.8051,2.7642,2.7869,2.8121,2.8121,2.8228,2.8301,2.8301,2.8301,2.8203,2.8008,2.7988,2.7715,2.709,2.623,2.5596,2.541,2.4785,2.4316,2.4121,2.4512,2.4746,2.4766,2.5195,2.541,2.541,2.5605,2.5937,2.6317,2.6367,2.6133,0.0,0.0,0.0,0.0,0.0,0.0,0.0,1.799,1.8909,2.0555,2.1526,2.2648,2.4647,2.5782,2.6829,2.8168,2.9342,3.0075,3.0075,3.0699,3.1157,3.1157,3.1946,3.2478,3.2478,3.3211,3.3707,3.3707,3.378,3.3817,3.3817,3.3817,3.3817,3.3817,3.3817,3.3817,3.3817,3.3817,3.3817,3.3817,3.3817,3.3817,3.3817,3.3817,3.3817,3.3817,3.3817,3.3817,3.3817,3.3817,3.3817,3.3798,3.3725,3.3505,3.323,3.323,3.2661,3.1891,3.1983,3.1726,3.1377,3.1377,3.1377,3.1377,3.1377,3.1377,3.1377,3.1377,3.1377,3.1377,3.1377,3.1084,3.0681,3.0296,2.9874,2.947,2.9067,2.8975,2.8883,2.8572,2.8341,2.8106,2.7698,2.7765,2.7949,2.7926,2.8121,2.8301,2.8301,2.8301,2.8301,2.8301,2.8301,2.8086,2.763,2.6504,2.5771,2.5693,2.5011,2.4707,2.4785,2.5137,2.5527,2.5927,2.6328,2.668,2.7012,2.7012,2.7051,2.7148,2.75,2.748,1.5243,1.5419,1.6449,1.8297,1.8414,1.8897,0.0,2.2208,2.2153,2.3467,2.4661,2.5561,2.5837,2.6829,2.7746,2.8297,2.9085,2.9635,2.9635,3.0039,3.0332,3.0332,3.1359,3.2074,3.2074,3.2808,3.3285,3.3285,3.3615,3.3817,3.3817,3.3817,3.3817,3.3817,3.3817,3.3817,3.3817,3.3817,3.3817,3.3817,3.3817,3.3817,3.3817,3.3817,3.3817,3.3817,3.3817,3.3817,3.3817,3.3817,3.3817,3.378,3.3431,3.3266,3.323,3.323,3.2478,3.1506,3.1873,3.1726,3.1377,3.1377,3.1377,3.1377,3.1377,3.1377,3.1377,3.1377,3.1377,3.1377,3.1377,3.1084,3.0681,3.0296,2.9874,2.947,2.9067,2.8975,2.8975,2.892,2.8649,2.8244,2.7822,2.7921,2.7948,2.791,2.8121,2.8301,2.8301,2.8301,2.8301,2.8301,2.8301,2.7969,2.7148,2.6621,2.6152,2.5713,2.5596,2.5713,2.6152,2.6211,2.6445,2.6855,2.6914,2.6973,2.7012,2.7012,2.7207,2.7598,2.7689,2.7689,1.8556,1.8502,1.8713,2.0476,2.1043,2.162,2.3143,2.3455,2.373,2.501,2.5653,2.6223,2.694,2.7473,2.8042,2.8627,2.9214,2.9562,2.9562,2.9929,3.0204,3.0204,3.0846,3.1396,3.1616,3.2606,3.323,3.323,3.3596,3.3817,3.3817,3.3817,3.3817,3.3817,3.3817,3.3817,3.3817,3.3817,3.3817,3.3817,3.3817,3.3817,3.3817,3.3817,3.3817,3.3817,3.3817,3.3817,3.3817,3.3817,3.367,3.345,3.3285,3.2936,3.2551,3.2771,3.2386,3.1763,3.1946,3.1726,3.1377,3.1377,3.1377,3.1377,3.1377,3.1377,3.1377,3.1377,3.1377,3.1377,3.1377,3.1249,3.0974,3.0351,3.0057,2.9764,2.9122,2.8975,2.8975,2.8975,2.8663,2.8333,2.8168,2.7939,2.7825,2.791,2.8114,2.8301,2.8301,2.8301,2.8301,2.8301,2.8301,2.8144,2.7793,2.7363,2.7051,2.6875,2.6621,2.6562,2.6738,2.6992,2.7226,2.7383,2.7637,2.7754,2.7754,2.7754,2.7851,2.8027,2.8027,2.8027,2.0257,2.0423,2.0585,2.205,2.3057,2.3777,2.4146,2.4427,2.4992,2.5984,2.6278,2.6627,2.7491,2.7446,2.764,2.8641,2.881,2.8908,2.9397,2.9319,2.936,2.9794,2.9865,3.0111,3.0846,3.2093,3.2733,3.2485,3.3207,3.3707,3.3798,3.3817,3.3817,3.3817,3.3817,3.3817,3.3817,3.3817,3.3817,3.3817,3.3817,3.3817,3.3817,3.3817,3.3817,3.3817,3.3817,3.3817,3.3817,3.3817,3.3578,3.323,3.323,3.2735,3.2038,3.2331,3.2184,3.1836,3.1836,3.1634,3.1377,3.1377,3.1377,3.1377,3.1377,3.1377,3.1377,3.1377,3.1377,3.1377,3.1377,3.1377,3.1176,3.0387,3.0204,2.9984,2.9159,2.8975,2.8975,2.8975,2.8755,2.8517,2.8407,2.814,2.794,2.7919,2.8183,2.833,2.8301,2.8301,2.8301,2.8301,2.8301,2.8242,2.8125,2.7904,2.7669,2.75,2.7187,2.707,2.7187,2.75,2.7767,2.7832,2.8144,2.8301,2.8301,2.8301,2.8301,2.8301,2.8301,2.8301,1.9048,2.002,2.139,2.2825,2.3968,2.4973,2.5764,2.5947,2.6094,2.6481,2.6866,2.7141,2.7196,2.6565,2.6551,2.8159,2.7452,2.7221,2.882,2.77,2.7316,2.8856,2.7977,2.7955,2.952,3.1084,3.1655,3.0666,3.2244,3.3413,3.3798,3.3817,3.3817,3.3817,3.3817,3.3817,3.3817,3.3817,3.3817,3.3817,3.3817,3.3817,3.3817,3.3817,3.3817,3.3817,3.3817,3.3817,3.3817,3.3817,3.3578,3.323,3.323,3.2735,3.2001,3.2019,3.1763,3.1396,3.1396,3.1396,3.1377,3.1377,3.1377,3.1377,3.1377,3.1377,3.1377,3.1377,3.1377,3.1377,3.1377,3.1377,3.1176,3.0387,3.0204,2.9984,2.9159,2.8975,2.8975,2.8975,2.8975,2.8847,2.8462,2.8584,2.8518,2.7753,2.8121,2.8443,2.8286,2.8301,2.8301,2.8301,2.8301,2.8125,2.7767,2.7728,2.748,2.707,2.7031,2.7207,2.7689,2.7708,2.7851,2.8262,2.8281,2.8301,2.8301,2.8301,2.8301,2.8301,2.8301,2.8301,2.0771,2.1713,2.2685,2.427,2.512,2.5764,2.6315,2.6371,2.6334,2.626,2.6113,2.5808,2.5147,2.5576,2.6113,2.6548,2.7271,2.7735,2.7692,2.8229,2.8385,2.7762,2.8585,2.8913,2.8281,3.005,3.1166,3.1091,3.2156,3.2991,3.3395,3.367,3.3817,3.3817,3.3817,3.3817,3.3817,3.3817,3.3817,3.3817,3.3817,3.3817,3.3817,3.3817,3.3817,3.3817,3.3817,3.3817,3.3817,3.3817,3.3413,3.2845,3.312,3.2735,3.2001,3.2001,3.1909,3.1763,3.1469,3.1377,3.1377,3.1377,3.1377,3.1377,3.1377,3.1377,3.1377,3.1377,3.1377,3.1377,3.1377,3.1377,3.1176,3.0387,3.0204,2.9984,2.9159,2.8975,2.8975,2.8975,2.8975,2.8938,2.881,2.867,2.8401,2.7957,2.7984,2.8134,2.8247,2.8301,2.8301,2.8301,2.8301,2.8242,2.8086,2.8086,2.8008,2.7871,2.7871,2.793,2.8066,2.8086,2.8144,2.8301,2.8301,2.8301,2.8301,2.8301,2.8301,2.8301,2.8301,2.8301,2.1961,2.2913,2.373,2.5216,2.5947,2.6189,2.6009,2.6191,2.6135,2.5343,2.4769,2.4253,2.3444,2.3547,2.3948,2.4391,2.5427,2.6209,2.6282,2.7168,2.7531,2.6705,2.7604,2.8191,2.7775,2.8993,3.0076,3.0613,3.1865,3.2771,3.3211,3.3596,3.3817,3.3817,3.3817,3.3817,3.3817,3.3817,3.3817,3.3817,3.3817,3.3817,3.3817,3.3817,3.3817,3.3817,3.3817,3.3817,3.3817,3.3817,3.3413,3.2863,3.3266,3.2936,3.2239,3.2386,3.2258,3.1946,3.1524,3.1377,3.1377,3.1377,3.1377,3.1377,3.1377,3.1377,3.1377,3.1377,3.1377,3.1377,3.1377,3.1377,3.1176,3.0387,3.0204,2.9984,2.9159,2.8975,2.8975,2.8975,2.8975,2.8975,2.8975,2.8535,2.8157,2.8071,2.7891,2.7853,2.8247,2.8301,2.8301,2.8301,2.8301,2.8301,2.8301,2.8301,2.8301,2.8301,2.8301,2.8301,2.8301,2.8301,2.8301,2.8301,2.8301,2.8301,2.8301,2.8301,2.8301,2.8301,2.8301,2.8301,2.2675,2.3639,2.4569,2.5745,2.6279,2.6263,2.5003,2.5343,2.5412,2.3808,2.3031,2.2507,2.2028,2.0718,2.0259,2.1767,2.2157,2.2875,2.465,2.4801,2.496,2.5722,2.5407,2.5824,2.7815,2.8026,2.8349,2.9213,3.13,3.2753,3.3175,3.3596,3.3817,3.3817,3.3817,3.3817,3.3817,3.3817,3.3817,3.3817,3.3817,3.3817,3.3817,3.3817,3.3817,3.3817,3.3817,3.3817,3.3817,3.3817,3.3578,3.3266,3.3651,3.3321,3.268,3.3083,3.2716,3.1983,3.1561,3.1396,3.1377,3.1377,3.1377,3.1377,3.1377,3.1377,3.1377,3.1377,3.1377,3.1377,3.1341,3.1341,3.1157,3.0351,3.0167,2.9947,2.9159,2.8975,2.8975,2.8975,2.8975,2.8975,2.8975,2.8333,2.7897,2.8181,2.777,2.7622,2.8194,2.8281,2.8301,2.8301,2.8301,2.8301,2.8301,2.8301,2.8301,2.8301,2.8301,2.8301,2.8301,2.8301,2.8301,2.8301,2.8301,2.8301,2.8301,2.8301,2.8301,2.8301,2.8301,2.8301,2.3987,2.4904,2.5708,2.6279,2.6279,2.5827,2.4436,2.4382,2.4067,2.199,2.0905,1.9911,1.851,1.8803,1.9415,1.9816,2.1768,0.0,2.3801,2.4952,0.0,2.461,2.5461,2.6184,2.6424,2.6713,2.7572,2.9165,3.1067,3.2331,3.2735,3.3431,3.3817,3.3817,3.3817,3.3817,3.3817,3.3817,3.3817,3.3817,3.3817,3.3817,3.3817,3.3817,3.3817,3.3817,3.3817,3.3817,3.3817,3.3817,3.3578,3.3266,3.3651,3.3505,3.3083,3.3175,3.29,3.2386,3.1983,3.1634,3.1377,3.1377,3.1377,3.1377,3.1377,3.1377,3.1377,3.1377,3.1377,3.1304,3.1011,3.0937,3.0736,2.9929,2.9727,2.9599,2.9085,2.8975,2.8975,2.8975,2.8975,2.8975,2.8975,2.8572,2.8247,2.8218,2.7995,2.7872,2.7999,2.8174,2.8301,2.8301,2.8301,2.8301,2.8301,2.8301,2.8301,2.8301,2.8301,2.8301,2.8301,2.8301,2.8301,2.8301,2.8301,2.8301,2.8301,2.8301,2.8301,2.8301,2.8301,2.8457,2.4977,2.5819,2.6298,2.6536,2.5937,2.4792,2.2945,2.2362,2.151,1.8879,1.7884,1.7,1.5636,1.6536,1.7491,1.7476,1.997,0.0,2.2262,2.3847,2.457,0.0,2.4686,0.0,2.552,2.6405,2.775,2.9421,3.068,3.1756,3.2777,3.3468,3.3817,3.3817,3.3817,3.3817,3.3817,3.3817,3.3817,3.3817,3.3817,3.3817,3.3817,3.3817,3.3817,3.3817,3.3817,3.3817,3.3817,3.3817,3.3688,3.3505,3.3725,3.367,3.3486,3.3486,3.3101,3.257,3.2349,3.1873,3.1377,3.1377,3.1377,3.1377,3.1377,3.1377,3.1377,3.1377,3.1377,3.1286,3.0882,3.0791,3.0589,2.9764,2.9562,2.947,2.9067,2.8975,2.8975,2.8975,2.8975,2.8975,2.8975,2.8663,2.8373,2.8307,2.8145,2.8125,2.8229,2.83,2.8301,2.8301,2.8301,2.8301,2.8301,2.8301,2.8301,2.8301,2.8301,2.8379,2.8555,2.8574,2.8652,2.8848,2.8848,2.8848,2.8848,2.8848,2.8848,2.8848,2.8848,2.8984,2.5782,2.6316,2.6573,2.6518,2.5433,2.3701,2.118,2.0051,1.8652,1.5554,1.4658,1.4178,1.3403,1.4229,1.5091,1.5367,0.0,1.9808,2.0631,2.2188,2.302,2.2485,2.3451,2.4314,2.4709,2.6171,2.7813,2.9546,3.0055,3.1113,3.3075,3.3596,3.3817,3.3817,3.3817,3.3817,3.3817,3.3817,3.3817,3.3817,3.3817,3.3817,3.3817,3.3817,3.3817,3.3817,3.3817,3.3817,3.3817,3.3817,3.3817,3.3817,3.3817,3.3817,3.3817,3.3817,3.3321,3.2661,3.2625,3.2093,3.1451,3.1396,3.1377,3.1377,3.1377,3.1377,3.1377,3.1377,3.1377,3.1286,3.0882,3.0754,3.0516,2.9745,2.9525,2.9397,2.9067,2.8975,2.8975,2.8975,2.8975,2.8975,2.8975,2.87,2.8462,2.8407,2.8307,2.8351,2.8615,2.8487,2.8403,2.8457,2.8418,2.8379,2.8379,2.832,2.8301,2.8301,2.834,2.8535,2.8906,2.8965,2.918,2.957,2.9626,2.9626,2.9626,2.9626,2.9626,2.9626,2.9626,2.9646,2.6243,2.6536,2.6499,2.6205,2.5423,2.3809,2.0365,1.9138,0.0,1.4678,1.3172,1.2468,1.2633,1.2738,1.3411,1.5142,1.6864,1.8725,2.0722,2.1578,2.2024,0.0,2.2835,2.3215,2.3256,2.3749,0.0,2.8333,2.8894,3.0321,3.3075,3.3596,3.3817,3.3817,3.3817,3.3817,3.3817,3.3817,3.3817,3.3817,3.3817,3.3817,3.3817,3.3817,3.3817,3.3817,3.3817,3.3817,3.3817,3.3817,3.3817,3.3817,3.3817,3.3817,3.3817,3.3817,3.3523,3.3065,3.2716,3.2294,3.1836,3.1488,3.1377,3.1377,3.1377,3.1377,3.1377,3.1377,3.1377,3.1286,3.0882,3.0552,3.0185,2.969,2.9324,2.9067,2.8993,2.8975,2.8975,2.8975,2.8975,2.8975,2.8975,2.892,2.8773,2.8443,2.8547,2.8611,2.8313,2.8652,2.9078,2.9355,2.9023,2.8809,2.8809,2.8496,2.8301,2.8301,2.8613,2.8848,2.8906,2.9258,2.9492,2.9626,2.9626,2.9626,2.9626,2.9626,2.9626,2.9626,2.9626,2.9766,2.6149,2.6426,2.6481,2.6113,2.4783,2.2705,1.9362,0.0,0.0,1.2653,1.137,1.0871,1.1192,1.1723,1.2559,1.4015,1.5618,1.7448,1.9653,2.0481,2.1189,2.2084,2.2592,2.2928,2.2928,2.4562,2.6238,2.7884,2.9747,3.1509,3.3143,3.3193,3.3175,3.3175,3.3395,3.3505,3.3505,3.3707,3.3817,3.3817,3.3817,3.3817,3.3817,3.3817,3.3817,3.3817,3.3817,3.3817,3.3817,3.3817,3.3817,3.3817,3.3817,3.3817,3.3817,3.3817,3.356,3.3193,3.2991,3.2661,3.2239,3.1836,3.1561,3.1377,3.1377,3.1377,3.1377,3.1377,3.1377,3.1286,3.0882,3.0644,3.0351,2.9727,2.9269,2.8975,2.8975,2.8975,2.8975,2.8975,2.8975,2.8975,2.8975,2.8975,2.892,2.8737,2.8799,2.8901,2.889,2.9143,2.9336,2.9348,2.9264,2.9258,2.9258,2.9082,2.8965,2.8965,2.9141,2.9355,2.957,2.9785,3.0019,3.0254,3.0254,3.0254,3.0254,3.0254,3.0254,3.0254,3.0254,3.0371,2.5892,2.6261,2.6463,2.6002,2.4134,2.1664,1.8743,1.5928,0.0,1.1167,1.008,0.9657,1.009,1.0909,1.1864,0.0,1.4522,1.6251,1.8437,1.9541,2.0641,0.0,2.2472,0.0,2.2928,2.5491,0.0,2.7661,3.0641,3.2643,3.3065,3.2771,3.2588,3.2588,3.2918,3.3083,3.3083,3.3486,3.3688,3.3688,3.378,3.3817,3.3817,3.3817,3.3817,3.3817,3.3817,3.3817,3.3817,3.3817,3.3817,3.3817,3.3817,3.3817,3.3817,3.3817,3.3615,3.334,3.3248,3.2955,3.2533,3.2129,3.1781,3.1488,3.1396,3.1377,3.1377,3.1377,3.1377,3.1304,3.0992,3.0846,3.0589,2.9764,2.9269,2.8975,2.8975,2.8975,2.8975,2.8975,2.8975,2.8975,2.8975,2.8975,2.8975,2.8975,2.8975,2.9094,2.939,2.945,2.9442,2.9184,2.9484,2.9651,2.9707,2.9685,2.9626,2.9626,2.9648,2.9863,3.0176,3.0293,3.0508,3.0879,3.0898,3.0898,3.0898,3.0898,3.0898,3.0898,3.0898,3.0898,2.58,2.6261,2.6408,2.5672,2.3827,2.151,1.8873,0.0,1.3074,1.1694,1.0071,0.9194,1.0264,1.0368,1.0915,1.2893,1.4015,1.5411,1.7742,1.9287,2.0575,2.1547,0.0,0.0,2.2928,2.4547,2.6162,2.7593,3.0397,3.2239,3.2625,3.2625,3.2588,3.2588,3.2625,3.2661,3.2661,3.3065,3.3285,3.3285,3.3651,3.3817,3.3817,3.3817,3.3817,3.3817,3.3817,3.3817,3.3817,3.3817,3.3817,3.3817,3.3817,3.3817,3.3817,3.3817,3.3798,3.3707,3.334,3.2955,3.2533,3.2129,3.1983,3.1873,3.1488,3.1377,3.1377,3.1377,3.1377,3.1359,3.1341,3.1047,3.0589,2.9764,2.9269,2.8975,2.8975,2.8975,2.8975,2.8975,2.8975,2.8975,2.8975,2.8975,2.8975,2.8975,2.8975,2.8975,2.9035,2.9331,2.9471,2.9456,2.9641,2.9871,3.0137,2.9785,2.9626,2.9626,2.9922,3.0156,3.0195,3.0605,3.084,3.0898,3.0898,3.0898,3.0898,3.0898,3.0898,3.0898,3.0898,3.0898,2.4959,2.5782,2.6131,2.5561,2.3466,2.0934,1.8345,1.5161,1.2382,1.1149,1.004,0.9526,1.0335,1.0265,1.062,1.2163,1.2545,1.348,1.5858,1.7141,1.8504,2.0281,2.1269,2.2084,0.0,0.0,2.7394,2.9751,3.1013,3.1689,3.1854,3.1873,3.1873,3.1873,3.2111,3.2239,3.2239,3.29,3.323,3.323,3.3633,3.3817,3.3817,3.3817,3.3817,3.3817,3.3817,3.3817,3.3817,3.3817,3.3817,3.3817,3.3817,3.3817,3.3817,3.3817,3.3817,3.3798,3.3633,3.3321,3.29,3.2496,3.2203,3.1928,3.1506,3.1377,3.1377,3.1377,3.1377,3.1377,3.1377,3.1084,3.0644,3.0075,2.9635,2.9269,2.903,2.8975,2.8975,2.8975,2.8975,2.8975,2.8975,2.8975,2.8975,2.8975,2.8975,2.8975,2.8975,2.9094,2.9272,2.9509,2.9712,2.9967,3.0296,3.0142,3.0179,3.0371,3.0527,3.0605,3.0605,3.0801,3.0898,3.0898,3.0898,3.0898,3.0898,3.0898,3.0898,3.0898,3.0898,3.0898,2.4079,2.5087,2.5708,2.5194,2.2819,2.011,1.7985,1.462,1.1655,1.0755,1.004,0.9696,1.0051,1.0163,1.0493,1.1384,1.1597,1.2425,1.4536,1.5738,1.7154,1.9172,0.0,2.1515,2.2311,2.5226,2.8312,3.1184,3.1377,3.1377,3.1377,3.1377,3.1377,3.1377,3.1671,3.1818,3.1818,3.2514,3.2863,3.2863,3.3266,3.345,3.345,3.345,3.345,3.345,3.345,3.3523,3.3633,3.3633,3.3707,3.3817,3.3817,3.3817,3.3817,3.3817,3.3817,3.3817,3.3817,3.3468,3.301,3.2845,3.2349,3.1781,3.1616,3.1469,3.1377,3.1377,3.1377,3.1377,3.1377,3.1084,3.0681,3.0296,2.9874,2.947,2.9067,2.8975,2.8975,2.8975,2.8975,2.8975,2.8975,2.8975,2.8975,2.8975,2.8975,2.8975,2.8975,2.8975,2.9094,2.9331,2.9509,2.9804,3.0216,3.0333,3.0509,3.0762,3.082,3.0898,3.0898,3.0898,3.0898,3.0898,3.0898,3.0898,3.0898,3.0898,3.0898,3.0898,3.0898,3.0957,2.3169,2.4445,2.5231,2.4422,2.1739,1.9006,1.794,1.4216,1.0967,1.0741,1.0095,0.9532,0.9274,0.9925,1.0522,1.06,1.1578,1.2812,1.4309,1.5778,1.7154,0.0,2.0244,2.1336,2.1168,2.4755,2.8312,3.1184,3.1377,3.1377,3.1377,3.1377,3.1377,3.1377,3.1377,3.1377,3.1377,3.1799,3.2019,3.2019,3.2423,3.2606,3.2606,3.2606,3.2606,3.2606,3.2606,3.2845,3.323,3.323,3.3468,3.3817,3.3817,3.3817,3.3817,3.3817,3.3817,3.3817,3.3817,3.3285,3.2661,3.3083,3.2386,3.1469,3.1873,3.1708,3.1377,3.1377,3.1377,3.1377,3.1377,3.1084,3.0681,3.0296,2.9874,2.947,2.9067,2.8975,2.8975,2.8975,2.8975,2.8975,2.8975,2.8975,2.8975,2.8975,2.8975,2.8975,2.8975,2.8975,2.8975,2.8975,2.8993,2.9272,2.9863,3.0216,3.0392,3.0392,3.0704,3.0898,3.0898,3.0898,3.0898,3.0898,3.0898,3.0898,3.0898,3.0898,3.0898,3.0898,3.0898,3.1113,2.0772,2.175,2.2263,2.1456,1.9494,1.7327,1.5853,1.3505,1.1241,0.9939,1.0242,1.0446,0.9398,1.0075,1.0943,1.1424,1.1931,1.2759,1.4041,1.5658,0.0,1.8343,2.0801,2.3159,2.5005,2.6324,2.8312,3.1184,3.1377,3.1377,3.1377,3.1377,3.1377,3.1377,3.1377,3.1377,3.1377,3.1799,3.2001,3.2019,3.2404,3.2588,3.2588,3.2588,3.2588,3.2588,3.2588,3.2661,3.279,3.279,3.3046,3.3413,3.3413,3.3578,3.3817,3.3817,3.3817,3.3817,3.3817,3.3468,3.3046,3.3175,3.2588,3.1836,3.1964,3.1708,3.1377,3.1377,3.1377,3.1377,3.1377,3.1286,3.1029,3.0369,3.0094,2.9819,2.914,2.8975,2.8975,2.8975,2.8975,2.8975,2.8975,2.8975,2.8975,2.8975,2.8975,2.8975,2.8975,2.8975,2.8975,2.8975,2.8975,2.9153,2.9568,2.9745,2.9863,3.0039,3.0392,3.0567,3.0567,3.1034,3.1191,3.0898,3.1172,3.1328,3.1328,3.1328,3.1465,3.1758,3.1758,3.1836,1.8542,1.962,2.0264,1.9582,1.8113,1.6334,1.4658,1.3044,1.1399,0.9576,1.0325,1.0852,0.9329,1.0139,1.1069,1.1057,1.1698,1.2559,1.3748,1.5337,1.7133,1.9209,2.1064,2.3346,2.6127,2.6817,2.8048,3.0455,3.112,3.1377,3.1377,3.1377,3.1377,3.1377,3.1377,3.1377,3.1377,3.1634,3.1763,3.1781,3.2019,3.2129,3.2129,3.2129,3.2129,3.2129,3.2129,3.2221,0.0,3.2368,3.2606,3.2991,3.2991,3.3138,3.3358,3.3358,3.3358,3.3358,3.3358,3.3193,3.301,3.3175,3.2771,3.2166,3.1854,3.1579,3.1377,3.1377,3.1377,3.1377,3.1377,3.1377,3.1176,3.0387,3.0204,2.9984,2.9159,2.8975,2.8975,2.8975,2.9104,2.9159,2.9012,2.9104,2.9159,2.9012,2.8975,2.8975,2.8975,2.8975,2.8975,2.8975,2.8975,2.9094,2.9272,2.945,2.9627,2.9863,3.0216,3.0508,3.0799,3.1249,3.1387,3.1133,3.1387,3.1445,3.1289,3.1445,3.1738,3.2229,3.2229,3.2246,0.0,1.7848,1.8852,1.843,1.7222,1.5754,1.4065,1.2786,0.0,0.9549,1.0336,1.0854,0.9203,1.0199,1.1011,1.008,1.1109,1.2412,1.356,1.5078,1.7346,2.08,2.1305,2.2455,2.5093,2.6533,2.785,2.9199,3.0584,3.1377,3.1377,3.1377,3.1377,3.1377,3.1377,3.1377,3.1377,3.1377,3.1377,3.1377,3.1377,3.1377,3.1377,3.1377,3.1377,3.1377,3.1377,3.1598,3.1964,3.1964,3.2203,3.2551,3.2551,3.257,3.2588,3.2588,3.2625,3.2643,3.2606,3.2625,3.2735,3.3065,3.29,3.2404,3.1616,3.1377,3.1377,3.1377,3.1377,3.1377,3.1377,3.1377,3.1176,3.0424,3.0222,2.9984,2.9195,2.903,2.903,2.903,2.9342,2.9489,2.9085,2.9324,2.9434,2.9048,2.8975,2.8975,2.8975,2.8975,2.8975,2.8975,2.8975,2.8975,2.8975,2.9272,2.9568,2.9863,3.0176,3.0721,3.1444,3.1543,3.1543,3.1523,3.1523,3.1348,3.0976,3.1406,3.1836,3.2266,3.2266,3.2461,1.3367,0.0,1.546,1.4744,1.4296,1.3608,0.0,1.2096,1.1802,0.9393,1.0502,1.1473,1.0049,1.0624,1.1481,1.1982,1.2705,1.3641,1.4816,1.7221,1.985,2.2613,2.3587,2.4679,2.6051,2.7752,2.8937,2.9265,3.0584,3.1377,3.1377,3.1377,3.1377,3.1377,3.1377,3.1377,3.1377,3.1377,3.1377,3.1377,3.1377,3.1377,3.1377,3.1377,3.1377,3.1377,3.1377,3.1433,3.1524,3.1524,3.1781,3.2148,3.2148,3.2331,3.2588,3.2588,3.279,3.3028,3.2698,3.301,3.345,3.2918,3.2478,3.2056,3.1543,3.1377,3.1377,3.1377,3.1377,3.1377,3.1377,3.1377,3.1249,3.0772,3.0424,3.0057,2.9544,2.9434,2.9434,2.9434,2.9764,2.9929,2.9507,2.9507,2.9434,2.9048,2.8975,2.8975,2.8975,2.8975,2.8975,2.8975,2.8975,2.8975,2.8975,2.9035,2.9272,2.9568,3.0225,3.0751,3.1127,3.1715,3.1855,3.1523,3.1523,3.1641,3.1935,3.2285,3.2715,3.3125,3.3125,3.3184,1.2263,1.3463,1.4671,1.4231,1.4121,1.378,1.253,1.2491,1.2104,0.9959,1.1055,1.2035,1.0971,1.145,1.2178,1.2791,1.3423,1.4549,1.654,1.8544,2.0524,2.2594,2.3983,2.4782,2.4657,2.7311,2.868,2.7912,2.9729,3.0919,3.1102,3.1102,3.1194,3.1377,3.1377,3.1377,3.1377,3.1377,3.1377,3.1377,3.1377,3.1377,3.1377,3.1377,3.1377,3.1377,3.1377,3.1377,3.1377,3.1377,3.1506,3.1726,3.1726,3.1854,3.2056,3.2258,3.2478,3.2661,3.2606,3.2881,3.3175,3.2735,3.2331,3.1928,3.1506,3.1377,3.1377,3.1377,3.1377,3.1377,3.1377,3.1377,3.1267,3.0882,3.0626,3.0351,2.9947,2.9855,2.9855,2.9855,3.0185,3.0351,2.9929,2.9855,2.9727,2.9324,2.9104,2.9048,2.9232,2.925,2.9324,2.9525,2.9544,2.9544,2.9544,2.9725,2.9814,2.9987,3.0474,3.1079,3.1828,3.2263,3.2344,3.2109,3.1914,3.2031,3.2461,3.2676,3.3008,3.3418,3.3418,3.3418,1.233,1.3791,1.5203,1.4818,1.4873,1.4769,1.3742,0.0,0.0,0.0,0.0,1.2672,1.1917,1.2461,1.3135,1.343,1.4193,1.5689,1.8291,1.9345,2.0544,2.2267,2.3839,2.4371,2.327,2.6647,2.8239,2.6503,2.878,3.0351,3.0681,3.0754,3.0937,3.1267,3.1341,3.1377,3.1377,3.1377,3.1377,3.1377,3.1377,3.1377,3.1377,3.1377,3.1377,3.1377,3.1377,3.1377,3.1377,3.1377,3.1377,3.1377,3.1377,3.1377,3.1433,3.1854,3.2038,3.2166,3.2625,3.2698,3.2606,3.2661,3.2386,3.1946,3.1579,3.1433,3.1377,3.1377,3.1377,3.1377,3.1377,3.1377,3.1286,3.0956,3.0827,3.0699,3.0369,3.0296,3.0296,3.0296,3.0607,3.0754,3.0369,3.0296,3.0149,2.9727,2.9379,2.9287,2.9617,2.9672,2.98,3.0167,3.0204,3.0204,3.0204,3.0513,3.0752,3.0755,3.1038,3.1648,3.2754,3.2793,3.2773,3.2695,3.2344,3.2383,3.2793,3.2793,3.3008,3.3418,3.3418,3.3418,1.336,1.4836,1.5643,1.358,1.3827,1.4248,1.2961,1.2957,0.0,0.0,0.0,0.0,1.2843,1.3453,1.4427,1.5532,1.6844,1.8095,1.9128,1.9773,2.1208,2.4193,2.5343,2.612,2.6651,2.8692,2.9368,2.7882,2.9297,3.0222,3.0296,3.0607,3.0809,3.0882,3.1194,3.1377,3.1377,3.1377,3.1377,3.1377,3.1377,3.1377,3.1377,3.1377,3.1377,3.1377,3.1377,3.1377,3.1377,3.1377,3.1377,3.1377,3.1377,3.1377,3.1433,3.1854,3.2221,3.2606,3.3358,3.3175,3.2661,3.301,3.2625,3.2001,3.1928,3.1653,3.1377,3.1377,3.1377,3.1377,3.1377,3.1377,3.1359,3.1304,3.1029,3.0772,3.0717,3.0699,3.0699,3.0699,3.1011,3.1157,3.0772,3.0699,3.0571,3.0167,3.0057,3.0039,3.0094,3.0112,3.013,3.0185,3.0204,3.0204,3.0204,3.0513,3.0977,3.1569,3.1918,3.2285,3.2793,3.2793,3.2637,3.2266,3.2207,3.2383,3.2793,3.2793,3.3008,3.3418,3.3418,3.3418,1.279,1.4102,1.5129,1.4212,1.5239,1.6236,1.5389,1.4883,1.4459,0.0,0.0,0.0,1.5355,1.5885,1.6871,1.8643,1.8663,1.9038,2.0653,2.0474,2.0924,2.2938,2.4746,2.5755,2.5392,2.8112,2.9195,2.7614,2.8796,2.9635,2.9855,3.0039,3.0241,3.0461,3.0846,3.1066,3.1066,3.1267,3.1377,3.1377,3.1377,3.1377,3.1377,3.1377,3.1377,3.1377,3.1377,3.1377,3.1377,3.1377,3.1377,3.1377,3.1377,3.1377,3.1451,3.2093,3.2716,3.3303,3.3688,3.3431,3.2973,3.3156,3.268,3.2001,3.2001,3.1708,3.1377,3.1377,3.1377,3.1377,3.1377,3.1377,3.1377,3.1377,3.1231,3.1102,3.1102,3.1102,3.1102,3.1102,3.1249,3.1322,3.1139,3.0919,3.0717,3.0552,3.0332,3.0277,3.0497,3.0516,3.0607,3.0809,3.0846,3.0846,3.0846,3.1162,3.1521,3.2047,3.257,3.2937,3.3144,3.3125,3.3047,3.2851,3.2851,3.2949,3.3125,3.3125,3.3242,3.3418,3.3418,3.3418,1.2588,1.3626,1.4763,1.5258,1.6486,1.7587,1.7752,1.6853,1.6083,1.6468,1.6872,1.7277,1.7695,1.8351,1.9339,2.0813,2.021,2.0076,2.1649,2.0989,2.0738,2.1797,2.4074,2.5203,2.4373,2.7432,2.8926,2.7599,2.8421,2.9122,2.9415,2.9525,2.9727,3.0039,3.0442,3.0644,3.0644,3.1047,3.1286,3.1377,3.1377,3.1377,3.1377,3.1377,3.1377,3.1377,3.1377,3.1377,3.1377,3.1377,3.1377,3.1377,3.1377,3.1488,3.1744,3.2478,3.3193,3.3817,3.3817,3.3615,3.3358,3.3358,3.2808,3.2148,3.2148,3.1781,3.1377,3.1377,3.1377,3.1377,3.1377,3.1377,3.1377,3.1377,3.1377,3.1377,3.1377,3.1377,3.1377,3.1377,3.1377,3.1377,3.1377,3.1121,3.0919,3.0919,3.0662,3.0589,3.0882,3.0919,3.1047,3.1341,3.1377,3.1377,3.1377,3.1717,3.1971,3.2218,3.2865,3.3292,3.3292,3.3355,3.3418,3.3418,3.3418,3.3418,3.3418,3.3418,3.3418,3.3418,3.3418,3.3418,1.4029,1.4689,1.5239,1.6028,1.6046,1.634,1.821,1.7697,1.7238,1.8724,1.9384,1.9394,1.8655,2.0076,2.1178,2.0719,2.1694,2.2115,2.0999,2.0703,2.1259,2.2827,2.4224,2.5517,2.6631,2.8157,2.9012,2.8856,2.8916,2.8993,2.903,2.9379,2.958,2.9617,3.002,3.0241,3.0241,3.0626,3.1011,3.1377,3.1377,3.1377,3.1377,3.1377,3.1377,3.1377,3.1377,3.1377,3.1377,3.1377,3.1377,3.1377,3.1377,3.1836,3.257,3.301,3.345,3.3817,3.3817,3.3798,3.378,3.378,3.3211,3.2551,3.2551,3.2001,3.1377,3.1377,3.1377,3.1377,3.1377,3.1377,3.1377,3.1377,3.1377,3.1377,3.1377,3.1377,3.1377,3.1377,3.1377,3.1377,3.1377,3.1359,3.1341,3.1341,3.1304,3.1304,3.1322,3.1341,3.1341,3.1377,3.1377,3.1377,3.1377,3.1717,3.191,3.1937,3.2594,3.2931,3.2931,3.3228,3.3418,3.3418,3.3418,3.3418,3.3418,3.3418,3.3418,3.3418,3.3418,3.3418,1.3268,1.4212,1.5294,1.612,1.6762,1.7532,1.8797,1.9311,1.9842,2.0943,2.131,2.1288,2.0961,2.1765,2.2519,2.2695,2.2477,2.226,2.2181,2.1499,2.1164,2.1776,2.3698,2.5178,2.5729,2.7744,2.8975,2.8975,2.8975,2.8975,2.8975,2.9122,2.9214,2.9214,2.9599,2.98,2.98,3.0222,3.0497,3.0644,3.1139,3.1377,3.1377,3.1377,3.1377,3.1377,3.1377,3.1377,3.1377,3.1377,3.1377,3.1396,3.1671,3.2111,3.2643,3.3065,3.3468,3.3817,3.3817,3.3817,3.378,3.3523,3.3065,3.2551,3.2313,3.1836,3.1377,3.1377,3.1377,3.1377,3.1377,3.1377,3.1377,3.1377,3.1377,3.1377,3.1377,3.1377,3.1377,3.1377,3.1377,3.1377,3.1377,3.1377,3.1377,3.1377,3.1377,3.1377,3.1377,3.1377,3.1377,3.1377,3.1377,3.1377,3.1377,3.1506,3.157,3.157,3.223,3.2676,3.2867,3.3038,3.3165,3.3418,3.3418,3.3418,3.3418,3.3418,3.3418,3.3418,3.3418,3.3574,1.3121,1.4076,1.5294,1.612,1.7294,1.8576,1.9806,2.0704,2.164,2.285,2.284,2.2785,2.3217,2.3327,2.3479,2.3711,2.3064,2.2706,2.3051,2.2341,2.1727,2.1727,2.407,2.5485,2.5056,2.7444,2.8975,2.8975,2.8975,2.8975,2.8975,2.8975,2.8975,2.8975,2.925,2.9379,2.9379,2.98,3.0002,3.002,3.0809,3.1194,3.1194,3.1322,3.1377,3.1377,3.1377,3.1377,3.1377,3.1377,3.1377,3.1433,3.1983,3.2368,3.2661,3.3211,3.3578,3.3817,3.3817,3.3817,3.3743,3.3358,3.2936,3.2514,3.2129,3.1708,3.1377,3.1377,3.1377,3.1377,3.1377,3.1377,3.1377,3.1377,3.1377,3.1377,3.1377,3.1377,3.1377,3.1377,3.1377,3.1377,3.1377,3.1377,3.1377,3.1377,3.1377,3.1377,3.1377,3.1377,3.1377,3.1377,3.1377,3.1377,3.1377,3.1377,3.1442,3.157,3.1974,3.2422,3.274,3.2912,3.3165,3.3418,3.3418,3.3418,3.3418,3.3418,3.3418,3.3418,3.3555,3.3789,1.3992,1.4488,1.5313,1.6087,1.755,1.9274,2.1248,2.1705,2.2291,2.4372,2.4134,2.3883,2.5142,2.4771,2.3994,2.3326,2.3551,2.365,2.3175,2.3076,2.3076,2.3139,2.5407,2.6459,2.5178,2.7444,2.8975,2.8975,2.8975,2.8975,2.8975,2.8975,2.8975,2.8975,2.8975,2.8975,2.8975,2.9439,2.9562,2.958,3.0387,3.0791,3.0809,3.1194,3.1377,3.1377,3.1377,3.1377,3.1377,3.1377,3.1377,3.1451,3.2276,3.2588,3.2698,3.3505,3.3798,3.3798,3.3798,3.3798,3.3743,3.334,3.2936,3.2514,3.2129,3.1708,3.1377,3.1377,3.1377,3.1377,3.1377,3.1377,3.1377,3.1377,3.1377,3.1377,3.1377,3.1377,3.1377,3.1377,3.1377,3.1377,3.1377,3.1377,3.1377,3.1377,3.1377,3.1377,3.1377,3.1377,3.1377,3.1377,3.1377,3.1377,3.1377,3.1377,3.1525,3.1864,3.1929,3.2038,3.2358,3.3038,3.3418,3.3418,3.3418,3.3418,3.3418,3.3418,3.3418,3.3437,3.3867,3.4082,1.3571,1.4689,1.6156,1.6945,1.9219,2.1566,0.0,2.3235,0.0,0.0,2.547,2.5179,2.4996,2.5454,2.5236,2.3135,2.3583,2.3974,2.3204,2.3076,2.345,2.4317,2.5973,2.684,2.6459,2.8002,2.8975,2.8975,2.8975,2.8975,2.8975,2.8975,2.8975,2.8975,2.8975,2.8975,2.8975,2.9104,2.9159,2.9159,2.969,3.0241,3.0809,3.1194,3.1377,3.1377,3.1377,3.1377,3.1377,3.1377,3.1377,3.1433,3.1964,3.2184,3.2239,3.2771,3.2955,3.2955,3.2955,3.2955,3.29,3.2496,3.2276,3.2111,3.1689,3.1469,3.1377,3.1377,3.1377,3.1377,3.1377,3.1377,3.1377,3.1377,3.1377,3.1377,3.1377,3.1377,3.1377,3.1377,3.1377,3.1377,3.1377,3.1377,3.1377,3.1377,3.1377,3.1377,3.1377,3.1377,3.1377,3.1377,3.1377,3.1377,3.1377,3.1744,3.2161,3.2553,3.2655,3.2725,3.274,3.2912,3.3165,3.3418,3.3418,3.3418,3.3418,3.3418,3.3574,3.3887,3.4023,3.4414,1.4433,1.5735,1.7258,1.8412,2.0521,2.2703,2.417,2.4684,2.5176,2.6076,2.6002,2.5727,2.5527,2.5839,2.5467,2.339,2.3661,2.4063,2.387,2.3884,2.4317,2.5668,2.6961,2.7564,2.7082,2.8182,2.8975,2.8975,2.8975,2.8975,2.8975,2.8975,2.8975,2.8975,2.8975,2.8975,2.8975,2.8975,2.8975,2.8993,2.9379,2.9837,3.0314,3.0882,3.1231,3.1377,3.1377,3.1377,3.1377,3.1377,3.1377,3.1414,3.1836,3.2001,3.2056,3.2441,3.2588,3.2588,3.2588,3.2588,3.2533,3.2129,3.2001,3.1928,3.1506,3.1377,3.1377,3.1377,3.1377,3.1377,3.1377,3.1377,3.1377,3.1377,3.1377,3.1377,3.1377,3.1377,3.1377,3.1377,3.1377,3.1377,3.1377,3.1377,3.1377,3.1377,3.1377,3.1377,3.1377,3.1377,3.1377,3.1377,3.1377,3.1506,3.1836,3.2166,3.2556,3.2914,3.3369,3.3478,3.3117,3.3135,3.3165,3.3418,3.3418,3.3418,3.3418,3.3594,3.3809,3.4082,3.4434,3.4883,1.5849,1.7111,1.8484,2.0113,2.1603,2.3198,2.5543,2.6076,2.6186,2.6518,2.6004,2.5711,2.6444,2.6004,2.5183,2.4101,2.3873,2.4111,2.4926,2.496,2.5448,2.6919,2.8134,2.839,2.7219,2.8194,2.8883,2.892,2.8938,2.8938,2.8975,2.8975,2.8975,2.8975,2.8975,2.8975,2.8975,2.8975,2.8975,2.8993,2.9342,2.9525,2.9659,3.0387,3.0956,3.1322,3.1359,3.1377,3.1377,3.1377,3.1377,3.1414,3.1799,3.1946,3.2001,3.2349,3.2478,3.2478,3.2478,3.2478,3.2423,3.2074,3.1946,3.1873,3.1488,3.1377,3.1377,3.1377,3.1377,3.1377,3.1377,3.1377,3.1377,3.1377,3.1377,3.1377,3.1377,3.1377,3.1377,3.1377,3.1377,3.1377,3.1377,3.1377,3.1377,3.1377,3.1377,3.1377,3.1377,3.1377,3.1377,3.1377,3.1377,3.1744,3.2625,3.2698,3.2808,3.3065,3.3895,3.4213,3.3739,3.3558,3.3457,3.3418,3.3418,3.3437,3.3476,3.3887,3.4121,3.4219,3.5019,3.541,1.5111,1.6707,1.8539,2.0503,2.2868,2.5014,2.6188,2.6444,2.6481,2.6573,2.6444,2.6389,2.6554,2.6701,2.6387,2.511,2.4357,2.4349,2.5453,2.4822,2.5058,2.7369,2.7906,2.7964,2.7676,2.7906,2.8168,2.8498,2.8517,2.8663,2.8975,2.8975,2.8975,2.8975,2.8975,2.8975,2.8975,2.8975,2.8975,2.8975,2.9067,2.9269,2.9641,3.0094,3.0552,3.0937,3.1249,3.1377,3.1377,3.1377,3.1377,3.1396,3.1469,3.1506,3.1524,3.1616,3.1634,3.1634,3.1634,3.1634,3.1616,3.1543,3.1506,3.1506,3.1396,3.1377,3.1377,3.1377,3.1377,3.1377,3.1377,3.1377,3.1377,3.1377,3.1377,3.1377,3.1377,3.1377,3.1377,3.1377,3.1377,3.1377,3.1377,3.1377,3.1377,3.1377,3.1377,3.1377,3.1377,3.1377,3.1377,3.1377,3.1377,3.1964,3.3431,3.356,3.3578,3.3633,3.384,3.4402,3.5403,3.4466,3.3769,3.3437,3.3418,3.3594,3.3926,3.4023,3.4434,3.5117,3.5312,3.5566,1.5258,1.7147,1.9366,2.2171,2.4134,2.5635,2.6408,2.6591,2.6591,2.6591,2.6591,2.6591,2.6591,2.6756,2.6552,2.5422,2.4852,2.4862,2.5683,2.5236,2.5584,2.7594,2.7822,2.7822,2.7822,2.7948,2.815,2.837,2.8572,2.8773,2.8975,2.8975,2.8975,2.8975,2.8975,2.8975,2.8975,2.8975,2.8975,2.8975,2.8975,2.9085,2.9305,2.9929,3.0424,3.0791,3.1011,3.1194,3.1377,3.1377,3.1377,3.1377,3.1377,3.1377,3.1377,3.1377,3.1377,3.1377,3.1377,3.1377,3.1377,3.1377,3.1377,3.1377,3.1377,3.1377,3.1377,3.1377,3.1377,3.1377,3.1377,3.1377,3.1377,3.1377,3.1377,3.1377,3.1377,3.1377,3.1377,3.1377,3.1543,3.1616,3.1414,3.1377,3.1377,3.1377,3.2038,3.2551,3.2551,3.2551,3.2551,3.2551,3.2551,3.2881,3.3743,3.3817,3.4094,3.4784,3.4853,3.5059,3.547,3.4898,3.4355,3.3848,3.3965,3.4141,3.4375,3.459,3.4941,3.5391,3.5605,3.5801,1.5203,1.7568,2.0264,2.3785,2.5084,0.0,2.6316,2.6536,2.6591,2.6591,2.6591,2.6591,2.6591,2.6591,2.6354,2.5583,2.5297,2.5343,2.5881,2.5743,2.6105,2.745,2.762,2.762,2.762,2.7875,2.8113,2.8187,2.848,2.8737,2.8883,2.8883,2.892,2.8975,2.8975,2.8975,2.8975,2.8975,2.8975,2.8975,2.8975,2.8975,2.9012,2.969,3.0204,3.0589,3.0662,3.0919,3.1267,3.1267,3.1322,3.1377,3.1377,3.1377,3.1377,3.1377,3.1377,3.1377,3.1377,3.1377,3.1377,3.1377,3.1377,3.1377,3.1377,3.1377,3.1377,3.1377,3.1377,3.1377,3.1377,3.1377,3.1377,3.1377,3.1433,3.1469,3.1396,3.1377,3.1396,3.1506,3.1799,3.1909,3.1451,3.1377,3.1469,3.1744,3.2955,3.3817,3.3817,3.3817,3.3817,3.3817,3.3817,3.3817,3.3817,3.3817,3.4301,3.5538,3.5879,3.5606,3.4784,3.5095,3.5098,3.4609,3.4668,3.4746,3.4824,3.5215,3.543,3.5508,3.5859,3.6016,1.3424,0.0,2.0558,0.0,2.4863,2.5543,0.0,0.0,2.6591,2.6591,2.6591,2.6591,2.6591,2.6591,2.6555,2.6427,2.5529,2.527,2.6335,2.5599,2.5377,2.6628,2.6738,2.6738,2.6738,2.6793,2.6976,2.7306,2.7398,2.7728,2.8443,2.848,2.8627,2.8975,2.8975,2.8975,2.8975,2.8975,2.8975,2.8975,2.8975,2.8975,2.8993,2.9085,2.936,2.9764,3.0112,3.0497,3.0864,3.0864,3.1066,3.1377,3.1377,3.1377,3.1377,3.1377,3.1377,3.1377,3.1377,3.1377,3.1377,3.1377,3.1377,3.1377,3.1377,3.1377,3.1377,3.1377,3.1377,3.1377,3.1377,3.1377,3.1377,3.1377,3.1653,3.1818,3.1451,3.1377,3.1524,3.2019,3.2148,3.2019,3.1469,3.1377,3.1854,3.3266,3.367,3.3817,3.3817,3.3817,3.3817,3.3817,3.3817,3.3817,3.3817,3.3817,3.3886,3.4094,3.5264,3.5401,3.4024,3.5188,3.5879,3.5781,3.5078,3.4902,3.5293,3.5371,3.5586,3.5937,3.5996,3.6016,1.4873,1.7568,2.0319,0.0,2.4477,2.49,2.5543,2.6002,2.6243,2.6243,2.6426,2.6591,2.6591,2.6591,2.6591,2.6591,2.6136,2.5971,2.6537,2.6136,2.6026,2.6537,2.6591,2.6591,2.6591,2.6793,2.6995,2.716,2.7436,2.7655,2.8022,2.804,2.8223,2.8645,2.8645,2.8755,2.8975,2.8975,2.8975,2.8975,2.8975,2.8975,2.8975,2.8975,2.9195,2.958,2.9764,3.0075,3.0479,3.0699,3.0882,3.1066,3.1286,3.1377,3.1377,3.1377,3.1377,3.1377,3.1377,3.1377,3.1377,3.1377,3.1377,3.1377,3.1377,3.1377,3.1377,3.1377,3.1377,3.1377,3.1377,3.1377,3.1377,3.1377,3.1689,3.2019,3.2056,3.2056,3.2184,3.2588,3.2166,3.1964,3.2625,3.2735,3.2991,3.3707,3.3817,3.3817,3.3817,3.3817,3.3817,3.3817,3.3817,3.3817,3.3817,3.3817,3.3817,3.3817,3.4439,3.4508,3.3817,3.4853,3.5606,3.6016,3.5644,3.5547,3.5742,3.5742,3.584,3.6016,3.6016,3.6016,1.5478,1.7385,1.9017,2.2263,2.3522,2.406,0.0,0.0,2.6021,2.6021,2.6298,2.6591,2.6591,2.6591,2.6591,2.6591,2.6591,2.6591,2.6591,2.6591,2.6591,2.6591,2.6591,2.6591,2.6591,2.6848,2.7031,2.7031,2.7362,2.7564,2.7675,2.7675,2.7801,2.8223,2.8333,2.8535,2.8828,2.8938,2.8975,2.8975,2.8975,2.8975,2.8975,2.8975,2.914,2.9415,2.9415,2.9654,3.0075,3.0479,3.0699,3.0827,3.1231,3.1377,3.1377,3.1377,3.1377,3.1377,3.1377,3.1377,3.1377,3.1377,3.1377,3.1377,3.1377,3.1377,3.1377,3.1377,3.1377,3.1377,3.1377,3.1377,3.1377,3.1377,3.1781,3.2239,3.2533,3.2753,3.2973,3.3175,3.2551,3.2386,3.3596,3.3817,3.3817,3.3817,3.3817,3.3817,3.3817,3.3817,3.3817,3.3817,3.3817,3.3817,3.3817,3.3817,3.3817,3.3817,3.3817,3.3817,3.3817,3.437,3.5059,3.5947,3.6016,3.6016,3.6016,3.6016,3.6016,3.6016,3.6016,3.6016,1.3304,1.4689,1.6101,1.9308,2.154,2.3169,0.0,0.0,2.6021,2.6021,2.6298,2.6591,2.6591,2.6591,2.6591,2.6591,2.6591,2.6591,2.6591,2.6591,2.6591,2.6591,2.6591,2.6591,2.6591,2.6609,2.6628,2.6628,2.6628,2.6811,2.7196,2.7215,2.7454,2.784,2.8187,2.8407,2.8425,2.8792,2.8975,2.8975,2.8975,2.8975,2.8975,2.8975,2.8993,2.9012,2.9012,2.9232,2.9635,3.0057,3.0461,3.0827,3.1231,3.1377,3.1377,3.1377,3.1377,3.1377,3.1377,3.1377,3.1377,3.1377,3.1377,3.1377,3.1377,3.1377,3.1377,3.1377,3.1377,3.1377,3.1377,3.1377,3.1377,3.1377,3.1983,3.257,3.2588,3.3211,3.3762,3.378,3.3725,3.3707,3.3798,3.3817,3.3817,3.3817,3.3817,3.3817,3.3817,3.3817,3.3817,3.3817,3.3817,3.3817,3.3817,3.3817,3.3817,3.3817,3.3817,3.3817,3.3817,3.3817,3.4508,3.5947,3.6016,3.6016,3.6016,3.6016,3.6016,3.6016,3.6016,3.6016,1.2643,1.3901,1.5313,1.7752,1.9696,2.1248,2.2355,2.3749,2.4992,2.5525,2.5947,2.6261,2.6536,2.6591,2.6591,2.6591,2.6591,2.6591,2.6591,2.6591,2.6591,2.6591,2.6591,2.6591,2.6591,2.6591,2.6591,2.6591,2.6591,2.6646,2.6793,2.6793,2.6976,2.738,2.784,2.8242,2.8773,2.892,2.8975,2.8975,2.8975,2.8975,2.8975,2.8975,2.8975,2.8975,2.8975,2.9067,2.925,2.9929,3.0277,3.0479,3.1121,3.1377,3.1377,3.1377,3.1377,3.1377,3.1377,3.1377,3.1377,3.1377,3.1377,3.1377,3.1377,3.1377,3.1377,3.1377,3.1377,3.1377,3.1377,3.1377,3.1506,3.2038,3.2771,3.3376,3.3376,3.3615,3.3817,3.3817,3.3817,3.3817,3.3817,3.3817,3.3817,3.3817,3.3817,3.3817,3.3817,3.3817,3.3817,3.3817,3.3817,3.3817,3.3817,3.3817,3.3817,3.3817,3.3817,3.3817,3.3817,3.3817,3.4508,3.5947,3.6016,3.6016,3.6016,3.6016,3.6016,3.6016,3.6016,3.6016,1.1693,1.279,0.0,0.0,1.7917,1.9253,2.1394,2.2758,2.3852,2.4808,2.5433,2.5892,2.6133,2.6188,2.6279,2.6554,2.6591,2.6591,2.6591,2.6591,2.6591,2.6591,2.6591,2.6591,2.6591,2.6591,2.6591,2.6591,2.6591,2.6591,2.6591,2.6591,2.6774,2.716,2.762,2.8095,2.8773,2.892,2.8975,2.8975,2.8975,2.8975,2.8975,2.8975,2.8975,2.8975,2.8975,2.8975,2.9048,2.9855,3.0204,3.0277,3.1066,3.1377,3.1377,3.1377,3.1377,3.1377,3.1377,3.1377,3.1377,3.1377,3.1377,3.1377,3.1377,3.1377,3.1377,3.1377,3.1377,3.1377,3.1377,3.1377,3.1579,3.2404,3.301,3.3486,3.3762,3.3817,3.3817,3.3817,3.3817,3.3817,3.3817,3.3817,3.3817,3.3817,3.3817,3.3817,3.3817,3.3817,3.3817,3.3817,3.3817,3.3817,3.3817,3.3817,3.3817,3.3817,3.3817,3.3817,3.3817,3.3817,3.4508,3.5947,3.6016,3.6016,3.6016,3.6016,3.6016,3.6016,3.6016,3.6016,0.0,0.0,0.0,0.0,0.0,0.0,2.1236,0.0,2.2557,2.3889,2.4771,2.5289,2.5414,2.5414,2.569,2.6426,2.6554,2.6573,2.6591,2.6591,2.6591,2.6591,2.6591,2.6591,2.6591,2.6591,2.6591,2.6591,2.6591,2.6591,2.6591,2.6591,2.6774,2.716,2.762,2.7967,2.8388,2.8792,2.8975,2.8975,2.8975,2.8975,2.8975,2.8975,2.8975,2.8975,2.8975,2.8975,2.9048,2.9855,3.0185,3.0277,3.1047,3.1359,3.1377,3.1377,3.1377,3.1377,3.1377,3.1377,3.1377,3.1377,3.1377,3.1377,3.1377,3.1377,3.1377,3.1377,3.1377,3.1396,3.1433,3.1451,3.1634,3.2404,3.2606,3.2845,3.3651,3.3817,3.3817,3.3817,3.3817,3.3817,3.3817,3.3817,3.3817,3.3817,3.3817,3.3817,3.3817,3.3817,3.3817,3.3817,3.3817,3.3817,3.3817,3.3817,3.3817,3.3817,3.3817,3.3817,3.3817,3.3817,3.4508,3.5947,3.6016,3.6016,3.6016,3.6016,3.6016,3.6016,3.6016,3.6016,1.0901,0.0,0.0,0.0,0.0,0.0,0.0,0.0,1.9586,2.2282,2.2777,2.3272,2.5051,2.5414,2.5436,2.5727,2.6002,2.6296,2.6554,2.6591,2.6591,2.6591,2.6591,2.6591,2.6591,2.6591,2.6591,2.6591,2.6591,2.6591,2.6591,2.6591,2.6774,2.716,2.762,2.7967,2.8388,2.8792,2.8975,2.8975,2.8975,2.8975,2.8975,2.8975,2.8975,2.8975,2.8975,2.8975,2.9012,2.9544,2.9929,3.0241,3.0754,3.1121,3.1377,3.1377,3.1377,3.1377,3.1377,3.1377,3.1377,3.1377,3.1377,3.1377,3.1377,3.1377,3.1377,3.1377,3.1377,3.1653,3.2826,3.3138,3.3046,3.268,3.3046,3.3541,3.3762,3.3817,3.3817,3.3817,3.3817,3.3817,3.3817,3.3817,3.3817,3.3817,3.3817,3.3817,3.3817,3.3817,3.3817,3.3817,3.3817,3.3817,3.3817,3.3817,3.3817,3.3817,3.3817,3.3817,3.3817,3.3817,3.4508,3.5947,3.6016,3.6016,3.6016,3.6016,3.6016,3.6016,3.6016,3.6016,1.1614,1.2043,0.0,0.0,0.0,0.0,1.645,1.711,1.8119,2.1181,2.1723,2.2181,2.3804,2.4372,2.4666,2.4882,2.5249,2.5672,2.6023,2.6078,2.6133,2.6298,2.6334,2.6389,2.6573,2.6591,2.6591,2.6591,2.6591,2.6591,2.6591,2.6591,2.6701,2.6921,2.7306,2.771,2.8132,2.8535,2.8828,2.8975,2.8975,2.8975,2.8975,2.8975,2.8975,2.8975,2.8975,2.8975,2.8993,2.9232,2.9672,3.0241,3.0626,3.1029,3.1377,3.1377,3.1377,3.1377,3.1377,3.1377,3.1377,3.1377,3.1377,3.1377,3.1377,3.1377,3.1377,3.1377,3.1377,3.1744,3.3395,3.3817,3.3688,3.3211,3.3468,3.3817,3.3817,3.3817,3.3817,3.3817,3.3817,3.3817,3.3817,3.3817,3.3817,3.3817,3.3817,3.3817,3.3817,3.3817,3.3817,3.3817,3.3817,3.3817,3.3817,3.3817,3.3817,3.3817,3.3817,3.3817,3.3817,3.4458,3.5519,3.709,3.6387,3.6016,3.6016,3.6016,3.6016,3.6016,3.6016,3.6406,1.2661,1.2735,0.0,1.4194,1.3754,0.0,1.7275,1.7348,1.744,2.0044,2.0827,2.1266,2.1833,2.2602,2.3308,2.3687,2.4189,2.4757,2.5289,2.5414,2.5543,2.5911,2.5947,2.6094,2.6426,2.6444,2.6481,2.6518,2.6554,2.6591,2.6591,2.6591,2.6591,2.6591,2.6976,2.7361,2.7822,2.8187,2.859,2.8975,2.8975,2.8975,2.8975,2.8975,2.8975,2.8975,2.8975,2.8975,2.8975,2.8975,2.947,3.0241,3.0589,3.0992,3.1377,3.1377,3.1377,3.1377,3.1377,3.1377,3.1377,3.1377,3.1377,3.1377,3.1377,3.1377,3.1377,3.1377,3.1506,3.1983,3.3431,3.3817,3.3817,3.3817,3.3817,3.3817,3.3817,3.3817,3.3817,3.3817,3.3817,3.3817,3.3817,3.3817,3.3817,3.3817,3.3817,3.3817,3.3817,3.3817,3.3817,3.3817,3.3817,3.3817,3.3817,3.3817,3.3817,3.3817,3.3817,3.389,3.4073,3.5594,3.7162,3.8574,3.6894,3.6016,3.6016,3.6016,3.6016,3.6016,3.6016,3.6934,1.4726,1.4799,1.4958,1.4194,1.4818,0.0,1.4131,1.4671,1.579,0.0,1.7276,1.7862,1.9586,2.0558,2.1034,2.0796,2.2144,2.3785,2.5179,2.5414,2.5451,2.5525,2.5543,2.558,2.5653,2.5601,2.5782,2.6113,2.6389,2.6591,2.6591,2.6591,2.6591,2.6591,2.6976,2.7361,2.7822,2.8187,2.859,2.8975,2.8975,2.8975,2.8975,2.8975,2.8975,2.8975,2.8975,2.8975,2.8975,2.8975,2.947,3.0204,3.0296,3.0754,3.1377,3.1377,3.1377,3.1377,3.1377,3.1377,3.1377,3.1377,3.1377,3.1377,3.1377,3.1377,3.1377,3.1377,3.2331,3.3413,3.3725,3.3817,3.3817,3.3817,3.3817,3.3817,3.3817,3.3817,3.3817,3.3817,3.3817,3.3817,3.3817,3.3817,3.3817,3.3817,3.3817,3.3817,3.3817,3.3817,3.3817,3.3817,3.3817,3.3817,3.3817,3.3817,3.3817,3.3817,3.3817,3.4385,3.5687,3.7286,3.8282,3.8574,3.6894,3.6016,3.6016,3.6016,3.6016,3.6016,3.6016,3.6934,1.5991,1.5863,1.59,1.5496,1.5551,0.0,0.0,1.4799,1.5276,1.6855,1.6709,1.6872,1.8669,1.9347,1.9696,1.9857,2.1248,2.251,2.3162,2.4165,2.49,2.5102,2.5069,2.5161,2.5396,2.5414,2.5598,2.5984,2.6205,2.6371,2.6573,2.6591,2.6591,2.6591,2.6774,2.716,2.7822,2.7967,2.8388,2.8975,2.8975,2.8975,2.8975,2.8975,2.8975,2.8975,2.8975,2.8975,2.8975,2.8975,2.947,3.0204,3.0204,3.0681,3.1377,3.1377,3.1377,3.1377,3.1377,3.1377,3.1377,3.1377,3.1377,3.1377,3.1377,3.1377,3.1414,3.1634,3.2129,3.279,3.3596,3.3817,3.3817,3.3817,3.3817,3.3817,3.3817,3.3817,3.3817,3.3817,3.3817,3.3817,3.3817,3.3817,3.3817,3.3817,3.3817,3.3817,3.3817,3.3817,3.3817,3.3817,3.3817,3.3817,3.3817,3.3817,3.3817,3.3817,3.4568,3.5738,3.7364,3.8209,3.8574,3.8574,3.7734,3.7285,3.7285,3.7285,3.7285,3.7285,3.7285,3.7754,1.7294,1.7038,1.7075,1.7037,0.0,1.6083,0.0,0.0,0.0,1.6963,1.6652,1.6486,0.0,0.0,0.0,1.9017,0.0,0.0,0.0,2.2098,0.0,2.4024,2.428,2.4556,2.4886,2.4831,2.5051,2.5745,2.5635,2.5784,2.6426,2.6554,2.6591,2.6591,2.6591,2.694,2.7711,2.7785,2.8132,2.8865,2.8938,2.8975,2.8975,2.8975,2.8975,2.8975,2.8975,2.8975,2.8975,2.8975,2.947,3.0204,3.0204,3.0681,3.1377,3.1377,3.1377,3.1377,3.1377,3.1377,3.1377,3.1377,3.1377,3.1377,3.1377,3.1377,3.1451,3.1799,3.1726,3.1854,3.323,3.3688,3.3817,3.3817,3.3817,3.3817,3.3817,3.3817,3.3817,3.3817,3.3817,3.3817,3.3817,3.3817,3.3817,3.3817,3.3817,3.3817,3.3817,3.3817,3.3817,3.3817,3.3817,3.3817,3.3817,3.3817,3.3817,3.3817,3.561,3.7236,3.8574,3.8574,3.8574,3.8574,3.8574,3.8574,3.8574,3.8574,3.8574,3.8574,3.8574,3.8574,0.0,0.0,0.0,0.0,1.8412,1.8485,1.5019,0.0,1.579,1.4616,0.0,0.0,0.0,0.0,0.0,0.0,0.0,0.0,1.8009,1.9347,2.0686,2.1438,2.2455,2.3133,2.3169,2.284,2.329,2.4812,2.4225,2.4464,2.6002,2.6389,2.6591,2.6591,2.6591,2.6793,2.7233,2.7638,2.8003,2.8462,2.881,2.8975,2.8975,2.8975,2.8975,2.8975,2.8975,2.8975,2.8975,2.8975,2.947,3.0204,3.0204,3.0681,3.1377,3.1377,3.1377,3.1377,3.1377,3.1377,3.1377,3.1377,3.1377,3.1377,3.1377,3.1377,3.1396,3.1433,3.1781,3.2221,3.2625,3.3266,3.3817,3.3817,3.3817,3.3817,3.3817,3.3817,3.3817,3.3817,3.3817,3.3817,3.3817,3.3817,3.3817,3.3817,3.3817,3.3817,3.3817,3.3817,3.3817,3.3817,3.3817,3.3817,3.3817,3.3817,3.3817,3.3817,3.6618,3.8428,3.8574,3.8574,3.8574,3.8574,3.8574,3.8574,3.8574,3.8574,3.8574,3.8574,3.8574,3.8574,0.0,0.0,0.0,0.0,1.8705,1.821,1.5845,1.5276,1.5203,0.0,0.0,0.0,0.0,0.0,0.0,0.0,1.6963,0.0,0.0,0.0,1.8999,2.0223,0.0,0.0,2.2144,2.1815,2.23,2.3932,2.3261,2.3657,2.558,2.6058,2.6334,2.6591,2.6591,2.6774,2.7178,2.762,2.7967,2.8407,2.8792,2.8975,2.8975,2.8975,2.8975,2.8975,2.8975,2.8975,2.8975,2.8975,2.9324,2.9855,3.0112,3.0681,3.1377,3.1377,3.1377,3.1377,3.1377,3.1377,3.1377,3.1377,3.1377,3.1377,3.1377,3.1377,3.1377,3.1377,3.1543,3.1763,3.1854,3.2845,3.3817,3.3817,3.3817,3.3817,3.3817,3.3817,3.3817,3.3817,3.3817,3.3817,3.3817,3.3817,3.3817,3.3817,3.3817,3.3817,3.3817,3.3817,3.3817,3.3817,3.3817,3.3817,3.3817,3.3817,3.3817,3.3817,3.6833,3.8574,3.8574,3.8574,3.8574,3.8574,3.8574,3.8574,3.8574,3.8574,3.8574,3.8574,3.8574,3.8574,2.0753,0.0,2.079,1.9347,1.8632,1.7825,1.616,1.5478,1.5276,1.5625,0.0,0.0,0.0,0.0,0.0,0.0,0.0,1.6431,0.0,1.6211,0.0,0.0,0.0,0.0,0.0,2.0558,2.0924,2.2858,2.2034,2.2538,2.4955,2.558,2.6039,2.6408,2.6536,2.6719,2.7013,2.7398,2.7877,2.8223,2.8627,2.8883,2.8975,2.8975,2.8975,2.8975,2.8975,2.8975,2.8975,2.8975,2.9214,2.9599,2.991,3.0516,3.1231,3.1341,3.1377,3.1377,3.1377,3.1377,3.1377,3.1377,3.1377,3.1377,3.1377,3.1377,3.1377,3.1377,3.1377,3.1377,3.1377,3.2588,3.3817,3.3817,3.3817,3.3817,3.3817,3.3817,3.3817,3.3817,3.3817,3.3817,3.3817,3.3817,3.3817,3.3817,3.3817,3.3817,3.3817,3.3817,3.3817,3.3817,3.3817,3.3817,3.3817,3.3817,3.4209,3.5074,3.7316,3.8428,3.799,3.8355,3.8428,3.799,3.8355,3.8574,3.8574,3.8574,3.8574,3.8574,3.8574,3.8574,2.2419,2.251,2.2071,1.8905,1.8393,1.7972,1.5203,1.5735,1.6615,1.5845,0.0,0.0,0.0,0.0,0.0,0.0,0.0,0.0,0.0,0.0,0.0,0.0,0.0,0.0,0.0,1.854,1.8779,2.154,2.0301,2.0796,2.4073,2.501,2.5617,2.6021,2.6371,2.6591,2.6609,2.6995,2.7398,2.784,2.8205,2.8608,2.8975,2.8975,2.8975,2.8975,2.8975,2.8975,2.8975,2.8975,2.9214,2.9562,2.958,3.0094,3.0846,3.1231,3.1377,3.1377,3.1377,3.1377,3.1377,3.1377,3.1377,3.1377,3.1377,3.1377,3.1377,3.1377,3.1377,3.1377,3.1377,3.2588,3.3817,3.3817,3.3817,3.3817,3.3817,3.3817,3.3817,3.3817,3.3817,3.3817,3.3817,3.3817,3.3817,3.3817,3.3817,3.3817,3.3817,3.3817,3.3817,3.3817,3.3817,3.3817,3.3817,3.3817,3.5112,3.8234,3.8535,3.7916,3.6349,3.777,3.7843,3.6275,3.7843,3.8574,3.8574,3.8574,3.8574,3.8574,3.8574,3.8574,2.3151,2.359,2.351,2.0778,1.9806,1.8852,1.6251,1.634,1.667,1.5863,0.0,0.0,0.0,0.0,0.0,0.0,0.0,0.0,0.0,0.0,0.0,0.0,0.0,0.0,0.0,0.0,1.8229,1.9989,1.9622,2.0594,2.3584,2.4262,2.5047,2.5984,2.6149,2.6298,2.6591,2.6976,2.738,2.7822,2.8187,2.8608,2.8975,2.8975,2.8975,2.8975,2.8975,2.8975,2.8975,2.8975,2.9067,2.9214,2.947,2.991,3.0442,3.0846,3.1157,3.1377,3.1377,3.1377,3.1377,3.1377,3.1377,3.1377,3.1377,3.1377,3.1377,3.1377,3.1377,3.1634,3.2698,3.3395,3.3817,3.3817,3.3817,3.3817,3.3817,3.3817,3.3817,3.3817,3.3817,3.3817,3.3817,3.3817,3.3817,3.3817,3.3817,3.3817,3.3817,3.3817,3.3817,3.3817,3.3817,3.4238,3.5302,3.6334,3.7446,3.8535,3.7604,3.6793,3.6201,3.6719,3.6719,3.6201,3.7751,3.8574,3.8574,3.8574,3.8574,3.8574,3.8574,3.8574,2.4104,2.4422,2.4262,2.208,2.1163,2.0113,1.7679,1.7807,1.8174,1.7367,0.0,0.0,0.0,0.0,0.0,0.0,0.0,0.0,0.0,1.3042,0.0,0.0,0.0,0.0,0.0,1.6468,1.7238,1.9164,1.8907,1.9897,0.0,2.3565,2.4427,2.5561,2.5874,2.6278,2.6793,2.705,2.7453,2.7985,2.826,2.8608,2.8975,2.8975,2.8975,2.8975,2.8975,2.8975,2.8975,2.8975,2.8975,2.9012,2.9269,2.9709,3.0241,3.0644,3.1047,3.1377,3.1377,3.1377,3.1377,3.1377,3.1377,3.1377,3.1377,3.1377,3.1414,3.1616,3.1671,3.2001,3.345,3.3817,3.3817,3.3817,3.3817,3.3817,3.3817,3.3817,3.3817,3.3817,3.3817,3.3817,3.3817,3.3817,3.3817,3.3817,3.3817,3.3817,3.3817,3.3817,3.3817,3.3817,3.3817,3.4458,3.6072,3.7162,3.777,3.777,3.6793,3.6201,3.6201,3.6201,3.6497,3.7015,3.8063,3.8574,3.8574,3.8574,3.8574,3.8574,3.8574,3.8574]}]]